<?xml version="1.0" encoding="UTF-8" standalone="no" ?>
<gpx xmlns="http://www.topografix.com/GPX/1/1" xmlns:xsi="http://www.w3.org/2001/XMLSchema-instance" xsi:schemaLocation="http://www.topografix.com/GPX/1/1 http://www.topografix.com/GPX/1/1/gpx.xsd" version="1.1" creator="VisuGPX - https://www.visugpx.com">
  <metadata>
    <name>BOUCLE CHAMELET</name>
    <desc><![CDATA[BOUCLE AU DEPART DE CHAMELET
Superbes paysages, superbes santiers, mais un peu cassants]]></desc>
  </metadata>
  <trk>
    <name><![CDATA[CHAMELET LETRA]]></name>
    <trkseg>
      <trkpt lat="45.98285" lon="4.50882">
        <ele>210.67</ele>
        <time>2014-03-09T09:52:49Z</time>
      </trkpt>
      <trkpt lat="45.98285" lon="4.50882">
        <ele>214.03</ele>
        <time>2014-03-09T09:52:50Z</time>
      </trkpt>
      <trkpt lat="45.98285" lon="4.50882">
        <ele>217.4</ele>
        <time>2014-03-09T09:52:51Z</time>
      </trkpt>
      <trkpt lat="45.98286" lon="4.50882">
        <ele>223.16</ele>
        <time>2014-03-09T09:52:53Z</time>
      </trkpt>
      <trkpt lat="45.98286" lon="4.50882">
        <ele>226.53</ele>
        <time>2014-03-09T09:52:54Z</time>
      </trkpt>
      <trkpt lat="45.98287" lon="4.50882">
        <ele>232.3</ele>
        <time>2014-03-09T09:52:56Z</time>
      </trkpt>
      <trkpt lat="45.98287" lon="4.50881">
        <ele>234.22</ele>
        <time>2014-03-09T09:52:57Z</time>
      </trkpt>
      <trkpt lat="45.98292" lon="4.50881">
        <ele>242.39</ele>
        <time>2014-03-09T09:53:00Z</time>
      </trkpt>
      <trkpt lat="45.98293" lon="4.50881">
        <ele>244.79</ele>
        <time>2014-03-09T09:53:01Z</time>
      </trkpt>
      <trkpt lat="45.98293" lon="4.50877">
        <ele>251.52</ele>
        <time>2014-03-09T09:53:04Z</time>
      </trkpt>
      <trkpt lat="45.98293" lon="4.50877">
        <ele>255.37</ele>
        <time>2014-03-09T09:53:06Z</time>
      </trkpt>
      <trkpt lat="45.98294" lon="4.50877">
        <ele>259.69</ele>
        <time>2014-03-09T09:53:08Z</time>
      </trkpt>
      <trkpt lat="45.98296" lon="4.50878">
        <ele>263.54</ele>
        <time>2014-03-09T09:53:10Z</time>
      </trkpt>
      <trkpt lat="45.98297" lon="4.50879">
        <ele>267.38</ele>
        <time>2014-03-09T09:53:12Z</time>
      </trkpt>
      <trkpt lat="45.98296" lon="4.50879">
        <ele>269.31</ele>
        <time>2014-03-09T09:53:13Z</time>
      </trkpt>
      <trkpt lat="45.98295" lon="4.50879">
        <ele>273.63</ele>
        <time>2014-03-09T09:53:16Z</time>
      </trkpt>
      <trkpt lat="45.98292" lon="4.50878">
        <ele>277.96</ele>
        <time>2014-03-09T09:53:19Z</time>
      </trkpt>
      <trkpt lat="45.98287" lon="4.50878">
        <ele>282.28</ele>
        <time>2014-03-09T09:53:22Z</time>
      </trkpt>
      <trkpt lat="45.98283" lon="4.50877">
        <ele>285.65</ele>
        <time>2014-03-09T09:53:25Z</time>
      </trkpt>
      <trkpt lat="45.98278" lon="4.50878">
        <ele>289.01</ele>
        <time>2014-03-09T09:53:28Z</time>
      </trkpt>
      <trkpt lat="45.98272" lon="4.50878">
        <ele>292.38</ele>
        <time>2014-03-09T09:53:31Z</time>
      </trkpt>
      <trkpt lat="45.98266" lon="4.50877">
        <ele>294.78</ele>
        <time>2014-03-09T09:53:35Z</time>
      </trkpt>
      <trkpt lat="45.98257" lon="4.50878">
        <ele>298.15</ele>
        <time>2014-03-09T09:53:40Z</time>
      </trkpt>
      <trkpt lat="45.98243" lon="4.50876">
        <ele>301.51</ele>
        <time>2014-03-09T09:53:45Z</time>
      </trkpt>
      <trkpt lat="45.98216" lon="4.50874">
        <ele>304.39</ele>
        <time>2014-03-09T09:53:54Z</time>
      </trkpt>
      <trkpt lat="45.98182" lon="4.50871">
        <ele>307.76</ele>
        <time>2014-03-09T09:54:04Z</time>
      </trkpt>
      <trkpt lat="45.98145" lon="4.50859">
        <ele>310.16</ele>
        <time>2014-03-09T09:54:15Z</time>
      </trkpt>
      <trkpt lat="45.98114" lon="4.5083">
        <ele>312.57</ele>
        <time>2014-03-09T09:54:26Z</time>
      </trkpt>
      <trkpt lat="45.98074" lon="4.50798">
        <ele>314.01</ele>
        <time>2014-03-09T09:54:38Z</time>
      </trkpt>
      <trkpt lat="45.98046" lon="4.50777">
        <ele>314.01</ele>
        <time>2014-03-09T09:54:47Z</time>
      </trkpt>
      <trkpt lat="45.98043" lon="4.50779">
        <ele>314.97</ele>
        <time>2014-03-09T09:54:48Z</time>
      </trkpt>
      <trkpt lat="45.9804" lon="4.50782">
        <ele>314.49</ele>
        <time>2014-03-09T09:54:49Z</time>
      </trkpt>
      <trkpt lat="45.98038" lon="4.50786">
        <ele>314.49</ele>
        <time>2014-03-09T09:54:50Z</time>
      </trkpt>
      <trkpt lat="45.98037" lon="4.5079">
        <ele>314.97</ele>
        <time>2014-03-09T09:54:51Z</time>
      </trkpt>
      <trkpt lat="45.98037" lon="4.50794">
        <ele>314.97</ele>
        <time>2014-03-09T09:54:52Z</time>
      </trkpt>
      <trkpt lat="45.98036" lon="4.50797">
        <ele>314.97</ele>
        <time>2014-03-09T09:54:53Z</time>
      </trkpt>
      <trkpt lat="45.98037" lon="4.50801">
        <ele>315.93</ele>
        <time>2014-03-09T09:54:54Z</time>
      </trkpt>
      <trkpt lat="45.98037" lon="4.50804">
        <ele>315.93</ele>
        <time>2014-03-09T09:54:55Z</time>
      </trkpt>
      <trkpt lat="45.98038" lon="4.50807">
        <ele>315.45</ele>
        <time>2014-03-09T09:54:56Z</time>
      </trkpt>
      <trkpt lat="45.9804" lon="4.50812">
        <ele>316.89</ele>
        <time>2014-03-09T09:54:58Z</time>
      </trkpt>
      <trkpt lat="45.98042" lon="4.50814">
        <ele>316.89</ele>
        <time>2014-03-09T09:54:59Z</time>
      </trkpt>
      <trkpt lat="45.98044" lon="4.50817">
        <ele>316.89</ele>
        <time>2014-03-09T09:55:00Z</time>
      </trkpt>
      <trkpt lat="45.98044" lon="4.50819">
        <ele>317.37</ele>
        <time>2014-03-09T09:55:01Z</time>
      </trkpt>
      <trkpt lat="45.98045" lon="4.50822">
        <ele>317.85</ele>
        <time>2014-03-09T09:55:02Z</time>
      </trkpt>
      <trkpt lat="45.98046" lon="4.50824">
        <ele>317.85</ele>
        <time>2014-03-09T09:55:03Z</time>
      </trkpt>
      <trkpt lat="45.98047" lon="4.50826">
        <ele>317.85</ele>
        <time>2014-03-09T09:55:04Z</time>
      </trkpt>
      <trkpt lat="45.98047" lon="4.50829">
        <ele>318.33</ele>
        <time>2014-03-09T09:55:05Z</time>
      </trkpt>
      <trkpt lat="45.98054" lon="4.50848">
        <ele>320.26</ele>
        <time>2014-03-09T09:55:15Z</time>
      </trkpt>
      <trkpt lat="45.98069" lon="4.50862">
        <ele>322.18</ele>
        <time>2014-03-09T09:55:26Z</time>
      </trkpt>
      <trkpt lat="45.98079" lon="4.5086">
        <ele>322.18</ele>
        <time>2014-03-09T09:55:28Z</time>
      </trkpt>
      <trkpt lat="45.98082" lon="4.50861">
        <ele>323.14</ele>
        <time>2014-03-09T09:55:29Z</time>
      </trkpt>
      <trkpt lat="45.98084" lon="4.50861">
        <ele>322.66</ele>
        <time>2014-03-09T09:55:30Z</time>
      </trkpt>
      <trkpt lat="45.98087" lon="4.50862">
        <ele>323.62</ele>
        <time>2014-03-09T09:55:31Z</time>
      </trkpt>
      <trkpt lat="45.98089" lon="4.50862">
        <ele>323.14</ele>
        <time>2014-03-09T09:55:32Z</time>
      </trkpt>
      <trkpt lat="45.98091" lon="4.50863">
        <ele>323.62</ele>
        <time>2014-03-09T09:55:33Z</time>
      </trkpt>
      <trkpt lat="45.98092" lon="4.50864">
        <ele>324.1</ele>
        <time>2014-03-09T09:55:34Z</time>
      </trkpt>
      <trkpt lat="45.98094" lon="4.50865">
        <ele>324.58</ele>
        <time>2014-03-09T09:55:35Z</time>
      </trkpt>
      <trkpt lat="45.98096" lon="4.50867">
        <ele>324.1</ele>
        <time>2014-03-09T09:55:36Z</time>
      </trkpt>
      <trkpt lat="45.98114" lon="4.50887">
        <ele>326.5</ele>
        <time>2014-03-09T09:55:49Z</time>
      </trkpt>
      <trkpt lat="45.98128" lon="4.50903">
        <ele>327.95</ele>
        <time>2014-03-09T09:56:00Z</time>
      </trkpt>
      <trkpt lat="45.98144" lon="4.5092">
        <ele>330.83</ele>
        <time>2014-03-09T09:56:12Z</time>
      </trkpt>
      <trkpt lat="45.9816" lon="4.50938">
        <ele>332.75</ele>
        <time>2014-03-09T09:56:25Z</time>
      </trkpt>
      <trkpt lat="45.98175" lon="4.50954">
        <ele>335.16</ele>
        <time>2014-03-09T09:56:37Z</time>
      </trkpt>
      <trkpt lat="45.9819" lon="4.50962">
        <ele>336.6</ele>
        <time>2014-03-09T09:56:49Z</time>
      </trkpt>
      <trkpt lat="45.98195" lon="4.50964">
        <ele>337.56</ele>
        <time>2014-03-09T09:56:53Z</time>
      </trkpt>
      <trkpt lat="45.98213" lon="4.50962">
        <ele>339.48</ele>
        <time>2014-03-09T09:57:05Z</time>
      </trkpt>
      <trkpt lat="45.98232" lon="4.50962">
        <ele>341.41</ele>
        <time>2014-03-09T09:57:17Z</time>
      </trkpt>
      <trkpt lat="45.98247" lon="4.50961">
        <ele>342.85</ele>
        <time>2014-03-09T09:57:28Z</time>
      </trkpt>
      <trkpt lat="45.98265" lon="4.5096">
        <ele>345.25</ele>
        <time>2014-03-09T09:57:41Z</time>
      </trkpt>
      <trkpt lat="45.98284" lon="4.50966">
        <ele>348.62</ele>
        <time>2014-03-09T09:57:54Z</time>
      </trkpt>
      <trkpt lat="45.98294" lon="4.50969">
        <ele>349.1</ele>
        <time>2014-03-09T09:58:00Z</time>
      </trkpt>
      <trkpt lat="45.98296" lon="4.50969">
        <ele>349.1</ele>
        <time>2014-03-09T09:58:01Z</time>
      </trkpt>
      <trkpt lat="45.98297" lon="4.5097">
        <ele>349.58</ele>
        <time>2014-03-09T09:58:02Z</time>
      </trkpt>
      <trkpt lat="45.98309" lon="4.50975">
        <ele>351.02</ele>
        <time>2014-03-09T09:58:09Z</time>
      </trkpt>
      <trkpt lat="45.9831" lon="4.50975">
        <ele>351.5</ele>
        <time>2014-03-09T09:58:10Z</time>
      </trkpt>
      <trkpt lat="45.98312" lon="4.50976">
        <ele>351.02</ele>
        <time>2014-03-09T09:58:11Z</time>
      </trkpt>
      <trkpt lat="45.98321" lon="4.50983">
        <ele>352.46</ele>
        <time>2014-03-09T09:58:17Z</time>
      </trkpt>
      <trkpt lat="45.98327" lon="4.50986">
        <ele>352.94</ele>
        <time>2014-03-09T09:58:21Z</time>
      </trkpt>
      <trkpt lat="45.98331" lon="4.50992">
        <ele>353.42</ele>
        <time>2014-03-09T09:58:25Z</time>
      </trkpt>
      <trkpt lat="45.98332" lon="4.50995">
        <ele>353.9</ele>
        <time>2014-03-09T09:58:26Z</time>
      </trkpt>
      <trkpt lat="45.98347" lon="4.51019">
        <ele>354.38</ele>
        <time>2014-03-09T09:58:37Z</time>
      </trkpt>
      <trkpt lat="45.98366" lon="4.51053">
        <ele>353.42</ele>
        <time>2014-03-09T09:58:48Z</time>
      </trkpt>
      <trkpt lat="45.98381" lon="4.51077">
        <ele>353.9</ele>
        <time>2014-03-09T09:58:57Z</time>
      </trkpt>
      <trkpt lat="45.98394" lon="4.511">
        <ele>355.83</ele>
        <time>2014-03-09T09:59:08Z</time>
      </trkpt>
      <trkpt lat="45.98406" lon="4.51114">
        <ele>357.27</ele>
        <time>2014-03-09T09:59:19Z</time>
      </trkpt>
      <trkpt lat="45.98406" lon="4.51114">
        <ele>356.79</ele>
        <time>2014-03-09T09:59:32Z</time>
      </trkpt>
      <trkpt lat="45.98408" lon="4.51115">
        <ele>356.79</ele>
        <time>2014-03-09T09:59:43Z</time>
      </trkpt>
      <trkpt lat="45.98413" lon="4.51112">
        <ele>357.75</ele>
        <time>2014-03-09T09:59:56Z</time>
      </trkpt>
      <trkpt lat="45.98413" lon="4.51113">
        <ele>357.75</ele>
        <time>2014-03-09T10:00:08Z</time>
      </trkpt>
      <trkpt lat="45.98413" lon="4.51113">
        <ele>357.75</ele>
        <time>2014-03-09T10:00:30Z</time>
      </trkpt>
      <trkpt lat="45.98413" lon="4.51113">
        <ele>357.75</ele>
        <time>2014-03-09T10:00:47Z</time>
      </trkpt>
      <trkpt lat="45.98413" lon="4.51113">
        <ele>357.75</ele>
        <time>2014-03-09T10:01:11Z</time>
      </trkpt>
      <trkpt lat="45.98411" lon="4.51109">
        <ele>358.71</ele>
        <time>2014-03-09T10:01:30Z</time>
      </trkpt>
      <trkpt lat="45.9841" lon="4.51109">
        <ele>358.23</ele>
        <time>2014-03-09T10:01:48Z</time>
      </trkpt>
      <trkpt lat="45.9841" lon="4.51109">
        <ele>358.71</ele>
        <time>2014-03-09T10:02:07Z</time>
      </trkpt>
      <trkpt lat="45.9841" lon="4.51109">
        <ele>358.71</ele>
        <time>2014-03-09T10:02:25Z</time>
      </trkpt>
      <trkpt lat="45.98411" lon="4.51112">
        <ele>358.71</ele>
        <time>2014-03-09T10:02:45Z</time>
      </trkpt>
      <trkpt lat="45.98411" lon="4.51112">
        <ele>358.71</ele>
        <time>2014-03-09T10:03:08Z</time>
      </trkpt>
      <trkpt lat="45.98411" lon="4.51111">
        <ele>359.19</ele>
        <time>2014-03-09T10:03:29Z</time>
      </trkpt>
      <trkpt lat="45.98411" lon="4.51111">
        <ele>358.71</ele>
        <time>2014-03-09T10:03:48Z</time>
      </trkpt>
      <trkpt lat="45.98411" lon="4.51111">
        <ele>359.19</ele>
        <time>2014-03-09T10:04:10Z</time>
      </trkpt>
      <trkpt lat="45.98411" lon="4.51111">
        <ele>359.19</ele>
        <time>2014-03-09T10:04:33Z</time>
      </trkpt>
      <trkpt lat="45.98409" lon="4.51117">
        <ele>359.19</ele>
        <time>2014-03-09T10:04:48Z</time>
      </trkpt>
      <trkpt lat="45.98413" lon="4.51114">
        <ele>360.15</ele>
        <time>2014-03-09T10:04:54Z</time>
      </trkpt>
      <trkpt lat="45.98416" lon="4.51116">
        <ele>359.67</ele>
        <time>2014-03-09T10:04:56Z</time>
      </trkpt>
      <trkpt lat="45.98418" lon="4.51119">
        <ele>360.15</ele>
        <time>2014-03-09T10:04:57Z</time>
      </trkpt>
      <trkpt lat="45.98427" lon="4.51137">
        <ele>362.07</ele>
        <time>2014-03-09T10:05:07Z</time>
      </trkpt>
      <trkpt lat="45.98437" lon="4.51136">
        <ele>363.04</ele>
        <time>2014-03-09T10:05:12Z</time>
      </trkpt>
      <trkpt lat="45.98456" lon="4.51142">
        <ele>366.4</ele>
        <time>2014-03-09T10:05:23Z</time>
      </trkpt>
      <trkpt lat="45.98467" lon="4.51144">
        <ele>367.84</ele>
        <time>2014-03-09T10:05:31Z</time>
      </trkpt>
      <trkpt lat="45.98469" lon="4.51146">
        <ele>367.84</ele>
        <time>2014-03-09T10:05:32Z</time>
      </trkpt>
      <trkpt lat="45.9847" lon="4.51147">
        <ele>368.32</ele>
        <time>2014-03-09T10:05:33Z</time>
      </trkpt>
      <trkpt lat="45.98472" lon="4.51147">
        <ele>368.8</ele>
        <time>2014-03-09T10:05:34Z</time>
      </trkpt>
      <trkpt lat="45.98474" lon="4.51147">
        <ele>369.28</ele>
        <time>2014-03-09T10:05:42Z</time>
      </trkpt>
      <trkpt lat="45.98477" lon="4.5115">
        <ele>369.76</ele>
        <time>2014-03-09T10:05:53Z</time>
      </trkpt>
      <trkpt lat="45.98479" lon="4.51152">
        <ele>370.24</ele>
        <time>2014-03-09T10:05:55Z</time>
      </trkpt>
      <trkpt lat="45.98483" lon="4.51159">
        <ele>371.69</ele>
        <time>2014-03-09T10:06:02Z</time>
      </trkpt>
      <trkpt lat="45.98484" lon="4.51161">
        <ele>371.69</ele>
        <time>2014-03-09T10:06:12Z</time>
      </trkpt>
      <trkpt lat="45.98484" lon="4.5116">
        <ele>372.17</ele>
        <time>2014-03-09T10:06:23Z</time>
      </trkpt>
      <trkpt lat="45.9849" lon="4.51165">
        <ele>373.61</ele>
        <time>2014-03-09T10:06:32Z</time>
      </trkpt>
      <trkpt lat="45.98493" lon="4.51169">
        <ele>373.61</ele>
        <time>2014-03-09T10:06:36Z</time>
      </trkpt>
      <trkpt lat="45.98498" lon="4.5118">
        <ele>374.57</ele>
        <time>2014-03-09T10:06:45Z</time>
      </trkpt>
      <trkpt lat="45.98498" lon="4.51185">
        <ele>374.57</ele>
        <time>2014-03-09T10:06:55Z</time>
      </trkpt>
      <trkpt lat="45.98498" lon="4.5119">
        <ele>374.57</ele>
        <time>2014-03-09T10:07:08Z</time>
      </trkpt>
      <trkpt lat="45.98496" lon="4.51193">
        <ele>375.05</ele>
        <time>2014-03-09T10:07:27Z</time>
      </trkpt>
      <trkpt lat="45.98498" lon="4.51191">
        <ele>375.05</ele>
        <time>2014-03-09T10:07:43Z</time>
      </trkpt>
      <trkpt lat="45.98498" lon="4.51191">
        <ele>376.01</ele>
        <time>2014-03-09T10:07:45Z</time>
      </trkpt>
      <trkpt lat="45.98498" lon="4.51191">
        <ele>375.05</ele>
        <time>2014-03-09T10:07:47Z</time>
      </trkpt>
      <trkpt lat="45.98498" lon="4.51191">
        <ele>375.05</ele>
        <time>2014-03-09T10:07:55Z</time>
      </trkpt>
      <trkpt lat="45.985" lon="4.51191">
        <ele>373.61</ele>
        <time>2014-03-09T10:08:05Z</time>
      </trkpt>
      <trkpt lat="45.985" lon="4.51191">
        <ele>374.57</ele>
        <time>2014-03-09T10:08:27Z</time>
      </trkpt>
      <trkpt lat="45.98499" lon="4.51189">
        <ele>376.01</ele>
        <time>2014-03-09T10:08:41Z</time>
      </trkpt>
      <trkpt lat="45.985" lon="4.51188">
        <ele>375.53</ele>
        <time>2014-03-09T10:08:51Z</time>
      </trkpt>
      <trkpt lat="45.98502" lon="4.51192">
        <ele>376.01</ele>
        <time>2014-03-09T10:09:00Z</time>
      </trkpt>
      <trkpt lat="45.98502" lon="4.51192">
        <ele>375.53</ele>
        <time>2014-03-09T10:09:22Z</time>
      </trkpt>
      <trkpt lat="45.98503" lon="4.51193">
        <ele>376.49</ele>
        <time>2014-03-09T10:09:42Z</time>
      </trkpt>
      <trkpt lat="45.98504" lon="4.51195">
        <ele>376.01</ele>
        <time>2014-03-09T10:09:44Z</time>
      </trkpt>
      <trkpt lat="45.98505" lon="4.51197">
        <ele>376.49</ele>
        <time>2014-03-09T10:09:45Z</time>
      </trkpt>
      <trkpt lat="45.98506" lon="4.51198">
        <ele>376.49</ele>
        <time>2014-03-09T10:09:46Z</time>
      </trkpt>
      <trkpt lat="45.98506" lon="4.512">
        <ele>376.49</ele>
        <time>2014-03-09T10:09:47Z</time>
      </trkpt>
      <trkpt lat="45.98507" lon="4.51202">
        <ele>376.49</ele>
        <time>2014-03-09T10:09:48Z</time>
      </trkpt>
      <trkpt lat="45.98517" lon="4.51221">
        <ele>377.94</ele>
        <time>2014-03-09T10:10:00Z</time>
      </trkpt>
      <trkpt lat="45.9852" lon="4.51213">
        <ele>379.38</ele>
        <time>2014-03-09T10:10:06Z</time>
      </trkpt>
      <trkpt lat="45.98516" lon="4.51192">
        <ele>382.74</ele>
        <time>2014-03-09T10:10:18Z</time>
      </trkpt>
      <trkpt lat="45.98527" lon="4.51172">
        <ele>385.63</ele>
        <time>2014-03-09T10:10:31Z</time>
      </trkpt>
      <trkpt lat="45.98531" lon="4.5117">
        <ele>385.63</ele>
        <time>2014-03-09T10:10:34Z</time>
      </trkpt>
      <trkpt lat="45.98538" lon="4.5117">
        <ele>387.55</ele>
        <time>2014-03-09T10:10:44Z</time>
      </trkpt>
      <trkpt lat="45.98546" lon="4.51173">
        <ele>390.91</ele>
        <time>2014-03-09T10:10:54Z</time>
      </trkpt>
      <trkpt lat="45.98546" lon="4.51174">
        <ele>389.95</ele>
        <time>2014-03-09T10:10:55Z</time>
      </trkpt>
      <trkpt lat="45.98549" lon="4.51185">
        <ele>391.87</ele>
        <time>2014-03-09T10:11:06Z</time>
      </trkpt>
      <trkpt lat="45.98548" lon="4.51193">
        <ele>392.84</ele>
        <time>2014-03-09T10:11:16Z</time>
      </trkpt>
      <trkpt lat="45.98549" lon="4.51199">
        <ele>392.84</ele>
        <time>2014-03-09T10:11:21Z</time>
      </trkpt>
      <trkpt lat="45.98556" lon="4.512">
        <ele>394.76</ele>
        <time>2014-03-09T10:11:32Z</time>
      </trkpt>
      <trkpt lat="45.98562" lon="4.51193">
        <ele>396.2</ele>
        <time>2014-03-09T10:11:42Z</time>
      </trkpt>
      <trkpt lat="45.98564" lon="4.51193">
        <ele>396.68</ele>
        <time>2014-03-09T10:11:44Z</time>
      </trkpt>
      <trkpt lat="45.98567" lon="4.51189">
        <ele>397.64</ele>
        <time>2014-03-09T10:11:49Z</time>
      </trkpt>
      <trkpt lat="45.98574" lon="4.51184">
        <ele>399.08</ele>
        <time>2014-03-09T10:11:59Z</time>
      </trkpt>
      <trkpt lat="45.9858" lon="4.51184">
        <ele>401.01</ele>
        <time>2014-03-09T10:12:09Z</time>
      </trkpt>
      <trkpt lat="45.98584" lon="4.51184">
        <ele>401.01</ele>
        <time>2014-03-09T10:12:13Z</time>
      </trkpt>
      <trkpt lat="45.98587" lon="4.51185">
        <ele>401.97</ele>
        <time>2014-03-09T10:12:24Z</time>
      </trkpt>
      <trkpt lat="45.98591" lon="4.51186">
        <ele>402.45</ele>
        <time>2014-03-09T10:12:29Z</time>
      </trkpt>
      <trkpt lat="45.98592" lon="4.51186">
        <ele>403.41</ele>
        <time>2014-03-09T10:12:31Z</time>
      </trkpt>
      <trkpt lat="45.98599" lon="4.51187">
        <ele>404.85</ele>
        <time>2014-03-09T10:12:41Z</time>
      </trkpt>
      <trkpt lat="45.98606" lon="4.51188">
        <ele>406.77</ele>
        <time>2014-03-09T10:12:50Z</time>
      </trkpt>
      <trkpt lat="45.98612" lon="4.51193">
        <ele>408.7</ele>
        <time>2014-03-09T10:13:02Z</time>
      </trkpt>
      <trkpt lat="45.98614" lon="4.51193">
        <ele>409.66</ele>
        <time>2014-03-09T10:13:05Z</time>
      </trkpt>
      <trkpt lat="45.98623" lon="4.512">
        <ele>411.58</ele>
        <time>2014-03-09T10:13:18Z</time>
      </trkpt>
      <trkpt lat="45.98629" lon="4.51203">
        <ele>413.02</ele>
        <time>2014-03-09T10:13:27Z</time>
      </trkpt>
      <trkpt lat="45.98635" lon="4.51207">
        <ele>414.47</ele>
        <time>2014-03-09T10:13:37Z</time>
      </trkpt>
      <trkpt lat="45.98641" lon="4.51208">
        <ele>415.91</ele>
        <time>2014-03-09T10:13:46Z</time>
      </trkpt>
      <trkpt lat="45.98648" lon="4.5121">
        <ele>416.87</ele>
        <time>2014-03-09T10:13:56Z</time>
      </trkpt>
      <trkpt lat="45.98657" lon="4.5121">
        <ele>418.79</ele>
        <time>2014-03-09T10:14:08Z</time>
      </trkpt>
      <trkpt lat="45.98663" lon="4.51209">
        <ele>420.23</ele>
        <time>2014-03-09T10:14:16Z</time>
      </trkpt>
      <trkpt lat="45.98669" lon="4.51208">
        <ele>421.68</ele>
        <time>2014-03-09T10:14:26Z</time>
      </trkpt>
      <trkpt lat="45.98677" lon="4.51205">
        <ele>422.64</ele>
        <time>2014-03-09T10:14:36Z</time>
      </trkpt>
      <trkpt lat="45.98685" lon="4.51205">
        <ele>423.6</ele>
        <time>2014-03-09T10:14:47Z</time>
      </trkpt>
      <trkpt lat="45.9869" lon="4.51205">
        <ele>425.04</ele>
        <time>2014-03-09T10:14:54Z</time>
      </trkpt>
      <trkpt lat="45.98697" lon="4.51204">
        <ele>426</ele>
        <time>2014-03-09T10:15:03Z</time>
      </trkpt>
      <trkpt lat="45.98702" lon="4.51204">
        <ele>426.96</ele>
        <time>2014-03-09T10:15:15Z</time>
      </trkpt>
      <trkpt lat="45.98702" lon="4.51204">
        <ele>426.96</ele>
        <time>2014-03-09T10:15:32Z</time>
      </trkpt>
      <trkpt lat="45.98702" lon="4.51204">
        <ele>427.44</ele>
        <time>2014-03-09T10:15:46Z</time>
      </trkpt>
      <trkpt lat="45.98702" lon="4.51205">
        <ele>427.44</ele>
        <time>2014-03-09T10:16:02Z</time>
      </trkpt>
      <trkpt lat="45.98702" lon="4.51205">
        <ele>426.96</ele>
        <time>2014-03-09T10:16:24Z</time>
      </trkpt>
      <trkpt lat="45.98703" lon="4.51205">
        <ele>426.96</ele>
        <time>2014-03-09T10:16:46Z</time>
      </trkpt>
      <trkpt lat="45.98703" lon="4.51205">
        <ele>427.44</ele>
        <time>2014-03-09T10:17:02Z</time>
      </trkpt>
      <trkpt lat="45.98702" lon="4.51205">
        <ele>426.96</ele>
        <time>2014-03-09T10:17:24Z</time>
      </trkpt>
      <trkpt lat="45.98702" lon="4.51204">
        <ele>426.96</ele>
        <time>2014-03-09T10:17:36Z</time>
      </trkpt>
      <trkpt lat="45.98706" lon="4.51204">
        <ele>427.92</ele>
        <time>2014-03-09T10:17:53Z</time>
      </trkpt>
      <trkpt lat="45.98709" lon="4.51205">
        <ele>428.89</ele>
        <time>2014-03-09T10:17:58Z</time>
      </trkpt>
      <trkpt lat="45.98712" lon="4.51204">
        <ele>428.89</ele>
        <time>2014-03-09T10:18:01Z</time>
      </trkpt>
      <trkpt lat="45.98719" lon="4.51205">
        <ele>429.85</ele>
        <time>2014-03-09T10:18:12Z</time>
      </trkpt>
      <trkpt lat="45.98721" lon="4.51205">
        <ele>430.33</ele>
        <time>2014-03-09T10:18:14Z</time>
      </trkpt>
      <trkpt lat="45.98727" lon="4.51205">
        <ele>430.33</ele>
        <time>2014-03-09T10:18:19Z</time>
      </trkpt>
      <trkpt lat="45.98746" lon="4.51206">
        <ele>433.21</ele>
        <time>2014-03-09T10:18:34Z</time>
      </trkpt>
      <trkpt lat="45.9876" lon="4.51206">
        <ele>434.65</ele>
        <time>2014-03-09T10:18:46Z</time>
      </trkpt>
      <trkpt lat="45.98777" lon="4.51206">
        <ele>437.54</ele>
        <time>2014-03-09T10:19:00Z</time>
      </trkpt>
      <trkpt lat="45.98791" lon="4.51208">
        <ele>438.98</ele>
        <time>2014-03-09T10:19:11Z</time>
      </trkpt>
      <trkpt lat="45.9881" lon="4.51222">
        <ele>440.42</ele>
        <time>2014-03-09T10:19:25Z</time>
      </trkpt>
      <trkpt lat="45.98834" lon="4.51239">
        <ele>440.9</ele>
        <time>2014-03-09T10:19:38Z</time>
      </trkpt>
      <trkpt lat="45.98863" lon="4.51263">
        <ele>443.31</ele>
        <time>2014-03-09T10:19:54Z</time>
      </trkpt>
      <trkpt lat="45.98867" lon="4.51267">
        <ele>442.82</ele>
        <time>2014-03-09T10:20:02Z</time>
      </trkpt>
      <trkpt lat="45.98867" lon="4.51267">
        <ele>443.31</ele>
        <time>2014-03-09T10:20:14Z</time>
      </trkpt>
      <trkpt lat="45.98867" lon="4.51267">
        <ele>442.82</ele>
        <time>2014-03-09T10:20:39Z</time>
      </trkpt>
      <trkpt lat="45.98867" lon="4.51266">
        <ele>442.82</ele>
        <time>2014-03-09T10:21:03Z</time>
      </trkpt>
      <trkpt lat="45.98867" lon="4.51266">
        <ele>443.79</ele>
        <time>2014-03-09T10:21:29Z</time>
      </trkpt>
      <trkpt lat="45.98867" lon="4.51266">
        <ele>443.31</ele>
        <time>2014-03-09T10:21:53Z</time>
      </trkpt>
      <trkpt lat="45.98867" lon="4.51266">
        <ele>443.31</ele>
        <time>2014-03-09T10:22:11Z</time>
      </trkpt>
      <trkpt lat="45.98867" lon="4.51266">
        <ele>443.31</ele>
        <time>2014-03-09T10:22:29Z</time>
      </trkpt>
      <trkpt lat="45.98869" lon="4.51267">
        <ele>443.79</ele>
        <time>2014-03-09T10:22:36Z</time>
      </trkpt>
      <trkpt lat="45.98868" lon="4.51267">
        <ele>443.31</ele>
        <time>2014-03-09T10:22:56Z</time>
      </trkpt>
      <trkpt lat="45.98868" lon="4.51267">
        <ele>443.31</ele>
        <time>2014-03-09T10:23:24Z</time>
      </trkpt>
      <trkpt lat="45.98868" lon="4.51267">
        <ele>443.79</ele>
        <time>2014-03-09T10:23:42Z</time>
      </trkpt>
      <trkpt lat="45.98868" lon="4.51267">
        <ele>443.79</ele>
        <time>2014-03-09T10:23:55Z</time>
      </trkpt>
      <trkpt lat="45.98873" lon="4.5127">
        <ele>443.79</ele>
        <time>2014-03-09T10:23:59Z</time>
      </trkpt>
      <trkpt lat="45.98881" lon="4.51276">
        <ele>445.23</ele>
        <time>2014-03-09T10:24:06Z</time>
      </trkpt>
      <trkpt lat="45.98895" lon="4.51264">
        <ele>449.07</ele>
        <time>2014-03-09T10:24:19Z</time>
      </trkpt>
      <trkpt lat="45.98911" lon="4.51257">
        <ele>451.48</ele>
        <time>2014-03-09T10:24:32Z</time>
      </trkpt>
      <trkpt lat="45.98924" lon="4.51252">
        <ele>454.36</ele>
        <time>2014-03-09T10:24:43Z</time>
      </trkpt>
      <trkpt lat="45.98939" lon="4.51237">
        <ele>456.76</ele>
        <time>2014-03-09T10:24:57Z</time>
      </trkpt>
      <trkpt lat="45.98943" lon="4.51232">
        <ele>457.72</ele>
        <time>2014-03-09T10:25:01Z</time>
      </trkpt>
      <trkpt lat="45.98945" lon="4.51244">
        <ele>458.69</ele>
        <time>2014-03-09T10:25:10Z</time>
      </trkpt>
      <trkpt lat="45.98948" lon="4.51267">
        <ele>459.17</ele>
        <time>2014-03-09T10:25:23Z</time>
      </trkpt>
      <trkpt lat="45.98954" lon="4.51272">
        <ele>459.17</ele>
        <time>2014-03-09T10:25:28Z</time>
      </trkpt>
      <trkpt lat="45.98957" lon="4.51267">
        <ele>460.13</ele>
        <time>2014-03-09T10:25:32Z</time>
      </trkpt>
      <trkpt lat="45.98966" lon="4.51247">
        <ele>463.97</ele>
        <time>2014-03-09T10:25:46Z</time>
      </trkpt>
      <trkpt lat="45.98972" lon="4.51239">
        <ele>465.42</ele>
        <time>2014-03-09T10:25:53Z</time>
      </trkpt>
      <trkpt lat="45.98982" lon="4.51228">
        <ele>467.34</ele>
        <time>2014-03-09T10:26:04Z</time>
      </trkpt>
      <trkpt lat="45.98984" lon="4.51228">
        <ele>467.82</ele>
        <time>2014-03-09T10:26:13Z</time>
      </trkpt>
      <trkpt lat="45.98992" lon="4.51222">
        <ele>469.26</ele>
        <time>2014-03-09T10:26:23Z</time>
      </trkpt>
      <trkpt lat="45.98994" lon="4.5122">
        <ele>470.22</ele>
        <time>2014-03-09T10:26:27Z</time>
      </trkpt>
      <trkpt lat="45.99" lon="4.51219">
        <ele>471.18</ele>
        <time>2014-03-09T10:26:33Z</time>
      </trkpt>
      <trkpt lat="45.99002" lon="4.51217">
        <ele>471.18</ele>
        <time>2014-03-09T10:26:36Z</time>
      </trkpt>
      <trkpt lat="45.99012" lon="4.51213">
        <ele>473.11</ele>
        <time>2014-03-09T10:26:48Z</time>
      </trkpt>
      <trkpt lat="45.99013" lon="4.51213">
        <ele>473.59</ele>
        <time>2014-03-09T10:26:49Z</time>
      </trkpt>
      <trkpt lat="45.99016" lon="4.51211">
        <ele>474.07</ele>
        <time>2014-03-09T10:26:53Z</time>
      </trkpt>
      <trkpt lat="45.99026" lon="4.51207">
        <ele>475.99</ele>
        <time>2014-03-09T10:27:04Z</time>
      </trkpt>
      <trkpt lat="45.99032" lon="4.51206">
        <ele>477.43</ele>
        <time>2014-03-09T10:27:12Z</time>
      </trkpt>
      <trkpt lat="45.99036" lon="4.51204">
        <ele>477.91</ele>
        <time>2014-03-09T10:27:19Z</time>
      </trkpt>
      <trkpt lat="45.99043" lon="4.512">
        <ele>479.35</ele>
        <time>2014-03-09T10:27:29Z</time>
      </trkpt>
      <trkpt lat="45.99052" lon="4.51198">
        <ele>481.76</ele>
        <time>2014-03-09T10:27:42Z</time>
      </trkpt>
      <trkpt lat="45.99059" lon="4.51195">
        <ele>483.2</ele>
        <time>2014-03-09T10:27:52Z</time>
      </trkpt>
      <trkpt lat="45.99068" lon="4.51189">
        <ele>484.64</ele>
        <time>2014-03-09T10:28:04Z</time>
      </trkpt>
      <trkpt lat="45.99076" lon="4.51183">
        <ele>485.6</ele>
        <time>2014-03-09T10:28:16Z</time>
      </trkpt>
      <trkpt lat="45.99081" lon="4.51181">
        <ele>486.08</ele>
        <time>2014-03-09T10:28:26Z</time>
      </trkpt>
      <trkpt lat="45.99083" lon="4.51179">
        <ele>486.08</ele>
        <time>2014-03-09T10:28:29Z</time>
      </trkpt>
      <trkpt lat="45.99092" lon="4.51171">
        <ele>485.6</ele>
        <time>2014-03-09T10:28:34Z</time>
      </trkpt>
      <trkpt lat="45.99115" lon="4.51167">
        <ele>485.6</ele>
        <time>2014-03-09T10:28:45Z</time>
      </trkpt>
      <trkpt lat="45.9912" lon="4.51167">
        <ele>485.12</ele>
        <time>2014-03-09T10:28:48Z</time>
      </trkpt>
      <trkpt lat="45.99141" lon="4.51168">
        <ele>485.6</ele>
        <time>2014-03-09T10:29:00Z</time>
      </trkpt>
      <trkpt lat="45.99167" lon="4.5117">
        <ele>484.16</ele>
        <time>2014-03-09T10:29:10Z</time>
      </trkpt>
      <trkpt lat="45.99195" lon="4.51172">
        <ele>481.76</ele>
        <time>2014-03-09T10:29:17Z</time>
      </trkpt>
      <trkpt lat="45.9921" lon="4.51172">
        <ele>480.8</ele>
        <time>2014-03-09T10:29:20Z</time>
      </trkpt>
      <trkpt lat="45.99269" lon="4.51191">
        <ele>477.91</ele>
        <time>2014-03-09T10:29:29Z</time>
      </trkpt>
      <trkpt lat="45.99288" lon="4.51202">
        <ele>477.91</ele>
        <time>2014-03-09T10:29:32Z</time>
      </trkpt>
      <trkpt lat="45.99294" lon="4.51204">
        <ele>476.95</ele>
        <time>2014-03-09T10:29:33Z</time>
      </trkpt>
      <trkpt lat="45.99301" lon="4.51204">
        <ele>476.95</ele>
        <time>2014-03-09T10:29:34Z</time>
      </trkpt>
      <trkpt lat="45.99308" lon="4.51204">
        <ele>476.47</ele>
        <time>2014-03-09T10:29:35Z</time>
      </trkpt>
      <trkpt lat="45.99314" lon="4.51203">
        <ele>476.47</ele>
        <time>2014-03-09T10:29:36Z</time>
      </trkpt>
      <trkpt lat="45.99326" lon="4.51201">
        <ele>475.51</ele>
        <time>2014-03-09T10:29:38Z</time>
      </trkpt>
      <trkpt lat="45.99336" lon="4.51201">
        <ele>475.03</ele>
        <time>2014-03-09T10:29:40Z</time>
      </trkpt>
      <trkpt lat="45.99374" lon="4.51197">
        <ele>475.99</ele>
        <time>2014-03-09T10:29:50Z</time>
      </trkpt>
      <trkpt lat="45.99396" lon="4.51195">
        <ele>478.39</ele>
        <time>2014-03-09T10:30:00Z</time>
      </trkpt>
      <trkpt lat="45.99398" lon="4.51195">
        <ele>478.39</ele>
        <time>2014-03-09T10:30:01Z</time>
      </trkpt>
      <trkpt lat="45.99399" lon="4.51194">
        <ele>478.87</ele>
        <time>2014-03-09T10:30:02Z</time>
      </trkpt>
      <trkpt lat="45.99401" lon="4.51195">
        <ele>479.35</ele>
        <time>2014-03-09T10:30:03Z</time>
      </trkpt>
      <trkpt lat="45.99419" lon="4.51196">
        <ele>482.72</ele>
        <time>2014-03-09T10:30:14Z</time>
      </trkpt>
      <trkpt lat="45.99427" lon="4.51193">
        <ele>482.72</ele>
        <time>2014-03-09T10:30:19Z</time>
      </trkpt>
      <trkpt lat="45.99434" lon="4.51187">
        <ele>484.16</ele>
        <time>2014-03-09T10:30:24Z</time>
      </trkpt>
      <trkpt lat="45.99434" lon="4.51185">
        <ele>484.64</ele>
        <time>2014-03-09T10:30:25Z</time>
      </trkpt>
      <trkpt lat="45.99434" lon="4.51183">
        <ele>485.12</ele>
        <time>2014-03-09T10:30:26Z</time>
      </trkpt>
      <trkpt lat="45.99433" lon="4.51179">
        <ele>485.6</ele>
        <time>2014-03-09T10:30:28Z</time>
      </trkpt>
      <trkpt lat="45.99433" lon="4.51177">
        <ele>485.12</ele>
        <time>2014-03-09T10:30:29Z</time>
      </trkpt>
      <trkpt lat="45.99433" lon="4.51175">
        <ele>486.08</ele>
        <time>2014-03-09T10:30:30Z</time>
      </trkpt>
      <trkpt lat="45.99432" lon="4.51169">
        <ele>486.08</ele>
        <time>2014-03-09T10:30:33Z</time>
      </trkpt>
      <trkpt lat="45.99428" lon="4.51148">
        <ele>487.53</ele>
        <time>2014-03-09T10:30:45Z</time>
      </trkpt>
      <trkpt lat="45.99416" lon="4.51124">
        <ele>488.97</ele>
        <time>2014-03-09T10:30:59Z</time>
      </trkpt>
      <trkpt lat="45.99402" lon="4.51106">
        <ele>489.93</ele>
        <time>2014-03-09T10:31:10Z</time>
      </trkpt>
      <trkpt lat="45.99388" lon="4.51079">
        <ele>490.89</ele>
        <time>2014-03-09T10:31:22Z</time>
      </trkpt>
      <trkpt lat="45.99381" lon="4.51047">
        <ele>491.37</ele>
        <time>2014-03-09T10:31:32Z</time>
      </trkpt>
      <trkpt lat="45.99378" lon="4.51011">
        <ele>491.85</ele>
        <time>2014-03-09T10:31:43Z</time>
      </trkpt>
      <trkpt lat="45.99375" lon="4.50977">
        <ele>493.77</ele>
        <time>2014-03-09T10:31:54Z</time>
      </trkpt>
      <trkpt lat="45.99369" lon="4.50948">
        <ele>495.7</ele>
        <time>2014-03-09T10:32:05Z</time>
      </trkpt>
      <trkpt lat="45.99375" lon="4.50924">
        <ele>496.66</ele>
        <time>2014-03-09T10:32:16Z</time>
      </trkpt>
      <trkpt lat="45.99382" lon="4.50899">
        <ele>499.06</ele>
        <time>2014-03-09T10:32:27Z</time>
      </trkpt>
      <trkpt lat="45.99389" lon="4.50873">
        <ele>500.02</ele>
        <time>2014-03-09T10:32:38Z</time>
      </trkpt>
      <trkpt lat="45.99401" lon="4.5084">
        <ele>501.95</ele>
        <time>2014-03-09T10:32:52Z</time>
      </trkpt>
      <trkpt lat="45.99413" lon="4.5082">
        <ele>503.39</ele>
        <time>2014-03-09T10:33:03Z</time>
      </trkpt>
      <trkpt lat="45.99427" lon="4.50801">
        <ele>505.31</ele>
        <time>2014-03-09T10:33:15Z</time>
      </trkpt>
      <trkpt lat="45.99443" lon="4.50788">
        <ele>506.75</ele>
        <time>2014-03-09T10:33:27Z</time>
      </trkpt>
      <trkpt lat="45.99456" lon="4.5078">
        <ele>508.19</ele>
        <time>2014-03-09T10:33:36Z</time>
      </trkpt>
      <trkpt lat="45.99457" lon="4.50779">
        <ele>508.19</ele>
        <time>2014-03-09T10:33:37Z</time>
      </trkpt>
      <trkpt lat="45.99459" lon="4.50778">
        <ele>508.19</ele>
        <time>2014-03-09T10:33:38Z</time>
      </trkpt>
      <trkpt lat="45.99479" lon="4.50772">
        <ele>510.12</ele>
        <time>2014-03-09T10:33:51Z</time>
      </trkpt>
      <trkpt lat="45.99497" lon="4.50773">
        <ele>511.56</ele>
        <time>2014-03-09T10:34:02Z</time>
      </trkpt>
      <trkpt lat="45.99517" lon="4.5078">
        <ele>513</ele>
        <time>2014-03-09T10:34:13Z</time>
      </trkpt>
      <trkpt lat="45.99519" lon="4.50782">
        <ele>513</ele>
        <time>2014-03-09T10:34:14Z</time>
      </trkpt>
      <trkpt lat="45.99531" lon="4.5079">
        <ele>514.44</ele>
        <time>2014-03-09T10:34:23Z</time>
      </trkpt>
      <trkpt lat="45.99549" lon="4.50805">
        <ele>516.37</ele>
        <time>2014-03-09T10:34:35Z</time>
      </trkpt>
      <trkpt lat="45.99565" lon="4.50824">
        <ele>517.81</ele>
        <time>2014-03-09T10:34:47Z</time>
      </trkpt>
      <trkpt lat="45.9958" lon="4.50833">
        <ele>518.77</ele>
        <time>2014-03-09T10:34:57Z</time>
      </trkpt>
      <trkpt lat="45.99581" lon="4.50834">
        <ele>519.25</ele>
        <time>2014-03-09T10:34:58Z</time>
      </trkpt>
      <trkpt lat="45.99583" lon="4.50835">
        <ele>518.77</ele>
        <time>2014-03-09T10:34:59Z</time>
      </trkpt>
      <trkpt lat="45.99584" lon="4.50836">
        <ele>518.77</ele>
        <time>2014-03-09T10:35:00Z</time>
      </trkpt>
      <trkpt lat="45.99586" lon="4.50837">
        <ele>519.25</ele>
        <time>2014-03-09T10:35:01Z</time>
      </trkpt>
      <trkpt lat="45.99601" lon="4.50847">
        <ele>519.73</ele>
        <time>2014-03-09T10:35:11Z</time>
      </trkpt>
      <trkpt lat="45.99615" lon="4.50862">
        <ele>520.69</ele>
        <time>2014-03-09T10:35:21Z</time>
      </trkpt>
      <trkpt lat="45.99622" lon="4.50869">
        <ele>521.65</ele>
        <time>2014-03-09T10:35:26Z</time>
      </trkpt>
      <trkpt lat="45.99623" lon="4.50871">
        <ele>522.13</ele>
        <time>2014-03-09T10:35:27Z</time>
      </trkpt>
      <trkpt lat="45.99625" lon="4.50873">
        <ele>521.65</ele>
        <time>2014-03-09T10:35:28Z</time>
      </trkpt>
      <trkpt lat="45.99626" lon="4.50875">
        <ele>522.13</ele>
        <time>2014-03-09T10:35:29Z</time>
      </trkpt>
      <trkpt lat="45.99628" lon="4.50876">
        <ele>521.65</ele>
        <time>2014-03-09T10:35:30Z</time>
      </trkpt>
      <trkpt lat="45.99631" lon="4.50881">
        <ele>522.13</ele>
        <time>2014-03-09T10:35:33Z</time>
      </trkpt>
      <trkpt lat="45.99635" lon="4.50885">
        <ele>522.61</ele>
        <time>2014-03-09T10:35:37Z</time>
      </trkpt>
      <trkpt lat="45.99636" lon="4.50887">
        <ele>522.61</ele>
        <time>2014-03-09T10:35:38Z</time>
      </trkpt>
      <trkpt lat="45.99637" lon="4.50888">
        <ele>523.09</ele>
        <time>2014-03-09T10:35:39Z</time>
      </trkpt>
      <trkpt lat="45.99639" lon="4.5089">
        <ele>522.61</ele>
        <time>2014-03-09T10:35:40Z</time>
      </trkpt>
      <trkpt lat="45.99641" lon="4.50892">
        <ele>523.58</ele>
        <time>2014-03-09T10:35:41Z</time>
      </trkpt>
      <trkpt lat="45.99653" lon="4.50916">
        <ele>524.54</ele>
        <time>2014-03-09T10:35:53Z</time>
      </trkpt>
      <trkpt lat="45.99662" lon="4.50941">
        <ele>525.5</ele>
        <time>2014-03-09T10:36:04Z</time>
      </trkpt>
      <trkpt lat="45.99669" lon="4.50965">
        <ele>526.94</ele>
        <time>2014-03-09T10:36:15Z</time>
      </trkpt>
      <trkpt lat="45.99669" lon="4.50966">
        <ele>526.94</ele>
        <time>2014-03-09T10:36:16Z</time>
      </trkpt>
      <trkpt lat="45.9967" lon="4.50968">
        <ele>526.94</ele>
        <time>2014-03-09T10:36:17Z</time>
      </trkpt>
      <trkpt lat="45.99671" lon="4.5097">
        <ele>526.94</ele>
        <time>2014-03-09T10:36:18Z</time>
      </trkpt>
      <trkpt lat="45.99672" lon="4.50973">
        <ele>526.94</ele>
        <time>2014-03-09T10:36:19Z</time>
      </trkpt>
      <trkpt lat="45.99672" lon="4.50974">
        <ele>527.9</ele>
        <time>2014-03-09T10:36:20Z</time>
      </trkpt>
      <trkpt lat="45.99673" lon="4.50976">
        <ele>527.9</ele>
        <time>2014-03-09T10:36:21Z</time>
      </trkpt>
      <trkpt lat="45.99674" lon="4.50978">
        <ele>527.9</ele>
        <time>2014-03-09T10:36:22Z</time>
      </trkpt>
      <trkpt lat="45.99675" lon="4.50979">
        <ele>527.9</ele>
        <time>2014-03-09T10:36:23Z</time>
      </trkpt>
      <trkpt lat="45.9968" lon="4.5099">
        <ele>528.86</ele>
        <time>2014-03-09T10:36:31Z</time>
      </trkpt>
      <trkpt lat="45.99681" lon="4.50994">
        <ele>528.86</ele>
        <time>2014-03-09T10:36:33Z</time>
      </trkpt>
      <trkpt lat="45.99682" lon="4.50996">
        <ele>529.34</ele>
        <time>2014-03-09T10:36:34Z</time>
      </trkpt>
      <trkpt lat="45.99683" lon="4.50998">
        <ele>529.82</ele>
        <time>2014-03-09T10:36:35Z</time>
      </trkpt>
      <trkpt lat="45.99684" lon="4.51">
        <ele>529.82</ele>
        <time>2014-03-09T10:36:36Z</time>
      </trkpt>
      <trkpt lat="45.99685" lon="4.51001">
        <ele>529.82</ele>
        <time>2014-03-09T10:36:37Z</time>
      </trkpt>
      <trkpt lat="45.99686" lon="4.51003">
        <ele>529.82</ele>
        <time>2014-03-09T10:36:38Z</time>
      </trkpt>
      <trkpt lat="45.99694" lon="4.51019">
        <ele>530.79</ele>
        <time>2014-03-09T10:36:48Z</time>
      </trkpt>
      <trkpt lat="45.99694" lon="4.5102">
        <ele>530.79</ele>
        <time>2014-03-09T10:36:49Z</time>
      </trkpt>
      <trkpt lat="45.99704" lon="4.51041">
        <ele>531.75</ele>
        <time>2014-03-09T10:36:59Z</time>
      </trkpt>
      <trkpt lat="45.9971" lon="4.51055">
        <ele>533.67</ele>
        <time>2014-03-09T10:37:09Z</time>
      </trkpt>
      <trkpt lat="45.99723" lon="4.51078">
        <ele>535.11</ele>
        <time>2014-03-09T10:37:22Z</time>
      </trkpt>
      <trkpt lat="45.99739" lon="4.511">
        <ele>536.55</ele>
        <time>2014-03-09T10:37:33Z</time>
      </trkpt>
      <trkpt lat="45.99743" lon="4.51108">
        <ele>537.51</ele>
        <time>2014-03-09T10:37:37Z</time>
      </trkpt>
      <trkpt lat="45.99743" lon="4.5111">
        <ele>537.51</ele>
        <time>2014-03-09T10:37:38Z</time>
      </trkpt>
      <trkpt lat="45.99744" lon="4.51111">
        <ele>537.51</ele>
        <time>2014-03-09T10:37:39Z</time>
      </trkpt>
      <trkpt lat="45.99745" lon="4.51113">
        <ele>537.51</ele>
        <time>2014-03-09T10:37:40Z</time>
      </trkpt>
      <trkpt lat="45.99746" lon="4.51115">
        <ele>537.51</ele>
        <time>2014-03-09T10:37:41Z</time>
      </trkpt>
      <trkpt lat="45.99747" lon="4.51117">
        <ele>537.51</ele>
        <time>2014-03-09T10:37:42Z</time>
      </trkpt>
      <trkpt lat="45.99748" lon="4.5112">
        <ele>537.99</ele>
        <time>2014-03-09T10:37:44Z</time>
      </trkpt>
      <trkpt lat="45.99752" lon="4.51135">
        <ele>538.48</ele>
        <time>2014-03-09T10:37:53Z</time>
      </trkpt>
      <trkpt lat="45.99762" lon="4.51159">
        <ele>539.44</ele>
        <time>2014-03-09T10:38:07Z</time>
      </trkpt>
      <trkpt lat="45.99773" lon="4.51182">
        <ele>540.88</ele>
        <time>2014-03-09T10:38:19Z</time>
      </trkpt>
      <trkpt lat="45.99788" lon="4.51201">
        <ele>541.36</ele>
        <time>2014-03-09T10:38:30Z</time>
      </trkpt>
      <trkpt lat="45.99793" lon="4.51209">
        <ele>542.8</ele>
        <time>2014-03-09T10:38:34Z</time>
      </trkpt>
      <trkpt lat="45.99804" lon="4.51232">
        <ele>543.28</ele>
        <time>2014-03-09T10:38:45Z</time>
      </trkpt>
      <trkpt lat="45.99819" lon="4.51261">
        <ele>544.72</ele>
        <time>2014-03-09T10:38:59Z</time>
      </trkpt>
      <trkpt lat="45.99836" lon="4.51296">
        <ele>545.2</ele>
        <time>2014-03-09T10:39:14Z</time>
      </trkpt>
      <trkpt lat="45.99856" lon="4.51323">
        <ele>547.13</ele>
        <time>2014-03-09T10:39:27Z</time>
      </trkpt>
      <trkpt lat="45.99877" lon="4.51318">
        <ele>548.09</ele>
        <time>2014-03-09T10:39:38Z</time>
      </trkpt>
      <trkpt lat="45.99898" lon="4.51292">
        <ele>548.57</ele>
        <time>2014-03-09T10:39:51Z</time>
      </trkpt>
      <trkpt lat="45.99911" lon="4.51259">
        <ele>548.57</ele>
        <time>2014-03-09T10:40:05Z</time>
      </trkpt>
      <trkpt lat="45.99912" lon="4.51256">
        <ele>549.53</ele>
        <time>2014-03-09T10:40:14Z</time>
      </trkpt>
      <trkpt lat="45.99912" lon="4.51256">
        <ele>549.05</ele>
        <time>2014-03-09T10:40:24Z</time>
      </trkpt>
      <trkpt lat="45.99912" lon="4.51256">
        <ele>548.09</ele>
        <time>2014-03-09T10:40:36Z</time>
      </trkpt>
      <trkpt lat="45.99912" lon="4.51257">
        <ele>548.57</ele>
        <time>2014-03-09T10:40:56Z</time>
      </trkpt>
      <trkpt lat="45.99912" lon="4.51257">
        <ele>548.57</ele>
        <time>2014-03-09T10:41:15Z</time>
      </trkpt>
      <trkpt lat="45.99912" lon="4.51257">
        <ele>548.09</ele>
        <time>2014-03-09T10:41:27Z</time>
      </trkpt>
      <trkpt lat="45.99912" lon="4.51257">
        <ele>548.09</ele>
        <time>2014-03-09T10:41:58Z</time>
      </trkpt>
      <trkpt lat="45.99912" lon="4.51257">
        <ele>548.57</ele>
        <time>2014-03-09T10:42:27Z</time>
      </trkpt>
      <trkpt lat="45.99912" lon="4.51257">
        <ele>548.09</ele>
        <time>2014-03-09T10:42:42Z</time>
      </trkpt>
      <trkpt lat="45.99912" lon="4.51257">
        <ele>549.05</ele>
        <time>2014-03-09T10:42:53Z</time>
      </trkpt>
      <trkpt lat="45.99912" lon="4.51257">
        <ele>549.05</ele>
        <time>2014-03-09T10:43:16Z</time>
      </trkpt>
      <trkpt lat="45.99912" lon="4.51256">
        <ele>548.09</ele>
        <time>2014-03-09T10:43:38Z</time>
      </trkpt>
      <trkpt lat="45.99912" lon="4.51256">
        <ele>548.57</ele>
        <time>2014-03-09T10:43:57Z</time>
      </trkpt>
      <trkpt lat="45.99912" lon="4.51256">
        <ele>548.57</ele>
        <time>2014-03-09T10:44:15Z</time>
      </trkpt>
      <trkpt lat="45.99912" lon="4.51256">
        <ele>548.57</ele>
        <time>2014-03-09T10:44:36Z</time>
      </trkpt>
      <trkpt lat="45.99913" lon="4.51255">
        <ele>548.09</ele>
        <time>2014-03-09T10:44:45Z</time>
      </trkpt>
      <trkpt lat="45.99914" lon="4.51253">
        <ele>548.57</ele>
        <time>2014-03-09T10:44:46Z</time>
      </trkpt>
      <trkpt lat="45.99914" lon="4.51251">
        <ele>548.57</ele>
        <time>2014-03-09T10:44:47Z</time>
      </trkpt>
      <trkpt lat="45.99915" lon="4.5125">
        <ele>548.57</ele>
        <time>2014-03-09T10:44:48Z</time>
      </trkpt>
      <trkpt lat="45.99916" lon="4.51247">
        <ele>548.57</ele>
        <time>2014-03-09T10:44:49Z</time>
      </trkpt>
      <trkpt lat="45.99916" lon="4.51245">
        <ele>548.57</ele>
        <time>2014-03-09T10:44:50Z</time>
      </trkpt>
      <trkpt lat="45.99917" lon="4.51243">
        <ele>549.05</ele>
        <time>2014-03-09T10:44:51Z</time>
      </trkpt>
      <trkpt lat="45.99918" lon="4.51243">
        <ele>549.05</ele>
        <time>2014-03-09T10:44:52Z</time>
      </trkpt>
      <trkpt lat="45.99919" lon="4.51245">
        <ele>548.57</ele>
        <time>2014-03-09T10:44:55Z</time>
      </trkpt>
      <trkpt lat="45.99919" lon="4.51247">
        <ele>548.57</ele>
        <time>2014-03-09T10:44:56Z</time>
      </trkpt>
      <trkpt lat="45.99918" lon="4.51248">
        <ele>548.57</ele>
        <time>2014-03-09T10:44:57Z</time>
      </trkpt>
      <trkpt lat="45.99917" lon="4.5125">
        <ele>548.57</ele>
        <time>2014-03-09T10:44:58Z</time>
      </trkpt>
      <trkpt lat="45.99916" lon="4.51252">
        <ele>549.53</ele>
        <time>2014-03-09T10:44:59Z</time>
      </trkpt>
      <trkpt lat="45.99914" lon="4.51275">
        <ele>551.93</ele>
        <time>2014-03-09T10:45:11Z</time>
      </trkpt>
      <trkpt lat="45.99911" lon="4.51296">
        <ele>554.34</ele>
        <time>2014-03-09T10:45:24Z</time>
      </trkpt>
      <trkpt lat="45.99908" lon="4.51314">
        <ele>557.22</ele>
        <time>2014-03-09T10:45:36Z</time>
      </trkpt>
      <trkpt lat="45.99904" lon="4.51333">
        <ele>560.11</ele>
        <time>2014-03-09T10:45:48Z</time>
      </trkpt>
      <trkpt lat="45.999" lon="4.51346">
        <ele>562.03</ele>
        <time>2014-03-09T10:45:58Z</time>
      </trkpt>
      <trkpt lat="45.99899" lon="4.51348">
        <ele>561.55</ele>
        <time>2014-03-09T10:46:06Z</time>
      </trkpt>
      <trkpt lat="45.99897" lon="4.51353">
        <ele>562.03</ele>
        <time>2014-03-09T10:46:17Z</time>
      </trkpt>
      <trkpt lat="45.99895" lon="4.51357">
        <ele>562.51</ele>
        <time>2014-03-09T10:46:28Z</time>
      </trkpt>
      <trkpt lat="45.99893" lon="4.51366">
        <ele>564.43</ele>
        <time>2014-03-09T10:46:40Z</time>
      </trkpt>
      <trkpt lat="45.9989" lon="4.5137">
        <ele>564.91</ele>
        <time>2014-03-09T10:46:52Z</time>
      </trkpt>
      <trkpt lat="45.99886" lon="4.51379">
        <ele>565.87</ele>
        <time>2014-03-09T10:47:03Z</time>
      </trkpt>
      <trkpt lat="45.99881" lon="4.51386">
        <ele>566.83</ele>
        <time>2014-03-09T10:47:12Z</time>
      </trkpt>
      <trkpt lat="45.99876" lon="4.51394">
        <ele>568.28</ele>
        <time>2014-03-09T10:47:22Z</time>
      </trkpt>
      <trkpt lat="45.99873" lon="4.51398">
        <ele>568.76</ele>
        <time>2014-03-09T10:47:27Z</time>
      </trkpt>
      <trkpt lat="45.99866" lon="4.51404">
        <ele>570.2</ele>
        <time>2014-03-09T10:47:37Z</time>
      </trkpt>
      <trkpt lat="45.99863" lon="4.51406">
        <ele>570.2</ele>
        <time>2014-03-09T10:47:40Z</time>
      </trkpt>
      <trkpt lat="45.99857" lon="4.51412">
        <ele>571.64</ele>
        <time>2014-03-09T10:47:51Z</time>
      </trkpt>
      <trkpt lat="45.99848" lon="4.51417">
        <ele>573.08</ele>
        <time>2014-03-09T10:48:03Z</time>
      </trkpt>
      <trkpt lat="45.99836" lon="4.5142">
        <ele>574.04</ele>
        <time>2014-03-09T10:48:16Z</time>
      </trkpt>
      <trkpt lat="45.99832" lon="4.5142">
        <ele>574.53</ele>
        <time>2014-03-09T10:48:25Z</time>
      </trkpt>
      <trkpt lat="45.9983" lon="4.51421">
        <ele>574.04</ele>
        <time>2014-03-09T10:48:27Z</time>
      </trkpt>
      <trkpt lat="45.99815" lon="4.51418">
        <ele>575.97</ele>
        <time>2014-03-09T10:48:39Z</time>
      </trkpt>
      <trkpt lat="45.99802" lon="4.51412">
        <ele>577.41</ele>
        <time>2014-03-09T10:48:50Z</time>
      </trkpt>
      <trkpt lat="45.99787" lon="4.51402">
        <ele>579.81</ele>
        <time>2014-03-09T10:49:03Z</time>
      </trkpt>
      <trkpt lat="45.99779" lon="4.51394">
        <ele>581.25</ele>
        <time>2014-03-09T10:49:10Z</time>
      </trkpt>
      <trkpt lat="45.99773" lon="4.5139">
        <ele>581.73</ele>
        <time>2014-03-09T10:49:15Z</time>
      </trkpt>
      <trkpt lat="45.99757" lon="4.5138">
        <ele>585.1</ele>
        <time>2014-03-09T10:49:30Z</time>
      </trkpt>
      <trkpt lat="45.99747" lon="4.51374">
        <ele>586.54</ele>
        <time>2014-03-09T10:49:39Z</time>
      </trkpt>
      <trkpt lat="45.99741" lon="4.51369">
        <ele>587.02</ele>
        <time>2014-03-09T10:49:44Z</time>
      </trkpt>
      <trkpt lat="45.9973" lon="4.5136">
        <ele>589.43</ele>
        <time>2014-03-09T10:49:56Z</time>
      </trkpt>
      <trkpt lat="45.99729" lon="4.51361">
        <ele>589.43</ele>
        <time>2014-03-09T10:50:05Z</time>
      </trkpt>
      <trkpt lat="45.99721" lon="4.51356">
        <ele>591.35</ele>
        <time>2014-03-09T10:50:16Z</time>
      </trkpt>
      <trkpt lat="45.99713" lon="4.51353">
        <ele>592.31</ele>
        <time>2014-03-09T10:50:27Z</time>
      </trkpt>
      <trkpt lat="45.99703" lon="4.51352">
        <ele>594.23</ele>
        <time>2014-03-09T10:50:40Z</time>
      </trkpt>
      <trkpt lat="45.99698" lon="4.51352">
        <ele>594.23</ele>
        <time>2014-03-09T10:50:51Z</time>
      </trkpt>
      <trkpt lat="45.99697" lon="4.51351">
        <ele>593.75</ele>
        <time>2014-03-09T10:50:59Z</time>
      </trkpt>
      <trkpt lat="45.99695" lon="4.51352">
        <ele>594.23</ele>
        <time>2014-03-09T10:51:07Z</time>
      </trkpt>
      <trkpt lat="45.99695" lon="4.51354">
        <ele>593.75</ele>
        <time>2014-03-09T10:51:17Z</time>
      </trkpt>
      <trkpt lat="45.99697" lon="4.51355">
        <ele>593.75</ele>
        <time>2014-03-09T10:51:27Z</time>
      </trkpt>
      <trkpt lat="45.99697" lon="4.51355">
        <ele>593.27</ele>
        <time>2014-03-09T10:51:41Z</time>
      </trkpt>
      <trkpt lat="45.99697" lon="4.51355">
        <ele>593.75</ele>
        <time>2014-03-09T10:51:54Z</time>
      </trkpt>
      <trkpt lat="45.99696" lon="4.51355">
        <ele>593.27</ele>
        <time>2014-03-09T10:52:02Z</time>
      </trkpt>
      <trkpt lat="45.99697" lon="4.51355">
        <ele>593.27</ele>
        <time>2014-03-09T10:52:21Z</time>
      </trkpt>
      <trkpt lat="45.99697" lon="4.51351">
        <ele>593.27</ele>
        <time>2014-03-09T10:52:31Z</time>
      </trkpt>
      <trkpt lat="45.99696" lon="4.51351">
        <ele>593.27</ele>
        <time>2014-03-09T10:52:43Z</time>
      </trkpt>
      <trkpt lat="45.99696" lon="4.51351">
        <ele>593.75</ele>
        <time>2014-03-09T10:53:04Z</time>
      </trkpt>
      <trkpt lat="45.99696" lon="4.51352">
        <ele>593.75</ele>
        <time>2014-03-09T10:53:14Z</time>
      </trkpt>
      <trkpt lat="45.99696" lon="4.51352">
        <ele>593.27</ele>
        <time>2014-03-09T10:53:26Z</time>
      </trkpt>
      <trkpt lat="45.99696" lon="4.51352">
        <ele>593.75</ele>
        <time>2014-03-09T10:53:36Z</time>
      </trkpt>
      <trkpt lat="45.99696" lon="4.51352">
        <ele>593.27</ele>
        <time>2014-03-09T10:53:53Z</time>
      </trkpt>
      <trkpt lat="45.99696" lon="4.51352">
        <ele>594.23</ele>
        <time>2014-03-09T10:54:20Z</time>
      </trkpt>
      <trkpt lat="45.99695" lon="4.51354">
        <ele>593.27</ele>
        <time>2014-03-09T10:54:38Z</time>
      </trkpt>
      <trkpt lat="45.99695" lon="4.51354">
        <ele>593.75</ele>
        <time>2014-03-09T10:54:55Z</time>
      </trkpt>
      <trkpt lat="45.99695" lon="4.51354">
        <ele>593.27</ele>
        <time>2014-03-09T10:55:17Z</time>
      </trkpt>
      <trkpt lat="45.99694" lon="4.51354">
        <ele>593.27</ele>
        <time>2014-03-09T10:55:39Z</time>
      </trkpt>
      <trkpt lat="45.99694" lon="4.51354">
        <ele>593.27</ele>
        <time>2014-03-09T10:55:56Z</time>
      </trkpt>
      <trkpt lat="45.99694" lon="4.51354">
        <ele>593.27</ele>
        <time>2014-03-09T10:56:13Z</time>
      </trkpt>
      <trkpt lat="45.99694" lon="4.51354">
        <ele>593.27</ele>
        <time>2014-03-09T10:56:25Z</time>
      </trkpt>
      <trkpt lat="45.99694" lon="4.51354">
        <ele>593.75</ele>
        <time>2014-03-09T10:56:36Z</time>
      </trkpt>
      <trkpt lat="45.99694" lon="4.51354">
        <ele>593.75</ele>
        <time>2014-03-09T10:56:47Z</time>
      </trkpt>
      <trkpt lat="45.99694" lon="4.51354">
        <ele>593.27</ele>
        <time>2014-03-09T10:57:02Z</time>
      </trkpt>
      <trkpt lat="45.99693" lon="4.51355">
        <ele>593.75</ele>
        <time>2014-03-09T10:57:10Z</time>
      </trkpt>
      <trkpt lat="45.99693" lon="4.51356">
        <ele>593.27</ele>
        <time>2014-03-09T10:57:15Z</time>
      </trkpt>
      <trkpt lat="45.99689" lon="4.51356">
        <ele>593.75</ele>
        <time>2014-03-09T10:57:18Z</time>
      </trkpt>
      <trkpt lat="45.9967" lon="4.51376">
        <ele>591.35</ele>
        <time>2014-03-09T10:57:26Z</time>
      </trkpt>
      <trkpt lat="45.99656" lon="4.514">
        <ele>588.46</ele>
        <time>2014-03-09T10:57:30Z</time>
      </trkpt>
      <trkpt lat="45.99647" lon="4.5142">
        <ele>587.02</ele>
        <time>2014-03-09T10:57:33Z</time>
      </trkpt>
      <trkpt lat="45.99628" lon="4.51455">
        <ele>583.18</ele>
        <time>2014-03-09T10:57:38Z</time>
      </trkpt>
      <trkpt lat="45.99623" lon="4.51462">
        <ele>582.7</ele>
        <time>2014-03-09T10:57:39Z</time>
      </trkpt>
      <trkpt lat="45.99613" lon="4.51474">
        <ele>581.25</ele>
        <time>2014-03-09T10:57:41Z</time>
      </trkpt>
      <trkpt lat="45.99607" lon="4.51478">
        <ele>580.77</ele>
        <time>2014-03-09T10:57:42Z</time>
      </trkpt>
      <trkpt lat="45.99596" lon="4.51485">
        <ele>578.85</ele>
        <time>2014-03-09T10:57:44Z</time>
      </trkpt>
      <trkpt lat="45.99591" lon="4.51487">
        <ele>578.85</ele>
        <time>2014-03-09T10:57:45Z</time>
      </trkpt>
      <trkpt lat="45.99564" lon="4.51492">
        <ele>575.49</ele>
        <time>2014-03-09T10:57:49Z</time>
      </trkpt>
      <trkpt lat="45.99539" lon="4.5149">
        <ele>572.6</ele>
        <time>2014-03-09T10:57:53Z</time>
      </trkpt>
      <trkpt lat="45.99534" lon="4.51489">
        <ele>572.6</ele>
        <time>2014-03-09T10:57:54Z</time>
      </trkpt>
      <trkpt lat="45.99517" lon="4.51484">
        <ele>570.2</ele>
        <time>2014-03-09T10:57:58Z</time>
      </trkpt>
      <trkpt lat="45.99501" lon="4.51478">
        <ele>568.76</ele>
        <time>2014-03-09T10:58:02Z</time>
      </trkpt>
      <trkpt lat="45.99494" lon="4.51474">
        <ele>567.32</ele>
        <time>2014-03-09T10:58:08Z</time>
      </trkpt>
      <trkpt lat="45.99494" lon="4.51474">
        <ele>567.32</ele>
        <time>2014-03-09T10:58:22Z</time>
      </trkpt>
      <trkpt lat="45.99494" lon="4.51474">
        <ele>567.8</ele>
        <time>2014-03-09T10:58:32Z</time>
      </trkpt>
      <trkpt lat="45.99493" lon="4.51474">
        <ele>566.83</ele>
        <time>2014-03-09T10:58:46Z</time>
      </trkpt>
      <trkpt lat="45.99494" lon="4.51475">
        <ele>567.8</ele>
        <time>2014-03-09T10:58:56Z</time>
      </trkpt>
      <trkpt lat="45.99495" lon="4.51475">
        <ele>567.32</ele>
        <time>2014-03-09T10:59:00Z</time>
      </trkpt>
      <trkpt lat="45.99495" lon="4.51476">
        <ele>566.35</ele>
        <time>2014-03-09T10:59:07Z</time>
      </trkpt>
      <trkpt lat="45.99495" lon="4.51476">
        <ele>570.2</ele>
        <time>2014-03-09T10:59:12Z</time>
      </trkpt>
      <trkpt lat="45.99495" lon="4.51476">
        <ele>558.18</ele>
        <time>2014-03-09T10:59:13Z</time>
      </trkpt>
      <trkpt lat="45.99494" lon="4.51477">
        <ele>568.76</ele>
        <time>2014-03-09T10:59:14Z</time>
      </trkpt>
      <trkpt lat="45.99494" lon="4.51477">
        <ele>597.6</ele>
        <time>2014-03-09T10:59:15Z</time>
      </trkpt>
      <trkpt lat="45.99494" lon="4.51477">
        <ele>571.64</ele>
        <time>2014-03-09T10:59:16Z</time>
      </trkpt>
      <trkpt lat="45.99494" lon="4.51477">
        <ele>567.8</ele>
        <time>2014-03-09T10:59:17Z</time>
      </trkpt>
      <trkpt lat="45.99494" lon="4.51477">
        <ele>566.83</ele>
        <time>2014-03-09T10:59:19Z</time>
      </trkpt>
      <trkpt lat="45.99495" lon="4.51476">
        <ele>570.2</ele>
        <time>2014-03-09T10:59:24Z</time>
      </trkpt>
      <trkpt lat="45.99495" lon="4.51476">
        <ele>564.91</ele>
        <time>2014-03-09T10:59:25Z</time>
      </trkpt>
      <trkpt lat="45.99495" lon="4.51476">
        <ele>561.07</ele>
        <time>2014-03-09T10:59:26Z</time>
      </trkpt>
      <trkpt lat="45.99495" lon="4.51476">
        <ele>567.8</ele>
        <time>2014-03-09T10:59:27Z</time>
      </trkpt>
      <trkpt lat="45.99495" lon="4.51476">
        <ele>564.43</ele>
        <time>2014-03-09T10:59:31Z</time>
      </trkpt>
      <trkpt lat="45.99495" lon="4.51476">
        <ele>568.76</ele>
        <time>2014-03-09T10:59:36Z</time>
      </trkpt>
      <trkpt lat="45.99493" lon="4.51475">
        <ele>566.83</ele>
        <time>2014-03-09T10:59:51Z</time>
      </trkpt>
      <trkpt lat="45.99493" lon="4.51475">
        <ele>566.83</ele>
        <time>2014-03-09T11:00:09Z</time>
      </trkpt>
      <trkpt lat="45.99493" lon="4.51475">
        <ele>563.47</ele>
        <time>2014-03-09T11:00:23Z</time>
      </trkpt>
      <trkpt lat="45.99493" lon="4.51475">
        <ele>567.32</ele>
        <time>2014-03-09T11:00:24Z</time>
      </trkpt>
      <trkpt lat="45.99493" lon="4.51475">
        <ele>563.95</ele>
        <time>2014-03-09T11:00:30Z</time>
      </trkpt>
      <trkpt lat="45.99493" lon="4.51475">
        <ele>569.72</ele>
        <time>2014-03-09T11:00:36Z</time>
      </trkpt>
      <trkpt lat="45.99493" lon="4.51475">
        <ele>566.35</ele>
        <time>2014-03-09T11:00:38Z</time>
      </trkpt>
      <trkpt lat="45.99493" lon="4.51476">
        <ele>566.83</ele>
        <time>2014-03-09T11:00:49Z</time>
      </trkpt>
      <trkpt lat="45.99493" lon="4.51476">
        <ele>563.47</ele>
        <time>2014-03-09T11:00:58Z</time>
      </trkpt>
      <trkpt lat="45.99493" lon="4.51476">
        <ele>567.32</ele>
        <time>2014-03-09T11:00:59Z</time>
      </trkpt>
      <trkpt lat="45.99491" lon="4.51476">
        <ele>566.83</ele>
        <time>2014-03-09T11:01:12Z</time>
      </trkpt>
      <trkpt lat="45.99489" lon="4.51477">
        <ele>571.16</ele>
        <time>2014-03-09T11:01:19Z</time>
      </trkpt>
      <trkpt lat="45.99489" lon="4.51477">
        <ele>565.87</ele>
        <time>2014-03-09T11:01:20Z</time>
      </trkpt>
      <trkpt lat="45.99489" lon="4.51477">
        <ele>569.24</ele>
        <time>2014-03-09T11:01:22Z</time>
      </trkpt>
      <trkpt lat="45.99489" lon="4.51477">
        <ele>566.35</ele>
        <time>2014-03-09T11:01:24Z</time>
      </trkpt>
      <trkpt lat="45.99489" lon="4.51477">
        <ele>560.11</ele>
        <time>2014-03-09T11:01:29Z</time>
      </trkpt>
      <trkpt lat="45.99489" lon="4.51477">
        <ele>566.83</ele>
        <time>2014-03-09T11:01:30Z</time>
      </trkpt>
      <trkpt lat="45.99489" lon="4.51477">
        <ele>561.55</ele>
        <time>2014-03-09T11:01:32Z</time>
      </trkpt>
      <trkpt lat="45.99489" lon="4.51477">
        <ele>561.55</ele>
        <time>2014-03-09T11:01:33Z</time>
      </trkpt>
      <trkpt lat="45.99489" lon="4.51477">
        <ele>568.28</ele>
        <time>2014-03-09T11:01:34Z</time>
      </trkpt>
      <trkpt lat="45.99489" lon="4.51477">
        <ele>566.83</ele>
        <time>2014-03-09T11:01:35Z</time>
      </trkpt>
      <trkpt lat="45.99489" lon="4.51477">
        <ele>562.03</ele>
        <time>2014-03-09T11:01:36Z</time>
      </trkpt>
      <trkpt lat="45.99489" lon="4.51477">
        <ele>563.47</ele>
        <time>2014-03-09T11:01:37Z</time>
      </trkpt>
      <trkpt lat="45.99489" lon="4.51477">
        <ele>567.32</ele>
        <time>2014-03-09T11:01:39Z</time>
      </trkpt>
      <trkpt lat="45.99489" lon="4.51477">
        <ele>566.35</ele>
        <time>2014-03-09T11:01:40Z</time>
      </trkpt>
      <trkpt lat="45.99489" lon="4.51477">
        <ele>562.99</ele>
        <time>2014-03-09T11:01:45Z</time>
      </trkpt>
      <trkpt lat="45.99489" lon="4.51477">
        <ele>567.8</ele>
        <time>2014-03-09T11:01:46Z</time>
      </trkpt>
      <trkpt lat="45.99492" lon="4.51475">
        <ele>572.6</ele>
        <time>2014-03-09T11:01:54Z</time>
      </trkpt>
      <trkpt lat="45.99492" lon="4.51475">
        <ele>562.99</ele>
        <time>2014-03-09T11:01:55Z</time>
      </trkpt>
      <trkpt lat="45.99492" lon="4.51475">
        <ele>573.56</ele>
        <time>2014-03-09T11:01:56Z</time>
      </trkpt>
      <trkpt lat="45.99492" lon="4.51475">
        <ele>566.35</ele>
        <time>2014-03-09T11:01:57Z</time>
      </trkpt>
      <trkpt lat="45.99492" lon="4.51475">
        <ele>566.35</ele>
        <time>2014-03-09T11:02:09Z</time>
      </trkpt>
      <trkpt lat="45.99492" lon="4.51474">
        <ele>569.72</ele>
        <time>2014-03-09T11:02:16Z</time>
      </trkpt>
      <trkpt lat="45.99492" lon="4.51474">
        <ele>567.8</ele>
        <time>2014-03-09T11:02:17Z</time>
      </trkpt>
      <trkpt lat="45.99494" lon="4.51475">
        <ele>566.83</ele>
        <time>2014-03-09T11:02:19Z</time>
      </trkpt>
      <trkpt lat="45.99497" lon="4.51477">
        <ele>570.2</ele>
        <time>2014-03-09T11:02:24Z</time>
      </trkpt>
      <trkpt lat="45.99497" lon="4.51477">
        <ele>567.8</ele>
        <time>2014-03-09T11:02:27Z</time>
      </trkpt>
      <trkpt lat="45.99498" lon="4.51477">
        <ele>566.83</ele>
        <time>2014-03-09T11:02:28Z</time>
      </trkpt>
      <trkpt lat="45.99499" lon="4.51477">
        <ele>568.76</ele>
        <time>2014-03-09T11:02:29Z</time>
      </trkpt>
      <trkpt lat="45.99501" lon="4.51477">
        <ele>567.32</ele>
        <time>2014-03-09T11:02:30Z</time>
      </trkpt>
      <trkpt lat="45.99504" lon="4.51479">
        <ele>568.76</ele>
        <time>2014-03-09T11:02:33Z</time>
      </trkpt>
      <trkpt lat="45.9951" lon="4.51481">
        <ele>567.8</ele>
        <time>2014-03-09T11:02:38Z</time>
      </trkpt>
      <trkpt lat="45.99516" lon="4.51485">
        <ele>569.72</ele>
        <time>2014-03-09T11:02:42Z</time>
      </trkpt>
      <trkpt lat="45.99532" lon="4.51489">
        <ele>572.12</ele>
        <time>2014-03-09T11:02:54Z</time>
      </trkpt>
      <trkpt lat="45.99544" lon="4.51492">
        <ele>573.56</ele>
        <time>2014-03-09T11:03:02Z</time>
      </trkpt>
      <trkpt lat="45.99549" lon="4.51492">
        <ele>572.12</ele>
        <time>2014-03-09T11:03:06Z</time>
      </trkpt>
      <trkpt lat="45.99567" lon="4.51492">
        <ele>575.01</ele>
        <time>2014-03-09T11:03:20Z</time>
      </trkpt>
      <trkpt lat="45.9958" lon="4.51491">
        <ele>576.93</ele>
        <time>2014-03-09T11:03:31Z</time>
      </trkpt>
      <trkpt lat="45.99581" lon="4.51491">
        <ele>576.45</ele>
        <time>2014-03-09T11:03:32Z</time>
      </trkpt>
      <trkpt lat="45.99594" lon="4.51488">
        <ele>576.45</ele>
        <time>2014-03-09T11:03:44Z</time>
      </trkpt>
      <trkpt lat="45.996" lon="4.51486">
        <ele>579.81</ele>
        <time>2014-03-09T11:03:50Z</time>
      </trkpt>
      <trkpt lat="45.99608" lon="4.5148">
        <ele>579.81</ele>
        <time>2014-03-09T11:03:56Z</time>
      </trkpt>
      <trkpt lat="45.99622" lon="4.51464">
        <ele>579.81</ele>
        <time>2014-03-09T11:04:09Z</time>
      </trkpt>
      <trkpt lat="45.99625" lon="4.5146">
        <ele>583.18</ele>
        <time>2014-03-09T11:04:16Z</time>
      </trkpt>
      <trkpt lat="45.99626" lon="4.51459">
        <ele>580.29</ele>
        <time>2014-03-09T11:04:20Z</time>
      </trkpt>
      <trkpt lat="45.99629" lon="4.51454">
        <ele>581.25</ele>
        <time>2014-03-09T11:04:30Z</time>
      </trkpt>
      <trkpt lat="45.99636" lon="4.51444">
        <ele>583.18</ele>
        <time>2014-03-09T11:04:42Z</time>
      </trkpt>
      <trkpt lat="45.99641" lon="4.51435">
        <ele>584.62</ele>
        <time>2014-03-09T11:04:50Z</time>
      </trkpt>
      <trkpt lat="45.99642" lon="4.51432">
        <ele>584.62</ele>
        <time>2014-03-09T11:04:57Z</time>
      </trkpt>
      <trkpt lat="45.99644" lon="4.51429">
        <ele>582.7</ele>
        <time>2014-03-09T11:05:00Z</time>
      </trkpt>
      <trkpt lat="45.9965" lon="4.51414">
        <ele>587.02</ele>
        <time>2014-03-09T11:05:09Z</time>
      </trkpt>
      <trkpt lat="45.9966" lon="4.51397">
        <ele>589.91</ele>
        <time>2014-03-09T11:05:21Z</time>
      </trkpt>
      <trkpt lat="45.99666" lon="4.51386">
        <ele>589.91</ele>
        <time>2014-03-09T11:05:29Z</time>
      </trkpt>
      <trkpt lat="45.99675" lon="4.51374">
        <ele>591.83</ele>
        <time>2014-03-09T11:05:38Z</time>
      </trkpt>
      <trkpt lat="45.99689" lon="4.51361">
        <ele>593.75</ele>
        <time>2014-03-09T11:05:50Z</time>
      </trkpt>
      <trkpt lat="45.99698" lon="4.51354">
        <ele>594.23</ele>
        <time>2014-03-09T11:06:02Z</time>
      </trkpt>
      <trkpt lat="45.99698" lon="4.51354">
        <ele>593.75</ele>
        <time>2014-03-09T11:06:20Z</time>
      </trkpt>
      <trkpt lat="45.99699" lon="4.51354">
        <ele>592.79</ele>
        <time>2014-03-09T11:06:38Z</time>
      </trkpt>
      <trkpt lat="45.99699" lon="4.51354">
        <ele>592.31</ele>
        <time>2014-03-09T11:06:50Z</time>
      </trkpt>
      <trkpt lat="45.99699" lon="4.51354">
        <ele>592.31</ele>
        <time>2014-03-09T11:07:09Z</time>
      </trkpt>
      <trkpt lat="45.99699" lon="4.51354">
        <ele>593.27</ele>
        <time>2014-03-09T11:07:28Z</time>
      </trkpt>
      <trkpt lat="45.99702" lon="4.51356">
        <ele>593.75</ele>
        <time>2014-03-09T11:07:31Z</time>
      </trkpt>
      <trkpt lat="45.99708" lon="4.51361">
        <ele>591.83</ele>
        <time>2014-03-09T11:07:35Z</time>
      </trkpt>
      <trkpt lat="45.99723" lon="4.51371">
        <ele>589.43</ele>
        <time>2014-03-09T11:07:40Z</time>
      </trkpt>
      <trkpt lat="45.99727" lon="4.51377">
        <ele>592.79</ele>
        <time>2014-03-09T11:07:43Z</time>
      </trkpt>
      <trkpt lat="45.99728" lon="4.51378">
        <ele>590.39</ele>
        <time>2014-03-09T11:07:52Z</time>
      </trkpt>
      <trkpt lat="45.99728" lon="4.51378">
        <ele>590.39</ele>
        <time>2014-03-09T11:08:02Z</time>
      </trkpt>
      <trkpt lat="45.99731" lon="4.51382">
        <ele>590.87</ele>
        <time>2014-03-09T11:08:05Z</time>
      </trkpt>
      <trkpt lat="45.99757" lon="4.51416">
        <ele>589.91</ele>
        <time>2014-03-09T11:08:17Z</time>
      </trkpt>
      <trkpt lat="45.99782" lon="4.5145">
        <ele>589.91</ele>
        <time>2014-03-09T11:08:28Z</time>
      </trkpt>
      <trkpt lat="45.99803" lon="4.51468">
        <ele>588.46</ele>
        <time>2014-03-09T11:08:37Z</time>
      </trkpt>
      <trkpt lat="45.99806" lon="4.5147">
        <ele>591.83</ele>
        <time>2014-03-09T11:08:38Z</time>
      </trkpt>
      <trkpt lat="45.99823" lon="4.51474">
        <ele>590.87</ele>
        <time>2014-03-09T11:08:48Z</time>
      </trkpt>
      <trkpt lat="45.99837" lon="4.51475">
        <ele>591.35</ele>
        <time>2014-03-09T11:08:55Z</time>
      </trkpt>
      <trkpt lat="45.99854" lon="4.51472">
        <ele>591.83</ele>
        <time>2014-03-09T11:09:04Z</time>
      </trkpt>
      <trkpt lat="45.99858" lon="4.51472">
        <ele>589.91</ele>
        <time>2014-03-09T11:09:06Z</time>
      </trkpt>
      <trkpt lat="45.99861" lon="4.51471">
        <ele>593.27</ele>
        <time>2014-03-09T11:09:07Z</time>
      </trkpt>
      <trkpt lat="45.99863" lon="4.51471">
        <ele>592.31</ele>
        <time>2014-03-09T11:09:08Z</time>
      </trkpt>
      <trkpt lat="45.99885" lon="4.51465">
        <ele>590.39</ele>
        <time>2014-03-09T11:09:18Z</time>
      </trkpt>
      <trkpt lat="45.99893" lon="4.5146">
        <ele>590.87</ele>
        <time>2014-03-09T11:09:23Z</time>
      </trkpt>
      <trkpt lat="45.99913" lon="4.51447">
        <ele>593.75</ele>
        <time>2014-03-09T11:09:33Z</time>
      </trkpt>
      <trkpt lat="45.99913" lon="4.51447">
        <ele>591.83</ele>
        <time>2014-03-09T11:09:36Z</time>
      </trkpt>
      <trkpt lat="45.99914" lon="4.51447">
        <ele>595.67</ele>
        <time>2014-03-09T11:09:40Z</time>
      </trkpt>
      <trkpt lat="45.99914" lon="4.51447">
        <ele>593.27</ele>
        <time>2014-03-09T11:09:41Z</time>
      </trkpt>
      <trkpt lat="45.99915" lon="4.51445">
        <ele>591.35</ele>
        <time>2014-03-09T11:09:48Z</time>
      </trkpt>
      <trkpt lat="45.99915" lon="4.51443">
        <ele>596.64</ele>
        <time>2014-03-09T11:10:01Z</time>
      </trkpt>
      <trkpt lat="45.99915" lon="4.51443">
        <ele>591.35</ele>
        <time>2014-03-09T11:10:02Z</time>
      </trkpt>
      <trkpt lat="45.99915" lon="4.51443">
        <ele>596.64</ele>
        <time>2014-03-09T11:10:06Z</time>
      </trkpt>
      <trkpt lat="45.99915" lon="4.51443">
        <ele>587.5</ele>
        <time>2014-03-09T11:10:07Z</time>
      </trkpt>
      <trkpt lat="45.99915" lon="4.51443">
        <ele>592.31</ele>
        <time>2014-03-09T11:10:08Z</time>
      </trkpt>
      <trkpt lat="45.99916" lon="4.51443">
        <ele>587.5</ele>
        <time>2014-03-09T11:10:17Z</time>
      </trkpt>
      <trkpt lat="45.99916" lon="4.51443">
        <ele>594.23</ele>
        <time>2014-03-09T11:10:18Z</time>
      </trkpt>
      <trkpt lat="45.99915" lon="4.51443">
        <ele>585.58</ele>
        <time>2014-03-09T11:10:21Z</time>
      </trkpt>
      <trkpt lat="45.99915" lon="4.51443">
        <ele>596.15</ele>
        <time>2014-03-09T11:10:22Z</time>
      </trkpt>
      <trkpt lat="45.99915" lon="4.51443">
        <ele>588.95</ele>
        <time>2014-03-09T11:10:23Z</time>
      </trkpt>
      <trkpt lat="45.99915" lon="4.51443">
        <ele>594.71</ele>
        <time>2014-03-09T11:10:24Z</time>
      </trkpt>
      <trkpt lat="45.99915" lon="4.51443">
        <ele>590.39</ele>
        <time>2014-03-09T11:10:26Z</time>
      </trkpt>
      <trkpt lat="45.99915" lon="4.51443">
        <ele>590.87</ele>
        <time>2014-03-09T11:10:27Z</time>
      </trkpt>
      <trkpt lat="45.99915" lon="4.51443">
        <ele>594.23</ele>
        <time>2014-03-09T11:10:31Z</time>
      </trkpt>
      <trkpt lat="45.99915" lon="4.51443">
        <ele>585.1</ele>
        <time>2014-03-09T11:10:32Z</time>
      </trkpt>
      <trkpt lat="45.99915" lon="4.51443">
        <ele>588.46</ele>
        <time>2014-03-09T11:10:33Z</time>
      </trkpt>
      <trkpt lat="45.99915" lon="4.51443">
        <ele>592.79</ele>
        <time>2014-03-09T11:10:34Z</time>
      </trkpt>
      <trkpt lat="45.99915" lon="4.51443">
        <ele>592.79</ele>
        <time>2014-03-09T11:10:35Z</time>
      </trkpt>
      <trkpt lat="45.99915" lon="4.51443">
        <ele>589.43</ele>
        <time>2014-03-09T11:10:37Z</time>
      </trkpt>
      <trkpt lat="45.99915" lon="4.51443">
        <ele>597.12</ele>
        <time>2014-03-09T11:10:39Z</time>
      </trkpt>
      <trkpt lat="45.99915" lon="4.51443">
        <ele>589.91</ele>
        <time>2014-03-09T11:10:40Z</time>
      </trkpt>
      <trkpt lat="45.99915" lon="4.51443">
        <ele>593.27</ele>
        <time>2014-03-09T11:10:41Z</time>
      </trkpt>
      <trkpt lat="45.99916" lon="4.51442">
        <ele>589.91</ele>
        <time>2014-03-09T11:11:00Z</time>
      </trkpt>
      <trkpt lat="45.99916" lon="4.51442">
        <ele>593.75</ele>
        <time>2014-03-09T11:11:02Z</time>
      </trkpt>
      <trkpt lat="45.99915" lon="4.51444">
        <ele>591.83</ele>
        <time>2014-03-09T11:11:14Z</time>
      </trkpt>
      <trkpt lat="45.99915" lon="4.51444">
        <ele>594.71</ele>
        <time>2014-03-09T11:11:15Z</time>
      </trkpt>
      <trkpt lat="45.99915" lon="4.51444">
        <ele>587.98</ele>
        <time>2014-03-09T11:11:16Z</time>
      </trkpt>
      <trkpt lat="45.99915" lon="4.51444">
        <ele>593.27</ele>
        <time>2014-03-09T11:11:17Z</time>
      </trkpt>
      <trkpt lat="45.99915" lon="4.51444">
        <ele>586.54</ele>
        <time>2014-03-09T11:11:20Z</time>
      </trkpt>
      <trkpt lat="45.99915" lon="4.51444">
        <ele>594.23</ele>
        <time>2014-03-09T11:11:21Z</time>
      </trkpt>
      <trkpt lat="45.99915" lon="4.51444">
        <ele>590.87</ele>
        <time>2014-03-09T11:11:22Z</time>
      </trkpt>
      <trkpt lat="45.99915" lon="4.51444">
        <ele>591.83</ele>
        <time>2014-03-09T11:11:35Z</time>
      </trkpt>
      <trkpt lat="45.99915" lon="4.51444">
        <ele>591.83</ele>
        <time>2014-03-09T11:11:54Z</time>
      </trkpt>
      <trkpt lat="45.99916" lon="4.51444">
        <ele>591.83</ele>
        <time>2014-03-09T11:12:08Z</time>
      </trkpt>
      <trkpt lat="45.99916" lon="4.51444">
        <ele>592.31</ele>
        <time>2014-03-09T11:12:25Z</time>
      </trkpt>
      <trkpt lat="45.99917" lon="4.51443">
        <ele>592.31</ele>
        <time>2014-03-09T11:12:37Z</time>
      </trkpt>
      <trkpt lat="45.99919" lon="4.51441">
        <ele>591.83</ele>
        <time>2014-03-09T11:12:39Z</time>
      </trkpt>
      <trkpt lat="45.99921" lon="4.51441">
        <ele>592.31</ele>
        <time>2014-03-09T11:12:45Z</time>
      </trkpt>
      <trkpt lat="45.99927" lon="4.51439">
        <ele>593.27</ele>
        <time>2014-03-09T11:12:54Z</time>
      </trkpt>
      <trkpt lat="45.99932" lon="4.51435">
        <ele>593.75</ele>
        <time>2014-03-09T11:13:05Z</time>
      </trkpt>
      <trkpt lat="45.99937" lon="4.51429">
        <ele>594.71</ele>
        <time>2014-03-09T11:13:14Z</time>
      </trkpt>
      <trkpt lat="45.9995" lon="4.51423">
        <ele>597.12</ele>
        <time>2014-03-09T11:13:24Z</time>
      </trkpt>
      <trkpt lat="45.99958" lon="4.51421">
        <ele>597.12</ele>
        <time>2014-03-09T11:13:30Z</time>
      </trkpt>
      <trkpt lat="45.99976" lon="4.51428">
        <ele>599.52</ele>
        <time>2014-03-09T11:13:44Z</time>
      </trkpt>
      <trkpt lat="45.99977" lon="4.51429">
        <ele>599.52</ele>
        <time>2014-03-09T11:13:45Z</time>
      </trkpt>
      <trkpt lat="45.99978" lon="4.51432">
        <ele>600</ele>
        <time>2014-03-09T11:13:55Z</time>
      </trkpt>
      <trkpt lat="45.99978" lon="4.51432">
        <ele>599.52</ele>
        <time>2014-03-09T11:14:21Z</time>
      </trkpt>
      <trkpt lat="45.99978" lon="4.51432">
        <ele>599.04</ele>
        <time>2014-03-09T11:14:45Z</time>
      </trkpt>
      <trkpt lat="45.9998" lon="4.51436">
        <ele>599.52</ele>
        <time>2014-03-09T11:14:54Z</time>
      </trkpt>
      <trkpt lat="45.99984" lon="4.51446">
        <ele>600</ele>
        <time>2014-03-09T11:15:02Z</time>
      </trkpt>
      <trkpt lat="45.99986" lon="4.51455">
        <ele>599.04</ele>
        <time>2014-03-09T11:15:06Z</time>
      </trkpt>
      <trkpt lat="45.99987" lon="4.51474">
        <ele>597.6</ele>
        <time>2014-03-09T11:15:14Z</time>
      </trkpt>
      <trkpt lat="45.99985" lon="4.51491">
        <ele>597.6</ele>
        <time>2014-03-09T11:15:20Z</time>
      </trkpt>
      <trkpt lat="45.9998" lon="4.51526">
        <ele>595.67</ele>
        <time>2014-03-09T11:15:32Z</time>
      </trkpt>
      <trkpt lat="45.9998" lon="4.51559">
        <ele>595.67</ele>
        <time>2014-03-09T11:15:41Z</time>
      </trkpt>
      <trkpt lat="45.99982" lon="4.51595">
        <ele>594.71</ele>
        <time>2014-03-09T11:15:51Z</time>
      </trkpt>
      <trkpt lat="45.99989" lon="4.51636">
        <ele>592.31</ele>
        <time>2014-03-09T11:16:01Z</time>
      </trkpt>
      <trkpt lat="46" lon="4.51674">
        <ele>588.95</ele>
        <time>2014-03-09T11:16:11Z</time>
      </trkpt>
      <trkpt lat="46.00011" lon="4.51691">
        <ele>588.46</ele>
        <time>2014-03-09T11:16:18Z</time>
      </trkpt>
      <trkpt lat="46.00028" lon="4.51708">
        <ele>587.98</ele>
        <time>2014-03-09T11:16:27Z</time>
      </trkpt>
      <trkpt lat="46.00052" lon="4.51726">
        <ele>587.98</ele>
        <time>2014-03-09T11:16:36Z</time>
      </trkpt>
      <trkpt lat="46.0006" lon="4.51731">
        <ele>587.98</ele>
        <time>2014-03-09T11:16:40Z</time>
      </trkpt>
      <trkpt lat="46.00078" lon="4.51754">
        <ele>587.5</ele>
        <time>2014-03-09T11:16:49Z</time>
      </trkpt>
      <trkpt lat="46.001" lon="4.51786">
        <ele>583.66</ele>
        <time>2014-03-09T11:16:59Z</time>
      </trkpt>
      <trkpt lat="46.00105" lon="4.51794">
        <ele>583.18</ele>
        <time>2014-03-09T11:17:01Z</time>
      </trkpt>
      <trkpt lat="46.00112" lon="4.51816">
        <ele>580.29</ele>
        <time>2014-03-09T11:17:05Z</time>
      </trkpt>
      <trkpt lat="46.00112" lon="4.51843">
        <ele>576.93</ele>
        <time>2014-03-09T11:17:11Z</time>
      </trkpt>
      <trkpt lat="46.00099" lon="4.51868">
        <ele>574.04</ele>
        <time>2014-03-09T11:17:16Z</time>
      </trkpt>
      <trkpt lat="46.00095" lon="4.51873">
        <ele>573.56</ele>
        <time>2014-03-09T11:17:17Z</time>
      </trkpt>
      <trkpt lat="46.00092" lon="4.51879">
        <ele>573.56</ele>
        <time>2014-03-09T11:17:18Z</time>
      </trkpt>
      <trkpt lat="46.0009" lon="4.51884">
        <ele>573.08</ele>
        <time>2014-03-09T11:17:19Z</time>
      </trkpt>
      <trkpt lat="46.00088" lon="4.51889">
        <ele>573.56</ele>
        <time>2014-03-09T11:17:20Z</time>
      </trkpt>
      <trkpt lat="46.00087" lon="4.51894">
        <ele>573.56</ele>
        <time>2014-03-09T11:17:21Z</time>
      </trkpt>
      <trkpt lat="46.00086" lon="4.51899">
        <ele>573.08</ele>
        <time>2014-03-09T11:17:22Z</time>
      </trkpt>
      <trkpt lat="46.00087" lon="4.51913">
        <ele>573.56</ele>
        <time>2014-03-09T11:17:25Z</time>
      </trkpt>
      <trkpt lat="46.00088" lon="4.51917">
        <ele>574.04</ele>
        <time>2014-03-09T11:17:26Z</time>
      </trkpt>
      <trkpt lat="46.00089" lon="4.5192">
        <ele>573.56</ele>
        <time>2014-03-09T11:17:27Z</time>
      </trkpt>
      <trkpt lat="46.00089" lon="4.51924">
        <ele>574.04</ele>
        <time>2014-03-09T11:17:28Z</time>
      </trkpt>
      <trkpt lat="46.0009" lon="4.51928">
        <ele>574.53</ele>
        <time>2014-03-09T11:17:29Z</time>
      </trkpt>
      <trkpt lat="46.0009" lon="4.51932">
        <ele>574.04</ele>
        <time>2014-03-09T11:17:30Z</time>
      </trkpt>
      <trkpt lat="46.00091" lon="4.51937">
        <ele>574.04</ele>
        <time>2014-03-09T11:17:31Z</time>
      </trkpt>
      <trkpt lat="46.00092" lon="4.51941">
        <ele>574.53</ele>
        <time>2014-03-09T11:17:32Z</time>
      </trkpt>
      <trkpt lat="46.00093" lon="4.51945">
        <ele>574.04</ele>
        <time>2014-03-09T11:17:33Z</time>
      </trkpt>
      <trkpt lat="46.00099" lon="4.51964">
        <ele>575.01</ele>
        <time>2014-03-09T11:17:39Z</time>
      </trkpt>
      <trkpt lat="46.001" lon="4.51967">
        <ele>575.49</ele>
        <time>2014-03-09T11:17:46Z</time>
      </trkpt>
      <trkpt lat="46.00103" lon="4.51979">
        <ele>576.93</ele>
        <time>2014-03-09T11:17:53Z</time>
      </trkpt>
      <trkpt lat="46.00104" lon="4.51991">
        <ele>577.89</ele>
        <time>2014-03-09T11:18:02Z</time>
      </trkpt>
      <trkpt lat="46.00108" lon="4.52003">
        <ele>579.81</ele>
        <time>2014-03-09T11:18:12Z</time>
      </trkpt>
      <trkpt lat="46.00109" lon="4.52017">
        <ele>580.29</ele>
        <time>2014-03-09T11:18:22Z</time>
      </trkpt>
      <trkpt lat="46.00109" lon="4.52026">
        <ele>580.77</ele>
        <time>2014-03-09T11:18:28Z</time>
      </trkpt>
      <trkpt lat="46.00108" lon="4.52041">
        <ele>582.22</ele>
        <time>2014-03-09T11:18:39Z</time>
      </trkpt>
      <trkpt lat="46.00107" lon="4.52051">
        <ele>582.7</ele>
        <time>2014-03-09T11:18:49Z</time>
      </trkpt>
      <trkpt lat="46.00103" lon="4.5206">
        <ele>583.18</ele>
        <time>2014-03-09T11:18:57Z</time>
      </trkpt>
      <trkpt lat="46.00102" lon="4.52064">
        <ele>583.66</ele>
        <time>2014-03-09T11:18:59Z</time>
      </trkpt>
      <trkpt lat="46.00093" lon="4.52084">
        <ele>585.1</ele>
        <time>2014-03-09T11:19:10Z</time>
      </trkpt>
      <trkpt lat="46.00092" lon="4.52087">
        <ele>585.1</ele>
        <time>2014-03-09T11:19:20Z</time>
      </trkpt>
      <trkpt lat="46.00091" lon="4.52088">
        <ele>585.58</ele>
        <time>2014-03-09T11:19:32Z</time>
      </trkpt>
      <trkpt lat="46.00091" lon="4.52088">
        <ele>579.81</ele>
        <time>2014-03-09T11:19:36Z</time>
      </trkpt>
      <trkpt lat="46.00091" lon="4.52088">
        <ele>582.22</ele>
        <time>2014-03-09T11:19:37Z</time>
      </trkpt>
      <trkpt lat="46.00091" lon="4.52088">
        <ele>587.5</ele>
        <time>2014-03-09T11:19:38Z</time>
      </trkpt>
      <trkpt lat="46.00091" lon="4.52088">
        <ele>582.22</ele>
        <time>2014-03-09T11:19:39Z</time>
      </trkpt>
      <trkpt lat="46.00091" lon="4.52088">
        <ele>586.06</ele>
        <time>2014-03-09T11:19:40Z</time>
      </trkpt>
      <trkpt lat="46.00088" lon="4.52093">
        <ele>586.54</ele>
        <time>2014-03-09T11:19:51Z</time>
      </trkpt>
      <trkpt lat="46.00088" lon="4.52093">
        <ele>586.54</ele>
        <time>2014-03-09T11:20:03Z</time>
      </trkpt>
      <trkpt lat="46.00088" lon="4.52093">
        <ele>590.87</ele>
        <time>2014-03-09T11:20:23Z</time>
      </trkpt>
      <trkpt lat="46.00088" lon="4.52093">
        <ele>588.46</ele>
        <time>2014-03-09T11:20:24Z</time>
      </trkpt>
      <trkpt lat="46.00088" lon="4.52093">
        <ele>587.02</ele>
        <time>2014-03-09T11:20:26Z</time>
      </trkpt>
      <trkpt lat="46.00088" lon="4.52093">
        <ele>586.06</ele>
        <time>2014-03-09T11:20:39Z</time>
      </trkpt>
      <trkpt lat="46.00088" lon="4.52093">
        <ele>586.06</ele>
        <time>2014-03-09T11:21:00Z</time>
      </trkpt>
      <trkpt lat="46.00088" lon="4.52093">
        <ele>586.06</ele>
        <time>2014-03-09T11:21:30Z</time>
      </trkpt>
      <trkpt lat="46.00088" lon="4.52093">
        <ele>588.95</ele>
        <time>2014-03-09T11:21:40Z</time>
      </trkpt>
      <trkpt lat="46.00088" lon="4.52093">
        <ele>583.66</ele>
        <time>2014-03-09T11:21:42Z</time>
      </trkpt>
      <trkpt lat="46.00088" lon="4.52093">
        <ele>584.14</ele>
        <time>2014-03-09T11:21:43Z</time>
      </trkpt>
      <trkpt lat="46.00088" lon="4.52093">
        <ele>587.5</ele>
        <time>2014-03-09T11:21:44Z</time>
      </trkpt>
      <trkpt lat="46.00088" lon="4.52093">
        <ele>587.02</ele>
        <time>2014-03-09T11:21:45Z</time>
      </trkpt>
      <trkpt lat="46.00088" lon="4.52093">
        <ele>582.7</ele>
        <time>2014-03-09T11:21:46Z</time>
      </trkpt>
      <trkpt lat="46.00088" lon="4.52093">
        <ele>588.46</ele>
        <time>2014-03-09T11:21:47Z</time>
      </trkpt>
      <trkpt lat="46.00088" lon="4.52093">
        <ele>587.02</ele>
        <time>2014-03-09T11:21:50Z</time>
      </trkpt>
      <trkpt lat="46.00088" lon="4.52093">
        <ele>587.02</ele>
        <time>2014-03-09T11:21:57Z</time>
      </trkpt>
      <trkpt lat="46.00088" lon="4.52093">
        <ele>590.39</ele>
        <time>2014-03-09T11:21:59Z</time>
      </trkpt>
      <trkpt lat="46.00088" lon="4.52093">
        <ele>587.02</ele>
        <time>2014-03-09T11:22:00Z</time>
      </trkpt>
      <trkpt lat="46.00088" lon="4.52093">
        <ele>586.54</ele>
        <time>2014-03-09T11:22:09Z</time>
      </trkpt>
      <trkpt lat="46.00085" lon="4.52099">
        <ele>587.02</ele>
        <time>2014-03-09T11:22:20Z</time>
      </trkpt>
      <trkpt lat="46.00085" lon="4.52099">
        <ele>582.7</ele>
        <time>2014-03-09T11:22:34Z</time>
      </trkpt>
      <trkpt lat="46.00085" lon="4.52099">
        <ele>584.14</ele>
        <time>2014-03-09T11:22:35Z</time>
      </trkpt>
      <trkpt lat="46.00085" lon="4.52099">
        <ele>587.5</ele>
        <time>2014-03-09T11:22:36Z</time>
      </trkpt>
      <trkpt lat="46.00085" lon="4.52099">
        <ele>583.66</ele>
        <time>2014-03-09T11:22:39Z</time>
      </trkpt>
      <trkpt lat="46.00085" lon="4.52099">
        <ele>588.46</ele>
        <time>2014-03-09T11:22:41Z</time>
      </trkpt>
      <trkpt lat="46.00085" lon="4.52099">
        <ele>584.62</ele>
        <time>2014-03-09T11:22:42Z</time>
      </trkpt>
      <trkpt lat="46.00085" lon="4.52099">
        <ele>588.46</ele>
        <time>2014-03-09T11:22:44Z</time>
      </trkpt>
      <trkpt lat="46.00085" lon="4.521">
        <ele>586.54</ele>
        <time>2014-03-09T11:23:06Z</time>
      </trkpt>
      <trkpt lat="46.00085" lon="4.521">
        <ele>585.1</ele>
        <time>2014-03-09T11:23:26Z</time>
      </trkpt>
      <trkpt lat="46.00084" lon="4.521">
        <ele>586.54</ele>
        <time>2014-03-09T11:23:43Z</time>
      </trkpt>
      <trkpt lat="46.00084" lon="4.521">
        <ele>587.02</ele>
        <time>2014-03-09T11:24:01Z</time>
      </trkpt>
      <trkpt lat="46.00084" lon="4.52101">
        <ele>586.06</ele>
        <time>2014-03-09T11:24:13Z</time>
      </trkpt>
      <trkpt lat="46.00084" lon="4.52103">
        <ele>586.54</ele>
        <time>2014-03-09T11:24:25Z</time>
      </trkpt>
      <trkpt lat="46.00083" lon="4.5211">
        <ele>585.58</ele>
        <time>2014-03-09T11:24:29Z</time>
      </trkpt>
      <trkpt lat="46.00083" lon="4.52116">
        <ele>585.58</ele>
        <time>2014-03-09T11:24:36Z</time>
      </trkpt>
      <trkpt lat="46.00076" lon="4.52123">
        <ele>585.1</ele>
        <time>2014-03-09T11:24:45Z</time>
      </trkpt>
      <trkpt lat="46.00073" lon="4.5213">
        <ele>586.06</ele>
        <time>2014-03-09T11:24:57Z</time>
      </trkpt>
      <trkpt lat="46.00069" lon="4.52136">
        <ele>586.06</ele>
        <time>2014-03-09T11:25:06Z</time>
      </trkpt>
      <trkpt lat="46.00066" lon="4.52139">
        <ele>586.06</ele>
        <time>2014-03-09T11:25:16Z</time>
      </trkpt>
      <trkpt lat="46.00066" lon="4.52139">
        <ele>587.5</ele>
        <time>2014-03-09T11:25:25Z</time>
      </trkpt>
      <trkpt lat="46.00063" lon="4.52141">
        <ele>588.95</ele>
        <time>2014-03-09T11:25:36Z</time>
      </trkpt>
      <trkpt lat="46.00062" lon="4.52142">
        <ele>590.39</ele>
        <time>2014-03-09T11:25:44Z</time>
      </trkpt>
      <trkpt lat="46.00058" lon="4.52144">
        <ele>589.91</ele>
        <time>2014-03-09T11:25:54Z</time>
      </trkpt>
      <trkpt lat="46.00057" lon="4.52147">
        <ele>590.39</ele>
        <time>2014-03-09T11:26:03Z</time>
      </trkpt>
      <trkpt lat="46.00057" lon="4.52147">
        <ele>590.39</ele>
        <time>2014-03-09T11:26:13Z</time>
      </trkpt>
      <trkpt lat="46.00057" lon="4.52147">
        <ele>589.43</ele>
        <time>2014-03-09T11:26:31Z</time>
      </trkpt>
      <trkpt lat="46.00054" lon="4.52148">
        <ele>589.43</ele>
        <time>2014-03-09T11:26:38Z</time>
      </trkpt>
      <trkpt lat="46.00052" lon="4.52151">
        <ele>590.39</ele>
        <time>2014-03-09T11:26:48Z</time>
      </trkpt>
      <trkpt lat="46.00051" lon="4.5215">
        <ele>591.83</ele>
        <time>2014-03-09T11:26:57Z</time>
      </trkpt>
      <trkpt lat="46.00047" lon="4.52156">
        <ele>592.31</ele>
        <time>2014-03-09T11:27:07Z</time>
      </trkpt>
      <trkpt lat="46.00043" lon="4.5216">
        <ele>591.83</ele>
        <time>2014-03-09T11:27:17Z</time>
      </trkpt>
      <trkpt lat="46.00042" lon="4.52162">
        <ele>592.79</ele>
        <time>2014-03-09T11:27:19Z</time>
      </trkpt>
      <trkpt lat="46.0004" lon="4.52165">
        <ele>594.71</ele>
        <time>2014-03-09T11:27:28Z</time>
      </trkpt>
      <trkpt lat="46.00039" lon="4.52166">
        <ele>589.91</ele>
        <time>2014-03-09T11:27:37Z</time>
      </trkpt>
      <trkpt lat="46.00039" lon="4.52166">
        <ele>595.67</ele>
        <time>2014-03-09T11:27:38Z</time>
      </trkpt>
      <trkpt lat="46.00039" lon="4.52166">
        <ele>594.23</ele>
        <time>2014-03-09T11:27:50Z</time>
      </trkpt>
      <trkpt lat="46.00038" lon="4.52167">
        <ele>595.67</ele>
        <time>2014-03-09T11:28:01Z</time>
      </trkpt>
      <trkpt lat="46.00035" lon="4.52169">
        <ele>595.67</ele>
        <time>2014-03-09T11:28:02Z</time>
      </trkpt>
      <trkpt lat="46.00032" lon="4.52174">
        <ele>596.64</ele>
        <time>2014-03-09T11:28:11Z</time>
      </trkpt>
      <trkpt lat="46.00029" lon="4.5218">
        <ele>596.64</ele>
        <time>2014-03-09T11:28:23Z</time>
      </trkpt>
      <trkpt lat="46.00025" lon="4.52186">
        <ele>598.08</ele>
        <time>2014-03-09T11:28:33Z</time>
      </trkpt>
      <trkpt lat="46.00025" lon="4.52186">
        <ele>598.56</ele>
        <time>2014-03-09T11:28:51Z</time>
      </trkpt>
      <trkpt lat="46.00025" lon="4.52186">
        <ele>593.75</ele>
        <time>2014-03-09T11:29:05Z</time>
      </trkpt>
      <trkpt lat="46.00025" lon="4.52186">
        <ele>599.04</ele>
        <time>2014-03-09T11:29:06Z</time>
      </trkpt>
      <trkpt lat="46.00024" lon="4.52186">
        <ele>598.08</ele>
        <time>2014-03-09T11:29:20Z</time>
      </trkpt>
      <trkpt lat="46.00024" lon="4.52186">
        <ele>598.08</ele>
        <time>2014-03-09T11:29:41Z</time>
      </trkpt>
      <trkpt lat="46.00023" lon="4.52186">
        <ele>598.56</ele>
        <time>2014-03-09T11:30:01Z</time>
      </trkpt>
      <trkpt lat="46.00023" lon="4.52186">
        <ele>598.56</ele>
        <time>2014-03-09T11:30:16Z</time>
      </trkpt>
      <trkpt lat="46.00023" lon="4.52186">
        <ele>594.23</ele>
        <time>2014-03-09T11:30:20Z</time>
      </trkpt>
      <trkpt lat="46.00023" lon="4.52186">
        <ele>599.04</ele>
        <time>2014-03-09T11:30:21Z</time>
      </trkpt>
      <trkpt lat="46.00022" lon="4.52187">
        <ele>598.56</ele>
        <time>2014-03-09T11:30:33Z</time>
      </trkpt>
      <trkpt lat="46.00021" lon="4.52191">
        <ele>599.04</ele>
        <time>2014-03-09T11:30:44Z</time>
      </trkpt>
      <trkpt lat="46.00019" lon="4.52193">
        <ele>599.52</ele>
        <time>2014-03-09T11:30:52Z</time>
      </trkpt>
      <trkpt lat="46.00018" lon="4.52195">
        <ele>601.44</ele>
        <time>2014-03-09T11:31:02Z</time>
      </trkpt>
      <trkpt lat="46.00018" lon="4.52196">
        <ele>601.92</ele>
        <time>2014-03-09T11:31:12Z</time>
      </trkpt>
      <trkpt lat="46.00018" lon="4.52196">
        <ele>603.36</ele>
        <time>2014-03-09T11:31:25Z</time>
      </trkpt>
      <trkpt lat="46.00013" lon="4.52202">
        <ele>604.81</ele>
        <time>2014-03-09T11:31:36Z</time>
      </trkpt>
      <trkpt lat="46.00013" lon="4.52202">
        <ele>605.77</ele>
        <time>2014-03-09T11:31:47Z</time>
      </trkpt>
      <trkpt lat="46.00006" lon="4.52209">
        <ele>607.21</ele>
        <time>2014-03-09T11:31:56Z</time>
      </trkpt>
      <trkpt lat="46.00004" lon="4.5221">
        <ele>607.21</ele>
        <time>2014-03-09T11:32:10Z</time>
      </trkpt>
      <trkpt lat="46.00004" lon="4.5221">
        <ele>608.65</ele>
        <time>2014-03-09T11:32:20Z</time>
      </trkpt>
      <trkpt lat="46.00004" lon="4.5221">
        <ele>609.61</ele>
        <time>2014-03-09T11:32:33Z</time>
      </trkpt>
      <trkpt lat="46.00003" lon="4.52212">
        <ele>610.09</ele>
        <time>2014-03-09T11:32:45Z</time>
      </trkpt>
      <trkpt lat="46.00001" lon="4.52214">
        <ele>611.54</ele>
        <time>2014-03-09T11:32:59Z</time>
      </trkpt>
      <trkpt lat="45.99999" lon="4.52215">
        <ele>612.98</ele>
        <time>2014-03-09T11:33:09Z</time>
      </trkpt>
      <trkpt lat="45.99997" lon="4.52216">
        <ele>613.94</ele>
        <time>2014-03-09T11:33:26Z</time>
      </trkpt>
      <trkpt lat="45.99997" lon="4.52216">
        <ele>614.42</ele>
        <time>2014-03-09T11:33:41Z</time>
      </trkpt>
      <trkpt lat="45.99994" lon="4.52218">
        <ele>615.86</ele>
        <time>2014-03-09T11:33:51Z</time>
      </trkpt>
      <trkpt lat="45.99989" lon="4.52218">
        <ele>617.78</ele>
        <time>2014-03-09T11:34:02Z</time>
      </trkpt>
      <trkpt lat="45.99984" lon="4.5222">
        <ele>619.71</ele>
        <time>2014-03-09T11:34:13Z</time>
      </trkpt>
      <trkpt lat="45.99979" lon="4.5222">
        <ele>620.67</ele>
        <time>2014-03-09T11:34:22Z</time>
      </trkpt>
      <trkpt lat="45.99972" lon="4.52222">
        <ele>622.59</ele>
        <time>2014-03-09T11:34:32Z</time>
      </trkpt>
      <trkpt lat="45.99968" lon="4.52226">
        <ele>624.03</ele>
        <time>2014-03-09T11:34:44Z</time>
      </trkpt>
      <trkpt lat="45.99967" lon="4.52227">
        <ele>624.03</ele>
        <time>2014-03-09T11:34:55Z</time>
      </trkpt>
      <trkpt lat="45.99965" lon="4.52228">
        <ele>625.47</ele>
        <time>2014-03-09T11:35:07Z</time>
      </trkpt>
      <trkpt lat="45.99954" lon="4.52242">
        <ele>625.96</ele>
        <time>2014-03-09T11:35:17Z</time>
      </trkpt>
      <trkpt lat="45.99952" lon="4.52248">
        <ele>627.4</ele>
        <time>2014-03-09T11:35:25Z</time>
      </trkpt>
      <trkpt lat="45.99951" lon="4.5225">
        <ele>627.4</ele>
        <time>2014-03-09T11:35:38Z</time>
      </trkpt>
      <trkpt lat="45.9995" lon="4.52252">
        <ele>627.88</ele>
        <time>2014-03-09T11:35:51Z</time>
      </trkpt>
      <trkpt lat="45.99949" lon="4.52253">
        <ele>628.84</ele>
        <time>2014-03-09T11:36:04Z</time>
      </trkpt>
      <trkpt lat="45.99948" lon="4.52251">
        <ele>629.32</ele>
        <time>2014-03-09T11:36:13Z</time>
      </trkpt>
      <trkpt lat="45.99944" lon="4.52247">
        <ele>630.76</ele>
        <time>2014-03-09T11:36:24Z</time>
      </trkpt>
      <trkpt lat="45.99938" lon="4.52246">
        <ele>632.68</ele>
        <time>2014-03-09T11:36:34Z</time>
      </trkpt>
      <trkpt lat="45.99931" lon="4.52247">
        <ele>634.61</ele>
        <time>2014-03-09T11:36:44Z</time>
      </trkpt>
      <trkpt lat="45.99927" lon="4.52252">
        <ele>635.09</ele>
        <time>2014-03-09T11:36:55Z</time>
      </trkpt>
      <trkpt lat="45.99926" lon="4.52258">
        <ele>635.57</ele>
        <time>2014-03-09T11:37:04Z</time>
      </trkpt>
      <trkpt lat="45.99924" lon="4.52263">
        <ele>635.57</ele>
        <time>2014-03-09T11:37:13Z</time>
      </trkpt>
      <trkpt lat="45.99924" lon="4.52263">
        <ele>639.89</ele>
        <time>2014-03-09T11:37:20Z</time>
      </trkpt>
      <trkpt lat="45.99924" lon="4.52263">
        <ele>635.57</ele>
        <time>2014-03-09T11:37:21Z</time>
      </trkpt>
      <trkpt lat="45.9992" lon="4.52264">
        <ele>635.09</ele>
        <time>2014-03-09T11:37:38Z</time>
      </trkpt>
      <trkpt lat="45.9992" lon="4.52265">
        <ele>635.57</ele>
        <time>2014-03-09T11:37:54Z</time>
      </trkpt>
      <trkpt lat="45.99915" lon="4.5227">
        <ele>637.01</ele>
        <time>2014-03-09T11:38:05Z</time>
      </trkpt>
      <trkpt lat="45.99913" lon="4.52272">
        <ele>636.53</ele>
        <time>2014-03-09T11:38:12Z</time>
      </trkpt>
      <trkpt lat="45.99909" lon="4.52276">
        <ele>637.97</ele>
        <time>2014-03-09T11:38:20Z</time>
      </trkpt>
      <trkpt lat="45.99907" lon="4.52278">
        <ele>637.49</ele>
        <time>2014-03-09T11:38:22Z</time>
      </trkpt>
      <trkpt lat="45.99898" lon="4.52288">
        <ele>638.45</ele>
        <time>2014-03-09T11:38:34Z</time>
      </trkpt>
      <trkpt lat="45.99891" lon="4.52297">
        <ele>638.93</ele>
        <time>2014-03-09T11:38:45Z</time>
      </trkpt>
      <trkpt lat="45.99884" lon="4.52302">
        <ele>638.93</ele>
        <time>2014-03-09T11:38:55Z</time>
      </trkpt>
      <trkpt lat="45.99879" lon="4.52305">
        <ele>639.41</ele>
        <time>2014-03-09T11:39:06Z</time>
      </trkpt>
      <trkpt lat="45.99879" lon="4.52305">
        <ele>639.41</ele>
        <time>2014-03-09T11:39:17Z</time>
      </trkpt>
      <trkpt lat="45.99879" lon="4.52305">
        <ele>637.49</ele>
        <time>2014-03-09T11:39:31Z</time>
      </trkpt>
      <trkpt lat="45.99879" lon="4.52305">
        <ele>639.41</ele>
        <time>2014-03-09T11:39:49Z</time>
      </trkpt>
      <trkpt lat="45.99879" lon="4.52305">
        <ele>638.93</ele>
        <time>2014-03-09T11:40:01Z</time>
      </trkpt>
      <trkpt lat="45.99879" lon="4.52305">
        <ele>638.45</ele>
        <time>2014-03-09T11:40:13Z</time>
      </trkpt>
      <trkpt lat="45.99879" lon="4.52305">
        <ele>638.45</ele>
        <time>2014-03-09T11:40:32Z</time>
      </trkpt>
      <trkpt lat="45.99879" lon="4.52305">
        <ele>638.93</ele>
        <time>2014-03-09T11:40:50Z</time>
      </trkpt>
      <trkpt lat="45.99878" lon="4.52305">
        <ele>638.45</ele>
        <time>2014-03-09T11:41:11Z</time>
      </trkpt>
      <trkpt lat="45.99878" lon="4.52305">
        <ele>638.93</ele>
        <time>2014-03-09T11:41:22Z</time>
      </trkpt>
      <trkpt lat="45.99878" lon="4.52305">
        <ele>635.09</ele>
        <time>2014-03-09T11:41:43Z</time>
      </trkpt>
      <trkpt lat="45.99878" lon="4.52305">
        <ele>640.38</ele>
        <time>2014-03-09T11:41:44Z</time>
      </trkpt>
      <trkpt lat="45.99878" lon="4.52305">
        <ele>636.53</ele>
        <time>2014-03-09T11:41:49Z</time>
      </trkpt>
      <trkpt lat="45.99878" lon="4.52305">
        <ele>640.38</ele>
        <time>2014-03-09T11:41:50Z</time>
      </trkpt>
      <trkpt lat="45.99878" lon="4.52305">
        <ele>633.65</ele>
        <time>2014-03-09T11:42:00Z</time>
      </trkpt>
      <trkpt lat="45.99878" lon="4.52305">
        <ele>642.78</ele>
        <time>2014-03-09T11:42:01Z</time>
      </trkpt>
      <trkpt lat="45.99878" lon="4.52305">
        <ele>639.89</ele>
        <time>2014-03-09T11:42:02Z</time>
      </trkpt>
      <trkpt lat="45.99878" lon="4.52305">
        <ele>638.93</ele>
        <time>2014-03-09T11:42:04Z</time>
      </trkpt>
      <trkpt lat="45.99879" lon="4.52306">
        <ele>639.41</ele>
        <time>2014-03-09T11:42:28Z</time>
      </trkpt>
      <trkpt lat="45.99879" lon="4.52306">
        <ele>638.93</ele>
        <time>2014-03-09T11:42:49Z</time>
      </trkpt>
      <trkpt lat="45.99878" lon="4.52307">
        <ele>638.93</ele>
        <time>2014-03-09T11:43:01Z</time>
      </trkpt>
      <trkpt lat="45.99878" lon="4.52307">
        <ele>639.41</ele>
        <time>2014-03-09T11:43:23Z</time>
      </trkpt>
      <trkpt lat="45.99878" lon="4.52307">
        <ele>639.41</ele>
        <time>2014-03-09T11:43:43Z</time>
      </trkpt>
      <trkpt lat="45.99878" lon="4.52307">
        <ele>636.05</ele>
        <time>2014-03-09T11:43:51Z</time>
      </trkpt>
      <trkpt lat="45.99878" lon="4.52307">
        <ele>639.41</ele>
        <time>2014-03-09T11:43:52Z</time>
      </trkpt>
      <trkpt lat="45.99878" lon="4.52307">
        <ele>638.93</ele>
        <time>2014-03-09T11:44:17Z</time>
      </trkpt>
      <trkpt lat="45.99878" lon="4.52307">
        <ele>638.45</ele>
        <time>2014-03-09T11:44:31Z</time>
      </trkpt>
      <trkpt lat="45.99878" lon="4.52307">
        <ele>638.93</ele>
        <time>2014-03-09T11:44:35Z</time>
      </trkpt>
      <trkpt lat="45.99883" lon="4.52333">
        <ele>637.01</ele>
        <time>2014-03-09T11:44:43Z</time>
      </trkpt>
      <trkpt lat="45.99885" lon="4.52343">
        <ele>635.57</ele>
        <time>2014-03-09T11:44:45Z</time>
      </trkpt>
      <trkpt lat="45.99891" lon="4.52378">
        <ele>633.17</ele>
        <time>2014-03-09T11:44:54Z</time>
      </trkpt>
      <trkpt lat="45.99891" lon="4.52378">
        <ele>633.17</ele>
        <time>2014-03-09T11:45:05Z</time>
      </trkpt>
      <trkpt lat="45.99891" lon="4.52378">
        <ele>633.65</ele>
        <time>2014-03-09T11:45:13Z</time>
      </trkpt>
      <trkpt lat="45.99891" lon="4.52378">
        <ele>633.65</ele>
        <time>2014-03-09T11:45:35Z</time>
      </trkpt>
      <trkpt lat="45.99891" lon="4.52378">
        <ele>634.13</ele>
        <time>2014-03-09T11:45:49Z</time>
      </trkpt>
      <trkpt lat="45.99891" lon="4.52379">
        <ele>633.65</ele>
        <time>2014-03-09T11:45:59Z</time>
      </trkpt>
      <trkpt lat="45.9988" lon="4.52362">
        <ele>632.68</ele>
        <time>2014-03-09T11:46:09Z</time>
      </trkpt>
      <trkpt lat="45.99878" lon="4.5236">
        <ele>633.17</ele>
        <time>2014-03-09T11:46:10Z</time>
      </trkpt>
      <trkpt lat="45.99844" lon="4.52339">
        <ele>630.76</ele>
        <time>2014-03-09T11:46:20Z</time>
      </trkpt>
      <trkpt lat="45.99826" lon="4.52334">
        <ele>628.84</ele>
        <time>2014-03-09T11:46:24Z</time>
      </trkpt>
      <trkpt lat="45.99817" lon="4.52333">
        <ele>627.88</ele>
        <time>2014-03-09T11:46:26Z</time>
      </trkpt>
      <trkpt lat="45.99802" lon="4.5233">
        <ele>624.99</ele>
        <time>2014-03-09T11:46:29Z</time>
      </trkpt>
      <trkpt lat="45.99793" lon="4.52328">
        <ele>623.55</ele>
        <time>2014-03-09T11:46:31Z</time>
      </trkpt>
      <trkpt lat="45.99788" lon="4.5233">
        <ele>622.59</ele>
        <time>2014-03-09T11:46:32Z</time>
      </trkpt>
      <trkpt lat="45.99783" lon="4.52332">
        <ele>621.15</ele>
        <time>2014-03-09T11:46:33Z</time>
      </trkpt>
      <trkpt lat="45.99778" lon="4.52334">
        <ele>620.67</ele>
        <time>2014-03-09T11:46:34Z</time>
      </trkpt>
      <trkpt lat="45.99773" lon="4.52336">
        <ele>619.71</ele>
        <time>2014-03-09T11:46:35Z</time>
      </trkpt>
      <trkpt lat="45.99758" lon="4.52342">
        <ele>617.78</ele>
        <time>2014-03-09T11:46:38Z</time>
      </trkpt>
      <trkpt lat="45.99752" lon="4.52343">
        <ele>616.34</ele>
        <time>2014-03-09T11:46:39Z</time>
      </trkpt>
      <trkpt lat="45.99747" lon="4.52344">
        <ele>614.9</ele>
        <time>2014-03-09T11:46:40Z</time>
      </trkpt>
      <trkpt lat="45.99741" lon="4.52343">
        <ele>614.42</ele>
        <time>2014-03-09T11:46:41Z</time>
      </trkpt>
      <trkpt lat="45.99736" lon="4.52343">
        <ele>613.46</ele>
        <time>2014-03-09T11:46:42Z</time>
      </trkpt>
      <trkpt lat="45.99732" lon="4.52342">
        <ele>612.02</ele>
        <time>2014-03-09T11:46:43Z</time>
      </trkpt>
      <trkpt lat="45.99727" lon="4.5234">
        <ele>611.54</ele>
        <time>2014-03-09T11:46:44Z</time>
      </trkpt>
      <trkpt lat="45.99716" lon="4.52332">
        <ele>610.57</ele>
        <time>2014-03-09T11:46:47Z</time>
      </trkpt>
      <trkpt lat="45.99712" lon="4.52328">
        <ele>610.09</ele>
        <time>2014-03-09T11:46:48Z</time>
      </trkpt>
      <trkpt lat="45.99709" lon="4.52323">
        <ele>609.13</ele>
        <time>2014-03-09T11:46:49Z</time>
      </trkpt>
      <trkpt lat="45.99707" lon="4.52318">
        <ele>608.65</ele>
        <time>2014-03-09T11:46:50Z</time>
      </trkpt>
      <trkpt lat="45.99706" lon="4.52312">
        <ele>609.13</ele>
        <time>2014-03-09T11:46:51Z</time>
      </trkpt>
      <trkpt lat="45.99706" lon="4.52306">
        <ele>608.17</ele>
        <time>2014-03-09T11:46:52Z</time>
      </trkpt>
      <trkpt lat="45.99706" lon="4.52301">
        <ele>607.69</ele>
        <time>2014-03-09T11:46:53Z</time>
      </trkpt>
      <trkpt lat="45.99704" lon="4.52298">
        <ele>607.69</ele>
        <time>2014-03-09T11:46:54Z</time>
      </trkpt>
      <trkpt lat="45.99701" lon="4.52298">
        <ele>607.21</ele>
        <time>2014-03-09T11:46:55Z</time>
      </trkpt>
      <trkpt lat="45.99699" lon="4.52301">
        <ele>606.25</ele>
        <time>2014-03-09T11:46:56Z</time>
      </trkpt>
      <trkpt lat="45.99698" lon="4.52305">
        <ele>605.77</ele>
        <time>2014-03-09T11:46:57Z</time>
      </trkpt>
      <trkpt lat="45.99698" lon="4.5231">
        <ele>605.77</ele>
        <time>2014-03-09T11:46:58Z</time>
      </trkpt>
      <trkpt lat="45.99697" lon="4.52314">
        <ele>605.29</ele>
        <time>2014-03-09T11:46:59Z</time>
      </trkpt>
      <trkpt lat="45.99694" lon="4.52323">
        <ele>604.33</ele>
        <time>2014-03-09T11:47:05Z</time>
      </trkpt>
      <trkpt lat="45.99694" lon="4.52323">
        <ele>604.81</ele>
        <time>2014-03-09T11:47:18Z</time>
      </trkpt>
      <trkpt lat="45.99693" lon="4.52327">
        <ele>603.85</ele>
        <time>2014-03-09T11:47:30Z</time>
      </trkpt>
      <trkpt lat="45.99693" lon="4.52341">
        <ele>603.36</ele>
        <time>2014-03-09T11:47:33Z</time>
      </trkpt>
      <trkpt lat="45.99695" lon="4.52348">
        <ele>603.36</ele>
        <time>2014-03-09T11:47:34Z</time>
      </trkpt>
      <trkpt lat="45.99698" lon="4.52353">
        <ele>603.36</ele>
        <time>2014-03-09T11:47:35Z</time>
      </trkpt>
      <trkpt lat="45.99702" lon="4.52359">
        <ele>602.4</ele>
        <time>2014-03-09T11:47:36Z</time>
      </trkpt>
      <trkpt lat="45.99706" lon="4.52364">
        <ele>601.44</ele>
        <time>2014-03-09T11:47:37Z</time>
      </trkpt>
      <trkpt lat="45.99711" lon="4.52368">
        <ele>601.44</ele>
        <time>2014-03-09T11:47:38Z</time>
      </trkpt>
      <trkpt lat="45.99716" lon="4.52371">
        <ele>600.96</ele>
        <time>2014-03-09T11:47:39Z</time>
      </trkpt>
      <trkpt lat="45.99722" lon="4.52373">
        <ele>600.96</ele>
        <time>2014-03-09T11:47:40Z</time>
      </trkpt>
      <trkpt lat="45.99727" lon="4.52374">
        <ele>600.96</ele>
        <time>2014-03-09T11:47:41Z</time>
      </trkpt>
      <trkpt lat="45.99737" lon="4.52379">
        <ele>600.96</ele>
        <time>2014-03-09T11:47:43Z</time>
      </trkpt>
      <trkpt lat="45.99751" lon="4.52388">
        <ele>600.96</ele>
        <time>2014-03-09T11:47:46Z</time>
      </trkpt>
      <trkpt lat="45.99759" lon="4.52395">
        <ele>600.96</ele>
        <time>2014-03-09T11:47:48Z</time>
      </trkpt>
      <trkpt lat="45.99768" lon="4.52403">
        <ele>600.96</ele>
        <time>2014-03-09T11:47:50Z</time>
      </trkpt>
      <trkpt lat="45.99791" lon="4.52434">
        <ele>599.52</ele>
        <time>2014-03-09T11:47:55Z</time>
      </trkpt>
      <trkpt lat="45.99795" lon="4.52441">
        <ele>599.52</ele>
        <time>2014-03-09T11:47:56Z</time>
      </trkpt>
      <trkpt lat="45.99798" lon="4.52449">
        <ele>600</ele>
        <time>2014-03-09T11:47:57Z</time>
      </trkpt>
      <trkpt lat="45.998" lon="4.52456">
        <ele>599.04</ele>
        <time>2014-03-09T11:47:58Z</time>
      </trkpt>
      <trkpt lat="45.99802" lon="4.52465">
        <ele>599.52</ele>
        <time>2014-03-09T11:47:59Z</time>
      </trkpt>
      <trkpt lat="45.99803" lon="4.52473">
        <ele>599.52</ele>
        <time>2014-03-09T11:48:00Z</time>
      </trkpt>
      <trkpt lat="45.99803" lon="4.5248">
        <ele>599.52</ele>
        <time>2014-03-09T11:48:01Z</time>
      </trkpt>
      <trkpt lat="45.99803" lon="4.52486">
        <ele>600</ele>
        <time>2014-03-09T11:48:02Z</time>
      </trkpt>
      <trkpt lat="45.99803" lon="4.52505">
        <ele>600.96</ele>
        <time>2014-03-09T11:48:09Z</time>
      </trkpt>
      <trkpt lat="45.99802" lon="4.52506">
        <ele>601.44</ele>
        <time>2014-03-09T11:48:16Z</time>
      </trkpt>
      <trkpt lat="45.998" lon="4.52507">
        <ele>600.96</ele>
        <time>2014-03-09T11:48:17Z</time>
      </trkpt>
      <trkpt lat="45.99799" lon="4.52509">
        <ele>601.44</ele>
        <time>2014-03-09T11:48:18Z</time>
      </trkpt>
      <trkpt lat="45.99788" lon="4.52529">
        <ele>600.96</ele>
        <time>2014-03-09T11:48:27Z</time>
      </trkpt>
      <trkpt lat="45.99771" lon="4.52555">
        <ele>601.44</ele>
        <time>2014-03-09T11:48:37Z</time>
      </trkpt>
      <trkpt lat="45.99749" lon="4.52591">
        <ele>601.92</ele>
        <time>2014-03-09T11:48:49Z</time>
      </trkpt>
      <trkpt lat="45.99732" lon="4.52628">
        <ele>601.92</ele>
        <time>2014-03-09T11:48:59Z</time>
      </trkpt>
      <trkpt lat="45.99718" lon="4.52668">
        <ele>602.88</ele>
        <time>2014-03-09T11:49:08Z</time>
      </trkpt>
      <trkpt lat="45.99705" lon="4.52715">
        <ele>601.44</ele>
        <time>2014-03-09T11:49:17Z</time>
      </trkpt>
      <trkpt lat="45.99699" lon="4.52756">
        <ele>603.85</ele>
        <time>2014-03-09T11:49:26Z</time>
      </trkpt>
      <trkpt lat="45.99696" lon="4.52787">
        <ele>606.25</ele>
        <time>2014-03-09T11:49:36Z</time>
      </trkpt>
      <trkpt lat="45.99697" lon="4.52816">
        <ele>607.69</ele>
        <time>2014-03-09T11:49:46Z</time>
      </trkpt>
      <trkpt lat="45.99693" lon="4.52845">
        <ele>609.13</ele>
        <time>2014-03-09T11:49:57Z</time>
      </trkpt>
      <trkpt lat="45.99688" lon="4.52855">
        <ele>611.06</ele>
        <time>2014-03-09T11:50:02Z</time>
      </trkpt>
      <trkpt lat="45.99672" lon="4.52863">
        <ele>612.5</ele>
        <time>2014-03-09T11:50:12Z</time>
      </trkpt>
      <trkpt lat="45.99657" lon="4.5287">
        <ele>613.46</ele>
        <time>2014-03-09T11:50:22Z</time>
      </trkpt>
      <trkpt lat="45.99638" lon="4.5288">
        <ele>615.38</ele>
        <time>2014-03-09T11:50:35Z</time>
      </trkpt>
      <trkpt lat="45.9962" lon="4.52892">
        <ele>617.3</ele>
        <time>2014-03-09T11:50:48Z</time>
      </trkpt>
      <trkpt lat="45.99606" lon="4.52905">
        <ele>618.26</ele>
        <time>2014-03-09T11:50:59Z</time>
      </trkpt>
      <trkpt lat="45.9959" lon="4.52917">
        <ele>619.71</ele>
        <time>2014-03-09T11:51:11Z</time>
      </trkpt>
      <trkpt lat="45.99574" lon="4.52931">
        <ele>621.63</ele>
        <time>2014-03-09T11:51:24Z</time>
      </trkpt>
      <trkpt lat="45.99563" lon="4.52945">
        <ele>622.59</ele>
        <time>2014-03-09T11:51:34Z</time>
      </trkpt>
      <trkpt lat="45.99564" lon="4.52947">
        <ele>622.59</ele>
        <time>2014-03-09T11:51:35Z</time>
      </trkpt>
      <trkpt lat="45.99564" lon="4.52949">
        <ele>623.07</ele>
        <time>2014-03-09T11:51:36Z</time>
      </trkpt>
      <trkpt lat="45.99565" lon="4.52951">
        <ele>623.55</ele>
        <time>2014-03-09T11:51:37Z</time>
      </trkpt>
      <trkpt lat="45.99565" lon="4.52952">
        <ele>622.59</ele>
        <time>2014-03-09T11:51:38Z</time>
      </trkpt>
      <trkpt lat="45.99566" lon="4.52954">
        <ele>623.07</ele>
        <time>2014-03-09T11:51:39Z</time>
      </trkpt>
      <trkpt lat="45.99567" lon="4.52955">
        <ele>623.55</ele>
        <time>2014-03-09T11:51:40Z</time>
      </trkpt>
      <trkpt lat="45.99568" lon="4.52957">
        <ele>623.55</ele>
        <time>2014-03-09T11:51:41Z</time>
      </trkpt>
      <trkpt lat="45.99568" lon="4.52959">
        <ele>623.55</ele>
        <time>2014-03-09T11:51:42Z</time>
      </trkpt>
      <trkpt lat="45.99569" lon="4.5296">
        <ele>623.55</ele>
        <time>2014-03-09T11:51:43Z</time>
      </trkpt>
      <trkpt lat="45.9957" lon="4.52962">
        <ele>623.55</ele>
        <time>2014-03-09T11:51:44Z</time>
      </trkpt>
      <trkpt lat="45.99571" lon="4.52964">
        <ele>623.55</ele>
        <time>2014-03-09T11:51:45Z</time>
      </trkpt>
      <trkpt lat="45.99572" lon="4.52966">
        <ele>623.55</ele>
        <time>2014-03-09T11:51:46Z</time>
      </trkpt>
      <trkpt lat="45.99573" lon="4.52967">
        <ele>623.55</ele>
        <time>2014-03-09T11:51:47Z</time>
      </trkpt>
      <trkpt lat="45.99593" lon="4.52978">
        <ele>624.03</ele>
        <time>2014-03-09T11:51:58Z</time>
      </trkpt>
      <trkpt lat="45.99615" lon="4.52991">
        <ele>625.47</ele>
        <time>2014-03-09T11:52:09Z</time>
      </trkpt>
      <trkpt lat="45.99637" lon="4.53009">
        <ele>626.92</ele>
        <time>2014-03-09T11:52:21Z</time>
      </trkpt>
      <trkpt lat="45.99657" lon="4.5303">
        <ele>627.88</ele>
        <time>2014-03-09T11:52:33Z</time>
      </trkpt>
      <trkpt lat="45.99675" lon="4.53049">
        <ele>628.36</ele>
        <time>2014-03-09T11:52:44Z</time>
      </trkpt>
      <trkpt lat="45.99691" lon="4.53063">
        <ele>628.84</ele>
        <time>2014-03-09T11:52:53Z</time>
      </trkpt>
      <trkpt lat="45.9972" lon="4.53067">
        <ele>630.28</ele>
        <time>2014-03-09T11:53:06Z</time>
      </trkpt>
      <trkpt lat="45.99744" lon="4.5306">
        <ele>630.76</ele>
        <time>2014-03-09T11:53:18Z</time>
      </trkpt>
      <trkpt lat="45.99769" lon="4.5305">
        <ele>631.72</ele>
        <time>2014-03-09T11:53:30Z</time>
      </trkpt>
      <trkpt lat="45.99793" lon="4.5304">
        <ele>632.68</ele>
        <time>2014-03-09T11:53:41Z</time>
      </trkpt>
      <trkpt lat="45.99818" lon="4.53028">
        <ele>633.65</ele>
        <time>2014-03-09T11:53:54Z</time>
      </trkpt>
      <trkpt lat="45.99839" lon="4.53013">
        <ele>634.61</ele>
        <time>2014-03-09T11:54:05Z</time>
      </trkpt>
      <trkpt lat="45.99844" lon="4.53008">
        <ele>634.61</ele>
        <time>2014-03-09T11:54:09Z</time>
      </trkpt>
      <trkpt lat="45.99846" lon="4.53007">
        <ele>635.09</ele>
        <time>2014-03-09T11:54:10Z</time>
      </trkpt>
      <trkpt lat="45.99847" lon="4.53005">
        <ele>635.09</ele>
        <time>2014-03-09T11:54:11Z</time>
      </trkpt>
      <trkpt lat="45.99849" lon="4.53004">
        <ele>635.09</ele>
        <time>2014-03-09T11:54:12Z</time>
      </trkpt>
      <trkpt lat="45.99851" lon="4.53003">
        <ele>634.61</ele>
        <time>2014-03-09T11:54:13Z</time>
      </trkpt>
      <trkpt lat="45.99853" lon="4.53002">
        <ele>635.09</ele>
        <time>2014-03-09T11:54:14Z</time>
      </trkpt>
      <trkpt lat="45.99855" lon="4.53001">
        <ele>635.09</ele>
        <time>2014-03-09T11:54:15Z</time>
      </trkpt>
      <trkpt lat="45.99871" lon="4.52999">
        <ele>636.05</ele>
        <time>2014-03-09T11:54:23Z</time>
      </trkpt>
      <trkpt lat="45.99874" lon="4.52999">
        <ele>636.05</ele>
        <time>2014-03-09T11:54:24Z</time>
      </trkpt>
      <trkpt lat="45.99876" lon="4.52999">
        <ele>636.53</ele>
        <time>2014-03-09T11:54:25Z</time>
      </trkpt>
      <trkpt lat="45.99878" lon="4.52999">
        <ele>636.53</ele>
        <time>2014-03-09T11:54:26Z</time>
      </trkpt>
      <trkpt lat="45.99881" lon="4.52999">
        <ele>636.53</ele>
        <time>2014-03-09T11:54:27Z</time>
      </trkpt>
      <trkpt lat="45.99883" lon="4.52998">
        <ele>636.53</ele>
        <time>2014-03-09T11:54:28Z</time>
      </trkpt>
      <trkpt lat="45.99885" lon="4.52998">
        <ele>636.53</ele>
        <time>2014-03-09T11:54:29Z</time>
      </trkpt>
      <trkpt lat="45.99887" lon="4.52998">
        <ele>636.53</ele>
        <time>2014-03-09T11:54:30Z</time>
      </trkpt>
      <trkpt lat="45.99904" lon="4.53">
        <ele>636.53</ele>
        <time>2014-03-09T11:54:37Z</time>
      </trkpt>
      <trkpt lat="45.99906" lon="4.53">
        <ele>636.53</ele>
        <time>2014-03-09T11:54:38Z</time>
      </trkpt>
      <trkpt lat="45.99908" lon="4.53">
        <ele>637.49</ele>
        <time>2014-03-09T11:54:39Z</time>
      </trkpt>
      <trkpt lat="45.9991" lon="4.53001">
        <ele>637.01</ele>
        <time>2014-03-09T11:54:40Z</time>
      </trkpt>
      <trkpt lat="45.99913" lon="4.53001">
        <ele>637.01</ele>
        <time>2014-03-09T11:54:41Z</time>
      </trkpt>
      <trkpt lat="45.99937" lon="4.53011">
        <ele>637.97</ele>
        <time>2014-03-09T11:54:52Z</time>
      </trkpt>
      <trkpt lat="45.99957" lon="4.53034">
        <ele>638.93</ele>
        <time>2014-03-09T11:55:04Z</time>
      </trkpt>
      <trkpt lat="45.99972" lon="4.53062">
        <ele>640.38</ele>
        <time>2014-03-09T11:55:15Z</time>
      </trkpt>
      <trkpt lat="45.99979" lon="4.53092">
        <ele>641.34</ele>
        <time>2014-03-09T11:55:26Z</time>
      </trkpt>
      <trkpt lat="45.99988" lon="4.53121">
        <ele>642.3</ele>
        <time>2014-03-09T11:55:38Z</time>
      </trkpt>
      <trkpt lat="45.99999" lon="4.53151">
        <ele>642.78</ele>
        <time>2014-03-09T11:55:50Z</time>
      </trkpt>
      <trkpt lat="46.00001" lon="4.53158">
        <ele>645.18</ele>
        <time>2014-03-09T11:55:58Z</time>
      </trkpt>
      <trkpt lat="46.00001" lon="4.53158">
        <ele>642.78</ele>
        <time>2014-03-09T11:56:16Z</time>
      </trkpt>
      <trkpt lat="46.00001" lon="4.53159">
        <ele>642.78</ele>
        <time>2014-03-09T11:56:29Z</time>
      </trkpt>
      <trkpt lat="46.00001" lon="4.53159">
        <ele>642.78</ele>
        <time>2014-03-09T11:56:49Z</time>
      </trkpt>
      <trkpt lat="46.00001" lon="4.5316">
        <ele>642.78</ele>
        <time>2014-03-09T11:57:12Z</time>
      </trkpt>
      <trkpt lat="46.00001" lon="4.53161">
        <ele>642.78</ele>
        <time>2014-03-09T11:57:30Z</time>
      </trkpt>
      <trkpt lat="45.99999" lon="4.5318">
        <ele>642.3</ele>
        <time>2014-03-09T11:57:35Z</time>
      </trkpt>
      <trkpt lat="46.00001" lon="4.53186">
        <ele>641.34</ele>
        <time>2014-03-09T11:57:36Z</time>
      </trkpt>
      <trkpt lat="46.00003" lon="4.53194">
        <ele>640.38</ele>
        <time>2014-03-09T11:57:37Z</time>
      </trkpt>
      <trkpt lat="46.00006" lon="4.53202">
        <ele>639.89</ele>
        <time>2014-03-09T11:57:38Z</time>
      </trkpt>
      <trkpt lat="46.0001" lon="4.53211">
        <ele>637.97</ele>
        <time>2014-03-09T11:57:39Z</time>
      </trkpt>
      <trkpt lat="46.00015" lon="4.5322">
        <ele>637.49</ele>
        <time>2014-03-09T11:57:40Z</time>
      </trkpt>
      <trkpt lat="46.00021" lon="4.53229">
        <ele>636.05</ele>
        <time>2014-03-09T11:57:41Z</time>
      </trkpt>
      <trkpt lat="46.00027" lon="4.53238">
        <ele>636.05</ele>
        <time>2014-03-09T11:57:42Z</time>
      </trkpt>
      <trkpt lat="46.00033" lon="4.53249">
        <ele>634.61</ele>
        <time>2014-03-09T11:57:43Z</time>
      </trkpt>
      <trkpt lat="46.00054" lon="4.533">
        <ele>631.72</ele>
        <time>2014-03-09T11:57:48Z</time>
      </trkpt>
      <trkpt lat="46.00057" lon="4.5331">
        <ele>631.72</ele>
        <time>2014-03-09T11:57:49Z</time>
      </trkpt>
      <trkpt lat="46.00066" lon="4.5335">
        <ele>628.84</ele>
        <time>2014-03-09T11:57:53Z</time>
      </trkpt>
      <trkpt lat="46.00068" lon="4.53359">
        <ele>628.84</ele>
        <time>2014-03-09T11:57:54Z</time>
      </trkpt>
      <trkpt lat="46.00071" lon="4.53368">
        <ele>628.36</ele>
        <time>2014-03-09T11:57:55Z</time>
      </trkpt>
      <trkpt lat="46.00075" lon="4.53376">
        <ele>628.36</ele>
        <time>2014-03-09T11:57:56Z</time>
      </trkpt>
      <trkpt lat="46.00079" lon="4.53385">
        <ele>627.88</ele>
        <time>2014-03-09T11:57:57Z</time>
      </trkpt>
      <trkpt lat="46.00084" lon="4.53393">
        <ele>627.4</ele>
        <time>2014-03-09T11:57:58Z</time>
      </trkpt>
      <trkpt lat="46.001" lon="4.53417">
        <ele>624.03</ele>
        <time>2014-03-09T11:58:01Z</time>
      </trkpt>
      <trkpt lat="46.00122" lon="4.53452">
        <ele>620.19</ele>
        <time>2014-03-09T11:58:05Z</time>
      </trkpt>
      <trkpt lat="46.00136" lon="4.53476">
        <ele>618.75</ele>
        <time>2014-03-09T11:58:08Z</time>
      </trkpt>
      <trkpt lat="46.00141" lon="4.53482">
        <ele>618.26</ele>
        <time>2014-03-09T11:58:09Z</time>
      </trkpt>
      <trkpt lat="46.00146" lon="4.53488">
        <ele>618.26</ele>
        <time>2014-03-09T11:58:10Z</time>
      </trkpt>
      <trkpt lat="46.00152" lon="4.53492">
        <ele>618.26</ele>
        <time>2014-03-09T11:58:11Z</time>
      </trkpt>
      <trkpt lat="46.00157" lon="4.53495">
        <ele>617.3</ele>
        <time>2014-03-09T11:58:12Z</time>
      </trkpt>
      <trkpt lat="46.00163" lon="4.53497">
        <ele>616.82</ele>
        <time>2014-03-09T11:58:13Z</time>
      </trkpt>
      <trkpt lat="46.00169" lon="4.53497">
        <ele>617.3</ele>
        <time>2014-03-09T11:58:14Z</time>
      </trkpt>
      <trkpt lat="46.00176" lon="4.53496">
        <ele>616.34</ele>
        <time>2014-03-09T11:58:15Z</time>
      </trkpt>
      <trkpt lat="46.00182" lon="4.53495">
        <ele>616.34</ele>
        <time>2014-03-09T11:58:16Z</time>
      </trkpt>
      <trkpt lat="46.00205" lon="4.53488">
        <ele>615.86</ele>
        <time>2014-03-09T11:58:19Z</time>
      </trkpt>
      <trkpt lat="46.00221" lon="4.53484">
        <ele>615.38</ele>
        <time>2014-03-09T11:58:21Z</time>
      </trkpt>
      <trkpt lat="46.00229" lon="4.53483">
        <ele>614.9</ele>
        <time>2014-03-09T11:58:22Z</time>
      </trkpt>
      <trkpt lat="46.00237" lon="4.53483">
        <ele>613.94</ele>
        <time>2014-03-09T11:58:23Z</time>
      </trkpt>
      <trkpt lat="46.00245" lon="4.53484">
        <ele>614.42</ele>
        <time>2014-03-09T11:58:24Z</time>
      </trkpt>
      <trkpt lat="46.00251" lon="4.53488">
        <ele>613.46</ele>
        <time>2014-03-09T11:58:25Z</time>
      </trkpt>
      <trkpt lat="46.00258" lon="4.53493">
        <ele>612.98</ele>
        <time>2014-03-09T11:58:26Z</time>
      </trkpt>
      <trkpt lat="46.00263" lon="4.53498">
        <ele>612.5</ele>
        <time>2014-03-09T11:58:27Z</time>
      </trkpt>
      <trkpt lat="46.00269" lon="4.53502">
        <ele>611.54</ele>
        <time>2014-03-09T11:58:28Z</time>
      </trkpt>
      <trkpt lat="46.00274" lon="4.53506">
        <ele>611.06</ele>
        <time>2014-03-09T11:58:29Z</time>
      </trkpt>
      <trkpt lat="46.0028" lon="4.53509">
        <ele>611.06</ele>
        <time>2014-03-09T11:58:30Z</time>
      </trkpt>
      <trkpt lat="46.00305" lon="4.53518">
        <ele>611.06</ele>
        <time>2014-03-09T11:58:34Z</time>
      </trkpt>
      <trkpt lat="46.00311" lon="4.5352">
        <ele>611.54</ele>
        <time>2014-03-09T11:58:35Z</time>
      </trkpt>
      <trkpt lat="46.00318" lon="4.53522">
        <ele>611.54</ele>
        <time>2014-03-09T11:58:36Z</time>
      </trkpt>
      <trkpt lat="46.00329" lon="4.53528">
        <ele>612.5</ele>
        <time>2014-03-09T11:58:38Z</time>
      </trkpt>
      <trkpt lat="46.00333" lon="4.53531">
        <ele>612.02</ele>
        <time>2014-03-09T11:58:39Z</time>
      </trkpt>
      <trkpt lat="46.00337" lon="4.53534">
        <ele>612.98</ele>
        <time>2014-03-09T11:58:40Z</time>
      </trkpt>
      <trkpt lat="46.00348" lon="4.53541">
        <ele>613.46</ele>
        <time>2014-03-09T11:58:43Z</time>
      </trkpt>
      <trkpt lat="46.0035" lon="4.53544">
        <ele>613.46</ele>
        <time>2014-03-09T11:58:44Z</time>
      </trkpt>
      <trkpt lat="46.00351" lon="4.53546">
        <ele>612.98</ele>
        <time>2014-03-09T11:58:45Z</time>
      </trkpt>
      <trkpt lat="46.00353" lon="4.53549">
        <ele>612.5</ele>
        <time>2014-03-09T11:58:55Z</time>
      </trkpt>
      <trkpt lat="46.00355" lon="4.53551">
        <ele>612.98</ele>
        <time>2014-03-09T11:59:01Z</time>
      </trkpt>
      <trkpt lat="46.00359" lon="4.53554">
        <ele>612.98</ele>
        <time>2014-03-09T11:59:03Z</time>
      </trkpt>
      <trkpt lat="46.0036" lon="4.53556">
        <ele>612.5</ele>
        <time>2014-03-09T11:59:04Z</time>
      </trkpt>
      <trkpt lat="46.00362" lon="4.53558">
        <ele>612.98</ele>
        <time>2014-03-09T11:59:05Z</time>
      </trkpt>
      <trkpt lat="46.00363" lon="4.5356">
        <ele>612.98</ele>
        <time>2014-03-09T11:59:06Z</time>
      </trkpt>
      <trkpt lat="46.00363" lon="4.53565">
        <ele>612.5</ele>
        <time>2014-03-09T11:59:08Z</time>
      </trkpt>
      <trkpt lat="46.00362" lon="4.53579">
        <ele>613.46</ele>
        <time>2014-03-09T11:59:15Z</time>
      </trkpt>
      <trkpt lat="46.00361" lon="4.53582">
        <ele>612.98</ele>
        <time>2014-03-09T11:59:16Z</time>
      </trkpt>
      <trkpt lat="46.00359" lon="4.53585">
        <ele>612.98</ele>
        <time>2014-03-09T11:59:17Z</time>
      </trkpt>
      <trkpt lat="46.00346" lon="4.53616">
        <ele>613.46</ele>
        <time>2014-03-09T11:59:26Z</time>
      </trkpt>
      <trkpt lat="46.0033" lon="4.53646">
        <ele>613.94</ele>
        <time>2014-03-09T11:59:36Z</time>
      </trkpt>
      <trkpt lat="46.00319" lon="4.53681">
        <ele>615.86</ele>
        <time>2014-03-09T11:59:47Z</time>
      </trkpt>
      <trkpt lat="46.00316" lon="4.53703">
        <ele>617.3</ele>
        <time>2014-03-09T11:59:57Z</time>
      </trkpt>
      <trkpt lat="46.00316" lon="4.53715">
        <ele>618.75</ele>
        <time>2014-03-09T12:00:02Z</time>
      </trkpt>
      <trkpt lat="46.00315" lon="4.53717">
        <ele>618.26</ele>
        <time>2014-03-09T12:00:03Z</time>
      </trkpt>
      <trkpt lat="46.00315" lon="4.53719">
        <ele>619.23</ele>
        <time>2014-03-09T12:00:04Z</time>
      </trkpt>
      <trkpt lat="46.00315" lon="4.53721">
        <ele>619.23</ele>
        <time>2014-03-09T12:00:05Z</time>
      </trkpt>
      <trkpt lat="46.00316" lon="4.53723">
        <ele>618.75</ele>
        <time>2014-03-09T12:00:06Z</time>
      </trkpt>
      <trkpt lat="46.00316" lon="4.53726">
        <ele>619.23</ele>
        <time>2014-03-09T12:00:07Z</time>
      </trkpt>
      <trkpt lat="46.00316" lon="4.53728">
        <ele>619.71</ele>
        <time>2014-03-09T12:00:08Z</time>
      </trkpt>
      <trkpt lat="46.00316" lon="4.5373">
        <ele>620.19</ele>
        <time>2014-03-09T12:00:09Z</time>
      </trkpt>
      <trkpt lat="46.00316" lon="4.53732">
        <ele>620.67</ele>
        <time>2014-03-09T12:00:10Z</time>
      </trkpt>
      <trkpt lat="46.00317" lon="4.53734">
        <ele>620.19</ele>
        <time>2014-03-09T12:00:11Z</time>
      </trkpt>
      <trkpt lat="46.00317" lon="4.53736">
        <ele>620.67</ele>
        <time>2014-03-09T12:00:12Z</time>
      </trkpt>
      <trkpt lat="46.00322" lon="4.53754">
        <ele>622.11</ele>
        <time>2014-03-09T12:00:22Z</time>
      </trkpt>
      <trkpt lat="46.00336" lon="4.53779">
        <ele>621.15</ele>
        <time>2014-03-09T12:00:32Z</time>
      </trkpt>
      <trkpt lat="46.00352" lon="4.53798">
        <ele>620.67</ele>
        <time>2014-03-09T12:00:40Z</time>
      </trkpt>
      <trkpt lat="46.00362" lon="4.53812">
        <ele>620.19</ele>
        <time>2014-03-09T12:00:44Z</time>
      </trkpt>
      <trkpt lat="46.00368" lon="4.53831">
        <ele>619.71</ele>
        <time>2014-03-09T12:00:47Z</time>
      </trkpt>
      <trkpt lat="46.00369" lon="4.53839">
        <ele>618.75</ele>
        <time>2014-03-09T12:00:48Z</time>
      </trkpt>
      <trkpt lat="46.00369" lon="4.53847">
        <ele>618.26</ele>
        <time>2014-03-09T12:00:49Z</time>
      </trkpt>
      <trkpt lat="46.00364" lon="4.539">
        <ele>617.78</ele>
        <time>2014-03-09T12:00:55Z</time>
      </trkpt>
      <trkpt lat="46.00362" lon="4.53908">
        <ele>618.26</ele>
        <time>2014-03-09T12:00:56Z</time>
      </trkpt>
      <trkpt lat="46.00349" lon="4.53953">
        <ele>619.71</ele>
        <time>2014-03-09T12:01:04Z</time>
      </trkpt>
      <trkpt lat="46.00349" lon="4.53971">
        <ele>621.15</ele>
        <time>2014-03-09T12:01:12Z</time>
      </trkpt>
      <trkpt lat="46.00348" lon="4.53998">
        <ele>621.15</ele>
        <time>2014-03-09T12:01:23Z</time>
      </trkpt>
      <trkpt lat="46.00347" lon="4.54005">
        <ele>621.63</ele>
        <time>2014-03-09T12:01:26Z</time>
      </trkpt>
      <trkpt lat="46.00347" lon="4.54007">
        <ele>621.15</ele>
        <time>2014-03-09T12:01:27Z</time>
      </trkpt>
      <trkpt lat="46.00349" lon="4.54022">
        <ele>623.07</ele>
        <time>2014-03-09T12:01:34Z</time>
      </trkpt>
      <trkpt lat="46.00349" lon="4.54025">
        <ele>622.59</ele>
        <time>2014-03-09T12:01:35Z</time>
      </trkpt>
      <trkpt lat="46.00349" lon="4.54027">
        <ele>622.59</ele>
        <time>2014-03-09T12:01:36Z</time>
      </trkpt>
      <trkpt lat="46.00348" lon="4.5403">
        <ele>623.07</ele>
        <time>2014-03-09T12:01:37Z</time>
      </trkpt>
      <trkpt lat="46.00348" lon="4.54032">
        <ele>623.07</ele>
        <time>2014-03-09T12:01:38Z</time>
      </trkpt>
      <trkpt lat="46.00347" lon="4.54034">
        <ele>623.55</ele>
        <time>2014-03-09T12:01:39Z</time>
      </trkpt>
      <trkpt lat="46.00347" lon="4.54036">
        <ele>624.03</ele>
        <time>2014-03-09T12:01:40Z</time>
      </trkpt>
      <trkpt lat="46.00344" lon="4.54044">
        <ele>624.99</ele>
        <time>2014-03-09T12:01:46Z</time>
      </trkpt>
      <trkpt lat="46.00344" lon="4.54045">
        <ele>624.51</ele>
        <time>2014-03-09T12:01:47Z</time>
      </trkpt>
      <trkpt lat="46.00331" lon="4.54053">
        <ele>626.44</ele>
        <time>2014-03-09T12:01:56Z</time>
      </trkpt>
      <trkpt lat="46.00317" lon="4.54056">
        <ele>627.4</ele>
        <time>2014-03-09T12:02:05Z</time>
      </trkpt>
      <trkpt lat="46.00302" lon="4.54056">
        <ele>628.84</ele>
        <time>2014-03-09T12:02:15Z</time>
      </trkpt>
      <trkpt lat="46.00282" lon="4.54057">
        <ele>629.8</ele>
        <time>2014-03-09T12:02:26Z</time>
      </trkpt>
      <trkpt lat="46.00268" lon="4.54059">
        <ele>631.24</ele>
        <time>2014-03-09T12:02:35Z</time>
      </trkpt>
      <trkpt lat="46.00265" lon="4.54059">
        <ele>630.76</ele>
        <time>2014-03-09T12:02:37Z</time>
      </trkpt>
      <trkpt lat="46.00263" lon="4.54059">
        <ele>631.24</ele>
        <time>2014-03-09T12:02:38Z</time>
      </trkpt>
      <trkpt lat="46.00246" lon="4.54063">
        <ele>632.2</ele>
        <time>2014-03-09T12:02:50Z</time>
      </trkpt>
      <trkpt lat="46.00231" lon="4.54073">
        <ele>634.13</ele>
        <time>2014-03-09T12:03:02Z</time>
      </trkpt>
      <trkpt lat="46.00217" lon="4.54087">
        <ele>635.09</ele>
        <time>2014-03-09T12:03:14Z</time>
      </trkpt>
      <trkpt lat="46.00216" lon="4.54089">
        <ele>635.09</ele>
        <time>2014-03-09T12:03:15Z</time>
      </trkpt>
      <trkpt lat="46.00216" lon="4.5409">
        <ele>635.09</ele>
        <time>2014-03-09T12:03:16Z</time>
      </trkpt>
      <trkpt lat="46.00215" lon="4.54092">
        <ele>636.05</ele>
        <time>2014-03-09T12:03:17Z</time>
      </trkpt>
      <trkpt lat="46.00213" lon="4.54093">
        <ele>636.05</ele>
        <time>2014-03-09T12:03:18Z</time>
      </trkpt>
      <trkpt lat="46.00205" lon="4.54107">
        <ele>637.97</ele>
        <time>2014-03-09T12:03:28Z</time>
      </trkpt>
      <trkpt lat="46.00204" lon="4.5411">
        <ele>637.49</ele>
        <time>2014-03-09T12:03:30Z</time>
      </trkpt>
      <trkpt lat="46.00204" lon="4.54111">
        <ele>637.49</ele>
        <time>2014-03-09T12:03:39Z</time>
      </trkpt>
      <trkpt lat="46.00201" lon="4.54117">
        <ele>637.97</ele>
        <time>2014-03-09T12:03:53Z</time>
      </trkpt>
      <trkpt lat="46.00198" lon="4.54123">
        <ele>638.93</ele>
        <time>2014-03-09T12:04:03Z</time>
      </trkpt>
      <trkpt lat="46.00198" lon="4.54123">
        <ele>638.93</ele>
        <time>2014-03-09T12:04:23Z</time>
      </trkpt>
      <trkpt lat="46.00196" lon="4.54128">
        <ele>639.89</ele>
        <time>2014-03-09T12:04:34Z</time>
      </trkpt>
      <trkpt lat="46.00193" lon="4.54134">
        <ele>640.38</ele>
        <time>2014-03-09T12:04:44Z</time>
      </trkpt>
      <trkpt lat="46.00192" lon="4.5414">
        <ele>640.86</ele>
        <time>2014-03-09T12:04:54Z</time>
      </trkpt>
      <trkpt lat="46.00189" lon="4.54147">
        <ele>641.82</ele>
        <time>2014-03-09T12:05:04Z</time>
      </trkpt>
      <trkpt lat="46.00188" lon="4.54155">
        <ele>642.78</ele>
        <time>2014-03-09T12:05:14Z</time>
      </trkpt>
      <trkpt lat="46.00186" lon="4.54158">
        <ele>644.22</ele>
        <time>2014-03-09T12:05:25Z</time>
      </trkpt>
      <trkpt lat="46.00184" lon="4.54162">
        <ele>645.18</ele>
        <time>2014-03-09T12:05:37Z</time>
      </trkpt>
      <trkpt lat="46.00182" lon="4.54167">
        <ele>646.62</ele>
        <time>2014-03-09T12:05:47Z</time>
      </trkpt>
      <trkpt lat="46.0018" lon="4.54172">
        <ele>646.62</ele>
        <time>2014-03-09T12:05:57Z</time>
      </trkpt>
      <trkpt lat="46.00177" lon="4.54182">
        <ele>648.55</ele>
        <time>2014-03-09T12:06:08Z</time>
      </trkpt>
      <trkpt lat="46.00173" lon="4.54193">
        <ele>649.51</ele>
        <time>2014-03-09T12:06:20Z</time>
      </trkpt>
      <trkpt lat="46.00171" lon="4.54206">
        <ele>650.95</ele>
        <time>2014-03-09T12:06:29Z</time>
      </trkpt>
      <trkpt lat="46.00165" lon="4.5422">
        <ele>652.39</ele>
        <time>2014-03-09T12:06:37Z</time>
      </trkpt>
      <trkpt lat="46.0016" lon="4.54236">
        <ele>654.31</ele>
        <time>2014-03-09T12:06:47Z</time>
      </trkpt>
      <trkpt lat="46.00156" lon="4.54249">
        <ele>655.28</ele>
        <time>2014-03-09T12:06:56Z</time>
      </trkpt>
      <trkpt lat="46.00152" lon="4.54263">
        <ele>656.24</ele>
        <time>2014-03-09T12:07:04Z</time>
      </trkpt>
      <trkpt lat="46.00146" lon="4.54279">
        <ele>657.2</ele>
        <time>2014-03-09T12:07:14Z</time>
      </trkpt>
      <trkpt lat="46.00142" lon="4.54289">
        <ele>658.16</ele>
        <time>2014-03-09T12:07:23Z</time>
      </trkpt>
      <trkpt lat="46.00138" lon="4.54301">
        <ele>658.64</ele>
        <time>2014-03-09T12:07:31Z</time>
      </trkpt>
      <trkpt lat="46.00136" lon="4.54308">
        <ele>658.64</ele>
        <time>2014-03-09T12:07:35Z</time>
      </trkpt>
      <trkpt lat="46.00132" lon="4.54328">
        <ele>659.6</ele>
        <time>2014-03-09T12:07:46Z</time>
      </trkpt>
      <trkpt lat="46.00129" lon="4.54337">
        <ele>660.08</ele>
        <time>2014-03-09T12:07:55Z</time>
      </trkpt>
      <trkpt lat="46.00128" lon="4.54339">
        <ele>659.6</ele>
        <time>2014-03-09T12:08:05Z</time>
      </trkpt>
      <trkpt lat="46.00128" lon="4.54339">
        <ele>660.08</ele>
        <time>2014-03-09T12:08:20Z</time>
      </trkpt>
      <trkpt lat="46.00127" lon="4.54339">
        <ele>660.56</ele>
        <time>2014-03-09T12:08:34Z</time>
      </trkpt>
      <trkpt lat="46.00127" lon="4.54339">
        <ele>660.08</ele>
        <time>2014-03-09T12:08:52Z</time>
      </trkpt>
      <trkpt lat="46.00126" lon="4.54344">
        <ele>660.56</ele>
        <time>2014-03-09T12:09:07Z</time>
      </trkpt>
      <trkpt lat="46.00126" lon="4.54347">
        <ele>660.56</ele>
        <time>2014-03-09T12:09:08Z</time>
      </trkpt>
      <trkpt lat="46.00124" lon="4.54362">
        <ele>660.08</ele>
        <time>2014-03-09T12:09:15Z</time>
      </trkpt>
      <trkpt lat="46.00124" lon="4.54377">
        <ele>660.56</ele>
        <time>2014-03-09T12:09:22Z</time>
      </trkpt>
      <trkpt lat="46.00123" lon="4.5438">
        <ele>661.52</ele>
        <time>2014-03-09T12:09:23Z</time>
      </trkpt>
      <trkpt lat="46.00122" lon="4.54383">
        <ele>661.04</ele>
        <time>2014-03-09T12:09:24Z</time>
      </trkpt>
      <trkpt lat="46.00121" lon="4.54386">
        <ele>661.04</ele>
        <time>2014-03-09T12:09:25Z</time>
      </trkpt>
      <trkpt lat="46.0012" lon="4.5439">
        <ele>660.56</ele>
        <time>2014-03-09T12:09:26Z</time>
      </trkpt>
      <trkpt lat="46.00118" lon="4.54395">
        <ele>661.52</ele>
        <time>2014-03-09T12:09:27Z</time>
      </trkpt>
      <trkpt lat="46.00117" lon="4.54398">
        <ele>661.52</ele>
        <time>2014-03-09T12:09:28Z</time>
      </trkpt>
      <trkpt lat="46.00117" lon="4.544">
        <ele>661.52</ele>
        <time>2014-03-09T12:09:29Z</time>
      </trkpt>
      <trkpt lat="46.00116" lon="4.54401">
        <ele>662.01</ele>
        <time>2014-03-09T12:09:30Z</time>
      </trkpt>
      <trkpt lat="46.00114" lon="4.54404">
        <ele>662.49</ele>
        <time>2014-03-09T12:09:31Z</time>
      </trkpt>
      <trkpt lat="46.00113" lon="4.54407">
        <ele>662.49</ele>
        <time>2014-03-09T12:09:32Z</time>
      </trkpt>
      <trkpt lat="46.00109" lon="4.54416">
        <ele>662.97</ele>
        <time>2014-03-09T12:09:37Z</time>
      </trkpt>
      <trkpt lat="46.00096" lon="4.54428">
        <ele>664.41</ele>
        <time>2014-03-09T12:09:46Z</time>
      </trkpt>
      <trkpt lat="46.00079" lon="4.54439">
        <ele>665.85</ele>
        <time>2014-03-09T12:09:57Z</time>
      </trkpt>
      <trkpt lat="46.00076" lon="4.5444">
        <ele>666.33</ele>
        <time>2014-03-09T12:09:59Z</time>
      </trkpt>
      <trkpt lat="46.00065" lon="4.5445">
        <ele>667.29</ele>
        <time>2014-03-09T12:10:08Z</time>
      </trkpt>
      <trkpt lat="46.00064" lon="4.54451">
        <ele>668.25</ele>
        <time>2014-03-09T12:10:09Z</time>
      </trkpt>
      <trkpt lat="46.00063" lon="4.54452">
        <ele>668.25</ele>
        <time>2014-03-09T12:10:10Z</time>
      </trkpt>
      <trkpt lat="46.00061" lon="4.54452">
        <ele>667.77</ele>
        <time>2014-03-09T12:10:11Z</time>
      </trkpt>
      <trkpt lat="46.00057" lon="4.54455">
        <ele>668.73</ele>
        <time>2014-03-09T12:10:20Z</time>
      </trkpt>
      <trkpt lat="46.00057" lon="4.54455">
        <ele>668.73</ele>
        <time>2014-03-09T12:10:37Z</time>
      </trkpt>
      <trkpt lat="46.00047" lon="4.54461">
        <ele>669.7</ele>
        <time>2014-03-09T12:10:46Z</time>
      </trkpt>
      <trkpt lat="46.00037" lon="4.54467">
        <ele>670.66</ele>
        <time>2014-03-09T12:10:57Z</time>
      </trkpt>
      <trkpt lat="46.00028" lon="4.54474">
        <ele>671.14</ele>
        <time>2014-03-09T12:11:08Z</time>
      </trkpt>
      <trkpt lat="46.00021" lon="4.54478">
        <ele>672.1</ele>
        <time>2014-03-09T12:11:17Z</time>
      </trkpt>
      <trkpt lat="46.00015" lon="4.54481">
        <ele>673.06</ele>
        <time>2014-03-09T12:11:28Z</time>
      </trkpt>
      <trkpt lat="46.00007" lon="4.54486">
        <ele>674.5</ele>
        <time>2014-03-09T12:11:37Z</time>
      </trkpt>
      <trkpt lat="45.99998" lon="4.5449">
        <ele>674.98</ele>
        <time>2014-03-09T12:11:48Z</time>
      </trkpt>
      <trkpt lat="45.99993" lon="4.54491">
        <ele>675.94</ele>
        <time>2014-03-09T12:11:57Z</time>
      </trkpt>
      <trkpt lat="45.99989" lon="4.54493">
        <ele>676.91</ele>
        <time>2014-03-09T12:12:05Z</time>
      </trkpt>
      <trkpt lat="45.99983" lon="4.54497">
        <ele>677.87</ele>
        <time>2014-03-09T12:12:13Z</time>
      </trkpt>
      <trkpt lat="45.99977" lon="4.54505">
        <ele>679.31</ele>
        <time>2014-03-09T12:12:23Z</time>
      </trkpt>
      <trkpt lat="45.99972" lon="4.5451">
        <ele>679.79</ele>
        <time>2014-03-09T12:12:32Z</time>
      </trkpt>
      <trkpt lat="45.99964" lon="4.54516">
        <ele>680.75</ele>
        <time>2014-03-09T12:12:42Z</time>
      </trkpt>
      <trkpt lat="45.99959" lon="4.54516">
        <ele>682.19</ele>
        <time>2014-03-09T12:12:51Z</time>
      </trkpt>
      <trkpt lat="45.99955" lon="4.54516">
        <ele>682.67</ele>
        <time>2014-03-09T12:13:02Z</time>
      </trkpt>
      <trkpt lat="45.9995" lon="4.54518">
        <ele>683.63</ele>
        <time>2014-03-09T12:13:15Z</time>
      </trkpt>
      <trkpt lat="45.99944" lon="4.54518">
        <ele>684.6</ele>
        <time>2014-03-09T12:13:24Z</time>
      </trkpt>
      <trkpt lat="45.99935" lon="4.5452">
        <ele>686.04</ele>
        <time>2014-03-09T12:13:36Z</time>
      </trkpt>
      <trkpt lat="45.99932" lon="4.54521">
        <ele>686.52</ele>
        <time>2014-03-09T12:13:39Z</time>
      </trkpt>
      <trkpt lat="45.99925" lon="4.54522">
        <ele>687.48</ele>
        <time>2014-03-09T12:13:49Z</time>
      </trkpt>
      <trkpt lat="45.99916" lon="4.54526">
        <ele>688.44</ele>
        <time>2014-03-09T12:13:59Z</time>
      </trkpt>
      <trkpt lat="45.99911" lon="4.54528">
        <ele>689.88</ele>
        <time>2014-03-09T12:14:09Z</time>
      </trkpt>
      <trkpt lat="45.99905" lon="4.54533">
        <ele>690.36</ele>
        <time>2014-03-09T12:14:19Z</time>
      </trkpt>
      <trkpt lat="45.999" lon="4.54536">
        <ele>691.33</ele>
        <time>2014-03-09T12:14:33Z</time>
      </trkpt>
      <trkpt lat="45.99895" lon="4.54539">
        <ele>692.29</ele>
        <time>2014-03-09T12:14:42Z</time>
      </trkpt>
      <trkpt lat="45.99891" lon="4.54541">
        <ele>694.21</ele>
        <time>2014-03-09T12:14:52Z</time>
      </trkpt>
      <trkpt lat="45.99888" lon="4.54545">
        <ele>695.17</ele>
        <time>2014-03-09T12:15:07Z</time>
      </trkpt>
      <trkpt lat="45.9988" lon="4.54551">
        <ele>696.13</ele>
        <time>2014-03-09T12:15:20Z</time>
      </trkpt>
      <trkpt lat="45.99874" lon="4.54558">
        <ele>698.05</ele>
        <time>2014-03-09T12:15:32Z</time>
      </trkpt>
      <trkpt lat="45.99872" lon="4.54562">
        <ele>698.53</ele>
        <time>2014-03-09T12:15:43Z</time>
      </trkpt>
      <trkpt lat="45.99868" lon="4.54571">
        <ele>701.42</ele>
        <time>2014-03-09T12:15:53Z</time>
      </trkpt>
      <trkpt lat="45.99864" lon="4.54575">
        <ele>701.42</ele>
        <time>2014-03-09T12:16:04Z</time>
      </trkpt>
      <trkpt lat="45.99863" lon="4.54576">
        <ele>702.86</ele>
        <time>2014-03-09T12:16:07Z</time>
      </trkpt>
      <trkpt lat="45.99859" lon="4.54585">
        <ele>703.82</ele>
        <time>2014-03-09T12:16:18Z</time>
      </trkpt>
      <trkpt lat="45.99859" lon="4.54585">
        <ele>703.82</ele>
        <time>2014-03-09T12:16:19Z</time>
      </trkpt>
      <trkpt lat="45.99857" lon="4.5459">
        <ele>703.82</ele>
        <time>2014-03-09T12:16:23Z</time>
      </trkpt>
      <trkpt lat="45.99854" lon="4.54594">
        <ele>703.82</ele>
        <time>2014-03-09T12:16:28Z</time>
      </trkpt>
      <trkpt lat="45.99852" lon="4.54595">
        <ele>703.34</ele>
        <time>2014-03-09T12:16:36Z</time>
      </trkpt>
      <trkpt lat="45.99852" lon="4.54595">
        <ele>703.82</ele>
        <time>2014-03-09T12:17:05Z</time>
      </trkpt>
      <trkpt lat="45.99852" lon="4.54595">
        <ele>703.82</ele>
        <time>2014-03-09T12:17:33Z</time>
      </trkpt>
      <trkpt lat="45.99852" lon="4.54596">
        <ele>703.82</ele>
        <time>2014-03-09T12:18:08Z</time>
      </trkpt>
      <trkpt lat="45.99852" lon="4.54596">
        <ele>704.3</ele>
        <time>2014-03-09T12:18:33Z</time>
      </trkpt>
      <trkpt lat="45.99852" lon="4.54595">
        <ele>703.82</ele>
        <time>2014-03-09T12:18:49Z</time>
      </trkpt>
      <trkpt lat="45.99852" lon="4.54595">
        <ele>703.82</ele>
        <time>2014-03-09T12:19:07Z</time>
      </trkpt>
      <trkpt lat="45.99853" lon="4.54596">
        <ele>703.82</ele>
        <time>2014-03-09T12:19:26Z</time>
      </trkpt>
      <trkpt lat="45.99853" lon="4.54596">
        <ele>704.3</ele>
        <time>2014-03-09T12:19:51Z</time>
      </trkpt>
      <trkpt lat="45.99853" lon="4.54596">
        <ele>704.3</ele>
        <time>2014-03-09T12:20:13Z</time>
      </trkpt>
      <trkpt lat="45.99853" lon="4.54596">
        <ele>704.78</ele>
        <time>2014-03-09T12:20:33Z</time>
      </trkpt>
      <trkpt lat="45.99853" lon="4.54595">
        <ele>704.3</ele>
        <time>2014-03-09T12:20:49Z</time>
      </trkpt>
      <trkpt lat="45.99853" lon="4.54595">
        <ele>704.3</ele>
        <time>2014-03-09T12:21:04Z</time>
      </trkpt>
      <trkpt lat="45.99853" lon="4.54595">
        <ele>704.3</ele>
        <time>2014-03-09T12:21:23Z</time>
      </trkpt>
      <trkpt lat="45.99854" lon="4.54596">
        <ele>704.3</ele>
        <time>2014-03-09T12:21:41Z</time>
      </trkpt>
      <trkpt lat="45.99854" lon="4.54596">
        <ele>704.3</ele>
        <time>2014-03-09T12:22:04Z</time>
      </trkpt>
      <trkpt lat="45.99854" lon="4.54596">
        <ele>704.3</ele>
        <time>2014-03-09T12:22:22Z</time>
      </trkpt>
      <trkpt lat="45.99854" lon="4.54596">
        <ele>704.78</ele>
        <time>2014-03-09T12:22:43Z</time>
      </trkpt>
      <trkpt lat="45.99854" lon="4.54597">
        <ele>704.3</ele>
        <time>2014-03-09T12:23:00Z</time>
      </trkpt>
      <trkpt lat="45.99854" lon="4.54596">
        <ele>703.82</ele>
        <time>2014-03-09T12:23:17Z</time>
      </trkpt>
      <trkpt lat="45.99854" lon="4.54596">
        <ele>704.3</ele>
        <time>2014-03-09T12:23:33Z</time>
      </trkpt>
      <trkpt lat="45.99854" lon="4.54596">
        <ele>704.3</ele>
        <time>2014-03-09T12:23:45Z</time>
      </trkpt>
      <trkpt lat="45.99854" lon="4.54596">
        <ele>703.82</ele>
        <time>2014-03-09T12:24:02Z</time>
      </trkpt>
      <trkpt lat="45.99854" lon="4.54596">
        <ele>704.3</ele>
        <time>2014-03-09T12:24:14Z</time>
      </trkpt>
      <trkpt lat="45.99854" lon="4.54596">
        <ele>704.78</ele>
        <time>2014-03-09T12:24:32Z</time>
      </trkpt>
      <trkpt lat="45.99854" lon="4.54596">
        <ele>704.3</ele>
        <time>2014-03-09T12:24:51Z</time>
      </trkpt>
      <trkpt lat="45.99854" lon="4.54596">
        <ele>703.82</ele>
        <time>2014-03-09T12:25:05Z</time>
      </trkpt>
      <trkpt lat="45.99854" lon="4.54596">
        <ele>703.82</ele>
        <time>2014-03-09T12:25:26Z</time>
      </trkpt>
      <trkpt lat="45.99854" lon="4.54595">
        <ele>704.3</ele>
        <time>2014-03-09T12:25:35Z</time>
      </trkpt>
      <trkpt lat="45.99854" lon="4.54594">
        <ele>704.3</ele>
        <time>2014-03-09T12:25:46Z</time>
      </trkpt>
      <trkpt lat="45.99854" lon="4.54592">
        <ele>704.3</ele>
        <time>2014-03-09T12:25:48Z</time>
      </trkpt>
      <trkpt lat="45.9985" lon="4.5459">
        <ele>704.3</ele>
        <time>2014-03-09T12:25:53Z</time>
      </trkpt>
      <trkpt lat="45.99845" lon="4.54604">
        <ele>702.86</ele>
        <time>2014-03-09T12:25:57Z</time>
      </trkpt>
      <trkpt lat="45.99841" lon="4.54619">
        <ele>701.42</ele>
        <time>2014-03-09T12:26:00Z</time>
      </trkpt>
      <trkpt lat="45.99836" lon="4.54654">
        <ele>698.05</ele>
        <time>2014-03-09T12:26:04Z</time>
      </trkpt>
      <trkpt lat="45.99832" lon="4.54703">
        <ele>695.17</ele>
        <time>2014-03-09T12:26:09Z</time>
      </trkpt>
      <trkpt lat="45.9983" lon="4.54723">
        <ele>694.21</ele>
        <time>2014-03-09T12:26:11Z</time>
      </trkpt>
      <trkpt lat="45.99828" lon="4.54732">
        <ele>693.73</ele>
        <time>2014-03-09T12:26:12Z</time>
      </trkpt>
      <trkpt lat="45.99822" lon="4.54763">
        <ele>690.36</ele>
        <time>2014-03-09T12:26:15Z</time>
      </trkpt>
      <trkpt lat="45.99815" lon="4.54783">
        <ele>688.44</ele>
        <time>2014-03-09T12:26:17Z</time>
      </trkpt>
      <trkpt lat="45.99811" lon="4.54793">
        <ele>687.48</ele>
        <time>2014-03-09T12:26:18Z</time>
      </trkpt>
      <trkpt lat="45.99805" lon="4.54802">
        <ele>686.52</ele>
        <time>2014-03-09T12:26:19Z</time>
      </trkpt>
      <trkpt lat="45.99791" lon="4.54826">
        <ele>683.15</ele>
        <time>2014-03-09T12:26:22Z</time>
      </trkpt>
      <trkpt lat="45.99781" lon="4.54846">
        <ele>681.71</ele>
        <time>2014-03-09T12:26:25Z</time>
      </trkpt>
      <trkpt lat="45.9978" lon="4.54851">
        <ele>680.75</ele>
        <time>2014-03-09T12:26:26Z</time>
      </trkpt>
      <trkpt lat="45.9978" lon="4.54855">
        <ele>680.75</ele>
        <time>2014-03-09T12:26:27Z</time>
      </trkpt>
      <trkpt lat="45.9978" lon="4.5486">
        <ele>679.31</ele>
        <time>2014-03-09T12:26:28Z</time>
      </trkpt>
      <trkpt lat="45.99781" lon="4.54863">
        <ele>680.27</ele>
        <time>2014-03-09T12:26:29Z</time>
      </trkpt>
      <trkpt lat="45.99781" lon="4.54865">
        <ele>679.31</ele>
        <time>2014-03-09T12:26:30Z</time>
      </trkpt>
      <trkpt lat="45.99782" lon="4.54866">
        <ele>678.83</ele>
        <time>2014-03-09T12:26:40Z</time>
      </trkpt>
      <trkpt lat="45.99782" lon="4.54866">
        <ele>679.79</ele>
        <time>2014-03-09T12:27:02Z</time>
      </trkpt>
      <trkpt lat="45.99782" lon="4.54866">
        <ele>679.31</ele>
        <time>2014-03-09T12:27:20Z</time>
      </trkpt>
      <trkpt lat="45.99782" lon="4.54866">
        <ele>679.79</ele>
        <time>2014-03-09T12:27:39Z</time>
      </trkpt>
      <trkpt lat="45.99782" lon="4.54867">
        <ele>679.31</ele>
        <time>2014-03-09T12:27:59Z</time>
      </trkpt>
      <trkpt lat="45.99782" lon="4.54867">
        <ele>679.31</ele>
        <time>2014-03-09T12:28:20Z</time>
      </trkpt>
      <trkpt lat="45.99783" lon="4.54867">
        <ele>679.31</ele>
        <time>2014-03-09T12:28:45Z</time>
      </trkpt>
      <trkpt lat="45.99783" lon="4.54867">
        <ele>679.31</ele>
        <time>2014-03-09T12:29:08Z</time>
      </trkpt>
      <trkpt lat="45.99785" lon="4.54874">
        <ele>678.83</ele>
        <time>2014-03-09T12:29:27Z</time>
      </trkpt>
      <trkpt lat="45.99788" lon="4.54899">
        <ele>675.94</ele>
        <time>2014-03-09T12:29:33Z</time>
      </trkpt>
      <trkpt lat="45.99789" lon="4.54923">
        <ele>673.54</ele>
        <time>2014-03-09T12:29:37Z</time>
      </trkpt>
      <trkpt lat="45.99789" lon="4.54929">
        <ele>673.06</ele>
        <time>2014-03-09T12:29:38Z</time>
      </trkpt>
      <trkpt lat="45.9979" lon="4.54944">
        <ele>670.18</ele>
        <time>2014-03-09T12:29:41Z</time>
      </trkpt>
      <trkpt lat="45.9979" lon="4.54967">
        <ele>668.73</ele>
        <time>2014-03-09T12:29:45Z</time>
      </trkpt>
      <trkpt lat="45.99787" lon="4.54989">
        <ele>666.33</ele>
        <time>2014-03-09T12:29:48Z</time>
      </trkpt>
      <trkpt lat="45.99783" lon="4.55009">
        <ele>663.45</ele>
        <time>2014-03-09T12:29:51Z</time>
      </trkpt>
      <trkpt lat="45.99782" lon="4.55016">
        <ele>662.97</ele>
        <time>2014-03-09T12:29:52Z</time>
      </trkpt>
      <trkpt lat="45.9978" lon="4.55023">
        <ele>662.01</ele>
        <time>2014-03-09T12:29:53Z</time>
      </trkpt>
      <trkpt lat="45.99779" lon="4.5503">
        <ele>661.04</ele>
        <time>2014-03-09T12:29:54Z</time>
      </trkpt>
      <trkpt lat="45.99778" lon="4.55037">
        <ele>661.04</ele>
        <time>2014-03-09T12:29:55Z</time>
      </trkpt>
      <trkpt lat="45.99777" lon="4.55045">
        <ele>661.04</ele>
        <time>2014-03-09T12:29:56Z</time>
      </trkpt>
      <trkpt lat="45.99775" lon="4.55053">
        <ele>659.6</ele>
        <time>2014-03-09T12:29:57Z</time>
      </trkpt>
      <trkpt lat="45.99773" lon="4.55062">
        <ele>659.6</ele>
        <time>2014-03-09T12:29:58Z</time>
      </trkpt>
      <trkpt lat="45.9977" lon="4.55077">
        <ele>658.64</ele>
        <time>2014-03-09T12:30:00Z</time>
      </trkpt>
      <trkpt lat="45.99769" lon="4.55084">
        <ele>658.16</ele>
        <time>2014-03-09T12:30:01Z</time>
      </trkpt>
      <trkpt lat="45.99769" lon="4.55092">
        <ele>658.64</ele>
        <time>2014-03-09T12:30:02Z</time>
      </trkpt>
      <trkpt lat="45.99763" lon="4.55133">
        <ele>658.16</ele>
        <time>2014-03-09T12:30:10Z</time>
      </trkpt>
      <trkpt lat="45.99751" lon="4.55158">
        <ele>657.68</ele>
        <time>2014-03-09T12:30:19Z</time>
      </trkpt>
      <trkpt lat="45.99739" lon="4.5518">
        <ele>659.12</ele>
        <time>2014-03-09T12:30:25Z</time>
      </trkpt>
      <trkpt lat="45.99731" lon="4.55196">
        <ele>659.6</ele>
        <time>2014-03-09T12:30:31Z</time>
      </trkpt>
      <trkpt lat="45.9973" lon="4.55198">
        <ele>659.6</ele>
        <time>2014-03-09T12:30:32Z</time>
      </trkpt>
      <trkpt lat="45.99729" lon="4.552">
        <ele>659.12</ele>
        <time>2014-03-09T12:30:33Z</time>
      </trkpt>
      <trkpt lat="45.99728" lon="4.55203">
        <ele>659.6</ele>
        <time>2014-03-09T12:30:34Z</time>
      </trkpt>
      <trkpt lat="45.99726" lon="4.55205">
        <ele>659.12</ele>
        <time>2014-03-09T12:30:35Z</time>
      </trkpt>
      <trkpt lat="45.99715" lon="4.5522">
        <ele>660.56</ele>
        <time>2014-03-09T12:30:42Z</time>
      </trkpt>
      <trkpt lat="45.99714" lon="4.55222">
        <ele>660.56</ele>
        <time>2014-03-09T12:30:43Z</time>
      </trkpt>
      <trkpt lat="45.99713" lon="4.55224">
        <ele>660.08</ele>
        <time>2014-03-09T12:30:44Z</time>
      </trkpt>
      <trkpt lat="45.99712" lon="4.55226">
        <ele>661.04</ele>
        <time>2014-03-09T12:30:45Z</time>
      </trkpt>
      <trkpt lat="45.99709" lon="4.55228">
        <ele>660.56</ele>
        <time>2014-03-09T12:30:46Z</time>
      </trkpt>
      <trkpt lat="45.99707" lon="4.55231">
        <ele>659.6</ele>
        <time>2014-03-09T12:30:47Z</time>
      </trkpt>
      <trkpt lat="45.99704" lon="4.55234">
        <ele>661.04</ele>
        <time>2014-03-09T12:30:48Z</time>
      </trkpt>
      <trkpt lat="45.99701" lon="4.55238">
        <ele>660.56</ele>
        <time>2014-03-09T12:30:49Z</time>
      </trkpt>
      <trkpt lat="45.99698" lon="4.55241">
        <ele>660.08</ele>
        <time>2014-03-09T12:30:50Z</time>
      </trkpt>
      <trkpt lat="45.99668" lon="4.55276">
        <ele>658.16</ele>
        <time>2014-03-09T12:30:59Z</time>
      </trkpt>
      <trkpt lat="45.9964" lon="4.55321">
        <ele>659.12</ele>
        <time>2014-03-09T12:31:08Z</time>
      </trkpt>
      <trkpt lat="45.99638" lon="4.55322">
        <ele>659.12</ele>
        <time>2014-03-09T12:31:09Z</time>
      </trkpt>
      <trkpt lat="45.99635" lon="4.55323">
        <ele>659.6</ele>
        <time>2014-03-09T12:31:10Z</time>
      </trkpt>
      <trkpt lat="45.99606" lon="4.55315">
        <ele>659.6</ele>
        <time>2014-03-09T12:31:18Z</time>
      </trkpt>
      <trkpt lat="45.99583" lon="4.5531">
        <ele>658.16</ele>
        <time>2014-03-09T12:31:23Z</time>
      </trkpt>
      <trkpt lat="45.99579" lon="4.55311">
        <ele>658.16</ele>
        <time>2014-03-09T12:31:24Z</time>
      </trkpt>
      <trkpt lat="45.99574" lon="4.55312">
        <ele>657.68</ele>
        <time>2014-03-09T12:31:25Z</time>
      </trkpt>
      <trkpt lat="45.99569" lon="4.55313">
        <ele>658.16</ele>
        <time>2014-03-09T12:31:26Z</time>
      </trkpt>
      <trkpt lat="45.99564" lon="4.55314">
        <ele>657.68</ele>
        <time>2014-03-09T12:31:27Z</time>
      </trkpt>
      <trkpt lat="45.9956" lon="4.55316">
        <ele>657.68</ele>
        <time>2014-03-09T12:31:28Z</time>
      </trkpt>
      <trkpt lat="45.99555" lon="4.55318">
        <ele>657.2</ele>
        <time>2014-03-09T12:31:29Z</time>
      </trkpt>
      <trkpt lat="45.99551" lon="4.55319">
        <ele>657.2</ele>
        <time>2014-03-09T12:31:30Z</time>
      </trkpt>
      <trkpt lat="45.99533" lon="4.55332">
        <ele>656.24</ele>
        <time>2014-03-09T12:31:34Z</time>
      </trkpt>
      <trkpt lat="45.99518" lon="4.5535">
        <ele>655.28</ele>
        <time>2014-03-09T12:31:38Z</time>
      </trkpt>
      <trkpt lat="45.99514" lon="4.55355">
        <ele>655.76</ele>
        <time>2014-03-09T12:31:39Z</time>
      </trkpt>
      <trkpt lat="45.99511" lon="4.5536">
        <ele>655.76</ele>
        <time>2014-03-09T12:31:40Z</time>
      </trkpt>
      <trkpt lat="45.99505" lon="4.55369">
        <ele>655.76</ele>
        <time>2014-03-09T12:31:42Z</time>
      </trkpt>
      <trkpt lat="45.99492" lon="4.55408">
        <ele>657.68</ele>
        <time>2014-03-09T12:31:51Z</time>
      </trkpt>
      <trkpt lat="45.99492" lon="4.55411">
        <ele>658.16</ele>
        <time>2014-03-09T12:31:52Z</time>
      </trkpt>
      <trkpt lat="45.9949" lon="4.55423">
        <ele>659.12</ele>
        <time>2014-03-09T12:31:56Z</time>
      </trkpt>
      <trkpt lat="45.99482" lon="4.55453">
        <ele>660.08</ele>
        <time>2014-03-09T12:32:06Z</time>
      </trkpt>
      <trkpt lat="45.99482" lon="4.55456">
        <ele>660.08</ele>
        <time>2014-03-09T12:32:07Z</time>
      </trkpt>
      <trkpt lat="45.99482" lon="4.55459">
        <ele>660.08</ele>
        <time>2014-03-09T12:32:08Z</time>
      </trkpt>
      <trkpt lat="45.99481" lon="4.55462">
        <ele>660.08</ele>
        <time>2014-03-09T12:32:09Z</time>
      </trkpt>
      <trkpt lat="45.99481" lon="4.55466">
        <ele>660.56</ele>
        <time>2014-03-09T12:32:10Z</time>
      </trkpt>
      <trkpt lat="45.9948" lon="4.55469">
        <ele>660.56</ele>
        <time>2014-03-09T12:32:11Z</time>
      </trkpt>
      <trkpt lat="45.99479" lon="4.55473">
        <ele>661.04</ele>
        <time>2014-03-09T12:32:12Z</time>
      </trkpt>
      <trkpt lat="45.99476" lon="4.55487">
        <ele>661.52</ele>
        <time>2014-03-09T12:32:17Z</time>
      </trkpt>
      <trkpt lat="45.99475" lon="4.55489">
        <ele>662.01</ele>
        <time>2014-03-09T12:32:18Z</time>
      </trkpt>
      <trkpt lat="45.99475" lon="4.55492">
        <ele>661.52</ele>
        <time>2014-03-09T12:32:19Z</time>
      </trkpt>
      <trkpt lat="45.99468" lon="4.55522">
        <ele>661.52</ele>
        <time>2014-03-09T12:32:27Z</time>
      </trkpt>
      <trkpt lat="45.99459" lon="4.55552">
        <ele>663.45</ele>
        <time>2014-03-09T12:32:37Z</time>
      </trkpt>
      <trkpt lat="45.99452" lon="4.55587">
        <ele>663.93</ele>
        <time>2014-03-09T12:32:48Z</time>
      </trkpt>
      <trkpt lat="45.99455" lon="4.55619">
        <ele>664.89</ele>
        <time>2014-03-09T12:32:59Z</time>
      </trkpt>
      <trkpt lat="45.99459" lon="4.55647">
        <ele>664.89</ele>
        <time>2014-03-09T12:33:08Z</time>
      </trkpt>
      <trkpt lat="45.99462" lon="4.55684">
        <ele>665.37</ele>
        <time>2014-03-09T12:33:19Z</time>
      </trkpt>
      <trkpt lat="45.99464" lon="4.55712">
        <ele>667.29</ele>
        <time>2014-03-09T12:33:29Z</time>
      </trkpt>
      <trkpt lat="45.99464" lon="4.55713">
        <ele>667.29</ele>
        <time>2014-03-09T12:33:30Z</time>
      </trkpt>
      <trkpt lat="45.99465" lon="4.55717">
        <ele>667.77</ele>
        <time>2014-03-09T12:33:32Z</time>
      </trkpt>
      <trkpt lat="45.99465" lon="4.5572">
        <ele>667.77</ele>
        <time>2014-03-09T12:33:33Z</time>
      </trkpt>
      <trkpt lat="45.99464" lon="4.55729">
        <ele>668.25</ele>
        <time>2014-03-09T12:33:36Z</time>
      </trkpt>
      <trkpt lat="45.99464" lon="4.55731">
        <ele>668.73</ele>
        <time>2014-03-09T12:33:37Z</time>
      </trkpt>
      <trkpt lat="45.99463" lon="4.55733">
        <ele>668.25</ele>
        <time>2014-03-09T12:33:38Z</time>
      </trkpt>
      <trkpt lat="45.99463" lon="4.55735">
        <ele>668.73</ele>
        <time>2014-03-09T12:33:39Z</time>
      </trkpt>
      <trkpt lat="45.99462" lon="4.55737">
        <ele>668.73</ele>
        <time>2014-03-09T12:33:40Z</time>
      </trkpt>
      <trkpt lat="45.99451" lon="4.55743">
        <ele>669.7</ele>
        <time>2014-03-09T12:33:47Z</time>
      </trkpt>
      <trkpt lat="45.99427" lon="4.5574">
        <ele>670.18</ele>
        <time>2014-03-09T12:33:58Z</time>
      </trkpt>
      <trkpt lat="45.994" lon="4.55743">
        <ele>671.62</ele>
        <time>2014-03-09T12:34:10Z</time>
      </trkpt>
      <trkpt lat="45.99382" lon="4.55748">
        <ele>672.58</ele>
        <time>2014-03-09T12:34:20Z</time>
      </trkpt>
      <trkpt lat="45.99367" lon="4.55754">
        <ele>674.02</ele>
        <time>2014-03-09T12:34:31Z</time>
      </trkpt>
      <trkpt lat="45.99351" lon="4.5576">
        <ele>675.94</ele>
        <time>2014-03-09T12:34:42Z</time>
      </trkpt>
      <trkpt lat="45.99334" lon="4.55769">
        <ele>676.42</ele>
        <time>2014-03-09T12:34:53Z</time>
      </trkpt>
      <trkpt lat="45.99322" lon="4.55786">
        <ele>677.39</ele>
        <time>2014-03-09T12:35:04Z</time>
      </trkpt>
      <trkpt lat="45.99317" lon="4.55807">
        <ele>678.35</ele>
        <time>2014-03-09T12:35:14Z</time>
      </trkpt>
      <trkpt lat="45.9932" lon="4.55833">
        <ele>677.87</ele>
        <time>2014-03-09T12:35:23Z</time>
      </trkpt>
      <trkpt lat="45.99327" lon="4.55863">
        <ele>677.87</ele>
        <time>2014-03-09T12:35:32Z</time>
      </trkpt>
      <trkpt lat="45.99335" lon="4.55894">
        <ele>677.87</ele>
        <time>2014-03-09T12:35:41Z</time>
      </trkpt>
      <trkpt lat="45.99335" lon="4.55903">
        <ele>677.87</ele>
        <time>2014-03-09T12:35:43Z</time>
      </trkpt>
      <trkpt lat="45.99332" lon="4.55915">
        <ele>677.87</ele>
        <time>2014-03-09T12:35:47Z</time>
      </trkpt>
      <trkpt lat="45.99308" lon="4.55927">
        <ele>678.35</ele>
        <time>2014-03-09T12:35:57Z</time>
      </trkpt>
      <trkpt lat="45.99283" lon="4.55932">
        <ele>678.35</ele>
        <time>2014-03-09T12:36:07Z</time>
      </trkpt>
      <trkpt lat="45.99263" lon="4.55938">
        <ele>679.79</ele>
        <time>2014-03-09T12:36:16Z</time>
      </trkpt>
      <trkpt lat="45.99247" lon="4.5594">
        <ele>681.71</ele>
        <time>2014-03-09T12:36:24Z</time>
      </trkpt>
      <trkpt lat="45.99235" lon="4.55939">
        <ele>683.15</ele>
        <time>2014-03-09T12:36:32Z</time>
      </trkpt>
      <trkpt lat="45.99231" lon="4.55937">
        <ele>683.63</ele>
        <time>2014-03-09T12:36:35Z</time>
      </trkpt>
      <trkpt lat="45.99224" lon="4.55935">
        <ele>684.6</ele>
        <time>2014-03-09T12:36:40Z</time>
      </trkpt>
      <trkpt lat="45.99221" lon="4.55934">
        <ele>684.6</ele>
        <time>2014-03-09T12:36:42Z</time>
      </trkpt>
      <trkpt lat="45.99203" lon="4.5593">
        <ele>687</ele>
        <time>2014-03-09T12:36:54Z</time>
      </trkpt>
      <trkpt lat="45.99198" lon="4.55929">
        <ele>687.48</ele>
        <time>2014-03-09T12:36:58Z</time>
      </trkpt>
      <trkpt lat="45.99194" lon="4.55928">
        <ele>687.96</ele>
        <time>2014-03-09T12:37:08Z</time>
      </trkpt>
      <trkpt lat="45.99192" lon="4.55928">
        <ele>687.48</ele>
        <time>2014-03-09T12:37:29Z</time>
      </trkpt>
      <trkpt lat="45.99188" lon="4.55929">
        <ele>687</ele>
        <time>2014-03-09T12:37:32Z</time>
      </trkpt>
      <trkpt lat="45.99182" lon="4.55927">
        <ele>687</ele>
        <time>2014-03-09T12:37:41Z</time>
      </trkpt>
      <trkpt lat="45.99182" lon="4.55927">
        <ele>687</ele>
        <time>2014-03-09T12:37:59Z</time>
      </trkpt>
      <trkpt lat="45.99182" lon="4.55927">
        <ele>687</ele>
        <time>2014-03-09T12:38:24Z</time>
      </trkpt>
      <trkpt lat="45.99182" lon="4.55927">
        <ele>686.52</ele>
        <time>2014-03-09T12:38:36Z</time>
      </trkpt>
      <trkpt lat="45.99182" lon="4.55927">
        <ele>687</ele>
        <time>2014-03-09T12:38:59Z</time>
      </trkpt>
      <trkpt lat="45.99182" lon="4.55927">
        <ele>687</ele>
        <time>2014-03-09T12:39:25Z</time>
      </trkpt>
      <trkpt lat="45.99182" lon="4.55927">
        <ele>686.52</ele>
        <time>2014-03-09T12:39:45Z</time>
      </trkpt>
      <trkpt lat="45.99182" lon="4.55927">
        <ele>687</ele>
        <time>2014-03-09T12:40:11Z</time>
      </trkpt>
      <trkpt lat="45.99182" lon="4.55927">
        <ele>686.52</ele>
        <time>2014-03-09T12:40:36Z</time>
      </trkpt>
      <trkpt lat="45.99182" lon="4.55928">
        <ele>686.52</ele>
        <time>2014-03-09T12:40:54Z</time>
      </trkpt>
      <trkpt lat="45.99182" lon="4.55928">
        <ele>686.52</ele>
        <time>2014-03-09T12:41:13Z</time>
      </trkpt>
      <trkpt lat="45.99182" lon="4.55928">
        <ele>686.52</ele>
        <time>2014-03-09T12:41:16Z</time>
      </trkpt>
      <trkpt lat="45.99166" lon="4.55923">
        <ele>686.52</ele>
        <time>2014-03-09T12:41:26Z</time>
      </trkpt>
      <trkpt lat="45.99139" lon="4.55918">
        <ele>687</ele>
        <time>2014-03-09T12:41:36Z</time>
      </trkpt>
      <trkpt lat="45.9911" lon="4.55925">
        <ele>686.52</ele>
        <time>2014-03-09T12:41:47Z</time>
      </trkpt>
      <trkpt lat="45.99101" lon="4.55946">
        <ele>683.63</ele>
        <time>2014-03-09T12:41:53Z</time>
      </trkpt>
      <trkpt lat="45.99103" lon="4.55987">
        <ele>681.23</ele>
        <time>2014-03-09T12:42:00Z</time>
      </trkpt>
      <trkpt lat="45.99104" lon="4.55996">
        <ele>681.23</ele>
        <time>2014-03-09T12:42:01Z</time>
      </trkpt>
      <trkpt lat="45.99101" lon="4.56027">
        <ele>679.79</ele>
        <time>2014-03-09T12:42:04Z</time>
      </trkpt>
      <trkpt lat="45.99098" lon="4.56037">
        <ele>679.31</ele>
        <time>2014-03-09T12:42:05Z</time>
      </trkpt>
      <trkpt lat="45.99094" lon="4.56046">
        <ele>678.83</ele>
        <time>2014-03-09T12:42:06Z</time>
      </trkpt>
      <trkpt lat="45.99089" lon="4.56054">
        <ele>677.87</ele>
        <time>2014-03-09T12:42:07Z</time>
      </trkpt>
      <trkpt lat="45.99083" lon="4.56061">
        <ele>677.87</ele>
        <time>2014-03-09T12:42:08Z</time>
      </trkpt>
      <trkpt lat="45.99076" lon="4.56068">
        <ele>676.42</ele>
        <time>2014-03-09T12:42:09Z</time>
      </trkpt>
      <trkpt lat="45.9907" lon="4.56075">
        <ele>675.46</ele>
        <time>2014-03-09T12:42:10Z</time>
      </trkpt>
      <trkpt lat="45.99055" lon="4.56094">
        <ele>673.06</ele>
        <time>2014-03-09T12:42:15Z</time>
      </trkpt>
      <trkpt lat="45.99054" lon="4.56095">
        <ele>673.54</ele>
        <time>2014-03-09T12:42:16Z</time>
      </trkpt>
      <trkpt lat="45.99053" lon="4.56097">
        <ele>673.06</ele>
        <time>2014-03-09T12:42:17Z</time>
      </trkpt>
      <trkpt lat="45.99047" lon="4.56104">
        <ele>672.58</ele>
        <time>2014-03-09T12:42:24Z</time>
      </trkpt>
      <trkpt lat="45.99031" lon="4.56104">
        <ele>670.66</ele>
        <time>2014-03-09T12:42:29Z</time>
      </trkpt>
      <trkpt lat="45.99027" lon="4.56104">
        <ele>669.22</ele>
        <time>2014-03-09T12:42:30Z</time>
      </trkpt>
      <trkpt lat="45.99004" lon="4.56112">
        <ele>665.37</ele>
        <time>2014-03-09T12:42:34Z</time>
      </trkpt>
      <trkpt lat="45.98992" lon="4.56115">
        <ele>663.45</ele>
        <time>2014-03-09T12:42:36Z</time>
      </trkpt>
      <trkpt lat="45.98982" lon="4.5612">
        <ele>661.04</ele>
        <time>2014-03-09T12:42:38Z</time>
      </trkpt>
      <trkpt lat="45.98977" lon="4.5612">
        <ele>659.6</ele>
        <time>2014-03-09T12:42:39Z</time>
      </trkpt>
      <trkpt lat="45.98973" lon="4.56121">
        <ele>658.64</ele>
        <time>2014-03-09T12:42:40Z</time>
      </trkpt>
      <trkpt lat="45.98968" lon="4.56122">
        <ele>658.64</ele>
        <time>2014-03-09T12:42:41Z</time>
      </trkpt>
      <trkpt lat="45.98962" lon="4.56123">
        <ele>658.16</ele>
        <time>2014-03-09T12:42:42Z</time>
      </trkpt>
      <trkpt lat="45.98956" lon="4.56122">
        <ele>657.2</ele>
        <time>2014-03-09T12:42:43Z</time>
      </trkpt>
      <trkpt lat="45.9895" lon="4.56121">
        <ele>655.28</ele>
        <time>2014-03-09T12:42:44Z</time>
      </trkpt>
      <trkpt lat="45.98945" lon="4.56121">
        <ele>654.8</ele>
        <time>2014-03-09T12:42:45Z</time>
      </trkpt>
      <trkpt lat="45.9894" lon="4.56121">
        <ele>653.35</ele>
        <time>2014-03-09T12:42:46Z</time>
      </trkpt>
      <trkpt lat="45.98935" lon="4.56122">
        <ele>652.87</ele>
        <time>2014-03-09T12:42:47Z</time>
      </trkpt>
      <trkpt lat="45.98931" lon="4.56126">
        <ele>652.39</ele>
        <time>2014-03-09T12:42:48Z</time>
      </trkpt>
      <trkpt lat="45.98926" lon="4.56131">
        <ele>651.43</ele>
        <time>2014-03-09T12:42:49Z</time>
      </trkpt>
      <trkpt lat="45.98921" lon="4.56138">
        <ele>650.95</ele>
        <time>2014-03-09T12:42:50Z</time>
      </trkpt>
      <trkpt lat="45.9891" lon="4.56149">
        <ele>649.99</ele>
        <time>2014-03-09T12:42:52Z</time>
      </trkpt>
      <trkpt lat="45.98905" lon="4.56154">
        <ele>649.03</ele>
        <time>2014-03-09T12:42:53Z</time>
      </trkpt>
      <trkpt lat="45.98899" lon="4.56157">
        <ele>648.07</ele>
        <time>2014-03-09T12:42:54Z</time>
      </trkpt>
      <trkpt lat="45.98892" lon="4.56157">
        <ele>648.07</ele>
        <time>2014-03-09T12:42:55Z</time>
      </trkpt>
      <trkpt lat="45.98886" lon="4.56154">
        <ele>647.1</ele>
        <time>2014-03-09T12:42:56Z</time>
      </trkpt>
      <trkpt lat="45.9888" lon="4.56148">
        <ele>646.14</ele>
        <time>2014-03-09T12:42:57Z</time>
      </trkpt>
      <trkpt lat="45.98875" lon="4.56142">
        <ele>644.7</ele>
        <time>2014-03-09T12:42:58Z</time>
      </trkpt>
      <trkpt lat="45.98868" lon="4.56134">
        <ele>644.7</ele>
        <time>2014-03-09T12:42:59Z</time>
      </trkpt>
      <trkpt lat="45.98831" lon="4.56084">
        <ele>641.34</ele>
        <time>2014-03-09T12:43:05Z</time>
      </trkpt>
      <trkpt lat="45.98825" lon="4.56078">
        <ele>641.34</ele>
        <time>2014-03-09T12:43:06Z</time>
      </trkpt>
      <trkpt lat="45.98786" lon="4.56031">
        <ele>637.97</ele>
        <time>2014-03-09T12:43:13Z</time>
      </trkpt>
      <trkpt lat="45.98779" lon="4.56024">
        <ele>637.97</ele>
        <time>2014-03-09T12:43:14Z</time>
      </trkpt>
      <trkpt lat="45.98756" lon="4.55993">
        <ele>636.05</ele>
        <time>2014-03-09T12:43:18Z</time>
      </trkpt>
      <trkpt lat="45.98706" lon="4.55925">
        <ele>631.72</ele>
        <time>2014-03-09T12:43:26Z</time>
      </trkpt>
      <trkpt lat="45.98694" lon="4.55913">
        <ele>630.76</ele>
        <time>2014-03-09T12:43:28Z</time>
      </trkpt>
      <trkpt lat="45.98688" lon="4.55908">
        <ele>630.76</ele>
        <time>2014-03-09T12:43:29Z</time>
      </trkpt>
      <trkpt lat="45.98666" lon="4.55897">
        <ele>629.32</ele>
        <time>2014-03-09T12:43:32Z</time>
      </trkpt>
      <trkpt lat="45.98659" lon="4.55895">
        <ele>628.36</ele>
        <time>2014-03-09T12:43:33Z</time>
      </trkpt>
      <trkpt lat="45.98638" lon="4.55894">
        <ele>627.4</ele>
        <time>2014-03-09T12:43:36Z</time>
      </trkpt>
      <trkpt lat="45.98617" lon="4.559">
        <ele>624.99</ele>
        <time>2014-03-09T12:43:39Z</time>
      </trkpt>
      <trkpt lat="45.9861" lon="4.55905">
        <ele>624.03</ele>
        <time>2014-03-09T12:43:40Z</time>
      </trkpt>
      <trkpt lat="45.98582" lon="4.55928">
        <ele>619.71</ele>
        <time>2014-03-09T12:43:44Z</time>
      </trkpt>
      <trkpt lat="45.98565" lon="4.55946">
        <ele>616.34</ele>
        <time>2014-03-09T12:43:47Z</time>
      </trkpt>
      <trkpt lat="45.9856" lon="4.55954">
        <ele>615.38</ele>
        <time>2014-03-09T12:43:48Z</time>
      </trkpt>
      <trkpt lat="45.98556" lon="4.55963">
        <ele>613.94</ele>
        <time>2014-03-09T12:43:49Z</time>
      </trkpt>
      <trkpt lat="45.98552" lon="4.55972">
        <ele>612.98</ele>
        <time>2014-03-09T12:43:50Z</time>
      </trkpt>
      <trkpt lat="45.98549" lon="4.55982">
        <ele>612.02</ele>
        <time>2014-03-09T12:43:51Z</time>
      </trkpt>
      <trkpt lat="45.9854" lon="4.56013">
        <ele>608.65</ele>
        <time>2014-03-09T12:43:55Z</time>
      </trkpt>
      <trkpt lat="45.98537" lon="4.56017">
        <ele>608.65</ele>
        <time>2014-03-09T12:43:56Z</time>
      </trkpt>
      <trkpt lat="45.98533" lon="4.56021">
        <ele>608.17</ele>
        <time>2014-03-09T12:43:57Z</time>
      </trkpt>
      <trkpt lat="45.98529" lon="4.56024">
        <ele>607.69</ele>
        <time>2014-03-09T12:43:58Z</time>
      </trkpt>
      <trkpt lat="45.98524" lon="4.56023">
        <ele>608.17</ele>
        <time>2014-03-09T12:43:59Z</time>
      </trkpt>
      <trkpt lat="45.9852" lon="4.5602">
        <ele>607.69</ele>
        <time>2014-03-09T12:44:00Z</time>
      </trkpt>
      <trkpt lat="45.98498" lon="4.56002">
        <ele>607.21</ele>
        <time>2014-03-09T12:44:05Z</time>
      </trkpt>
      <trkpt lat="45.98493" lon="4.55997">
        <ele>606.73</ele>
        <time>2014-03-09T12:44:06Z</time>
      </trkpt>
      <trkpt lat="45.98484" lon="4.55986">
        <ele>606.73</ele>
        <time>2014-03-09T12:44:08Z</time>
      </trkpt>
      <trkpt lat="45.9848" lon="4.55981">
        <ele>607.21</ele>
        <time>2014-03-09T12:44:09Z</time>
      </trkpt>
      <trkpt lat="45.98468" lon="4.55965">
        <ele>606.25</ele>
        <time>2014-03-09T12:44:12Z</time>
      </trkpt>
      <trkpt lat="45.98457" lon="4.55949">
        <ele>605.77</ele>
        <time>2014-03-09T12:44:15Z</time>
      </trkpt>
      <trkpt lat="45.98452" lon="4.55944">
        <ele>604.81</ele>
        <time>2014-03-09T12:44:16Z</time>
      </trkpt>
      <trkpt lat="45.98447" lon="4.55939">
        <ele>604.33</ele>
        <time>2014-03-09T12:44:17Z</time>
      </trkpt>
      <trkpt lat="45.98442" lon="4.55935">
        <ele>602.4</ele>
        <time>2014-03-09T12:44:18Z</time>
      </trkpt>
      <trkpt lat="45.98437" lon="4.55931">
        <ele>602.4</ele>
        <time>2014-03-09T12:44:19Z</time>
      </trkpt>
      <trkpt lat="45.98432" lon="4.55929">
        <ele>601.44</ele>
        <time>2014-03-09T12:44:20Z</time>
      </trkpt>
      <trkpt lat="45.98427" lon="4.55927">
        <ele>600.96</ele>
        <time>2014-03-09T12:44:21Z</time>
      </trkpt>
      <trkpt lat="45.98422" lon="4.55926">
        <ele>600.48</ele>
        <time>2014-03-09T12:44:22Z</time>
      </trkpt>
      <trkpt lat="45.98419" lon="4.55925">
        <ele>599.52</ele>
        <time>2014-03-09T12:44:23Z</time>
      </trkpt>
      <trkpt lat="45.98419" lon="4.55924">
        <ele>599.04</ele>
        <time>2014-03-09T12:44:24Z</time>
      </trkpt>
      <trkpt lat="45.98419" lon="4.55924">
        <ele>599.04</ele>
        <time>2014-03-09T12:44:39Z</time>
      </trkpt>
      <trkpt lat="45.98419" lon="4.55924">
        <ele>598.56</ele>
        <time>2014-03-09T12:44:47Z</time>
      </trkpt>
      <trkpt lat="45.98419" lon="4.55923">
        <ele>599.52</ele>
        <time>2014-03-09T12:44:55Z</time>
      </trkpt>
      <trkpt lat="45.98418" lon="4.55921">
        <ele>599.04</ele>
        <time>2014-03-09T12:45:04Z</time>
      </trkpt>
      <trkpt lat="45.98415" lon="4.55921">
        <ele>599.04</ele>
        <time>2014-03-09T12:45:11Z</time>
      </trkpt>
      <trkpt lat="45.98415" lon="4.55921">
        <ele>599.04</ele>
        <time>2014-03-09T12:45:23Z</time>
      </trkpt>
      <trkpt lat="45.98415" lon="4.55921">
        <ele>598.56</ele>
        <time>2014-03-09T12:45:37Z</time>
      </trkpt>
      <trkpt lat="45.98415" lon="4.55921">
        <ele>599.52</ele>
        <time>2014-03-09T12:45:53Z</time>
      </trkpt>
      <trkpt lat="45.98415" lon="4.55921">
        <ele>598.56</ele>
        <time>2014-03-09T12:46:13Z</time>
      </trkpt>
      <trkpt lat="45.98414" lon="4.55921">
        <ele>599.04</ele>
        <time>2014-03-09T12:46:34Z</time>
      </trkpt>
      <trkpt lat="45.98414" lon="4.55921">
        <ele>599.52</ele>
        <time>2014-03-09T12:46:48Z</time>
      </trkpt>
      <trkpt lat="45.98414" lon="4.55921">
        <ele>599.04</ele>
        <time>2014-03-09T12:47:02Z</time>
      </trkpt>
      <trkpt lat="45.98414" lon="4.55922">
        <ele>599.52</ele>
        <time>2014-03-09T12:47:11Z</time>
      </trkpt>
      <trkpt lat="45.98414" lon="4.55922">
        <ele>600</ele>
        <time>2014-03-09T12:47:24Z</time>
      </trkpt>
      <trkpt lat="45.98414" lon="4.55922">
        <ele>596.15</ele>
        <time>2014-03-09T12:47:30Z</time>
      </trkpt>
      <trkpt lat="45.98414" lon="4.55922">
        <ele>597.12</ele>
        <time>2014-03-09T12:47:31Z</time>
      </trkpt>
      <trkpt lat="45.98414" lon="4.55922">
        <ele>600.48</ele>
        <time>2014-03-09T12:47:32Z</time>
      </trkpt>
      <trkpt lat="45.98414" lon="4.55922">
        <ele>599.52</ele>
        <time>2014-03-09T12:47:33Z</time>
      </trkpt>
      <trkpt lat="45.98414" lon="4.55922">
        <ele>599.04</ele>
        <time>2014-03-09T12:47:47Z</time>
      </trkpt>
      <trkpt lat="45.98414" lon="4.55922">
        <ele>599.04</ele>
        <time>2014-03-09T12:48:01Z</time>
      </trkpt>
      <trkpt lat="45.98414" lon="4.55922">
        <ele>599.52</ele>
        <time>2014-03-09T12:48:18Z</time>
      </trkpt>
      <trkpt lat="45.98414" lon="4.55922">
        <ele>599.52</ele>
        <time>2014-03-09T12:48:40Z</time>
      </trkpt>
      <trkpt lat="45.98414" lon="4.55922">
        <ele>599.52</ele>
        <time>2014-03-09T12:48:56Z</time>
      </trkpt>
      <trkpt lat="45.98415" lon="4.55921">
        <ele>600</ele>
        <time>2014-03-09T12:49:17Z</time>
      </trkpt>
      <trkpt lat="45.98414" lon="4.55919">
        <ele>599.52</ele>
        <time>2014-03-09T12:49:22Z</time>
      </trkpt>
      <trkpt lat="45.98427" lon="4.55905">
        <ele>598.08</ele>
        <time>2014-03-09T12:49:29Z</time>
      </trkpt>
      <trkpt lat="45.98445" lon="4.55911">
        <ele>597.12</ele>
        <time>2014-03-09T12:49:36Z</time>
      </trkpt>
      <trkpt lat="45.98447" lon="4.55914">
        <ele>597.12</ele>
        <time>2014-03-09T12:49:37Z</time>
      </trkpt>
      <trkpt lat="45.98471" lon="4.55942">
        <ele>595.67</ele>
        <time>2014-03-09T12:49:45Z</time>
      </trkpt>
      <trkpt lat="45.98483" lon="4.55958">
        <ele>595.67</ele>
        <time>2014-03-09T12:49:48Z</time>
      </trkpt>
      <trkpt lat="45.98487" lon="4.55961">
        <ele>596.15</ele>
        <time>2014-03-09T12:49:49Z</time>
      </trkpt>
      <trkpt lat="45.98492" lon="4.55964">
        <ele>596.15</ele>
        <time>2014-03-09T12:49:50Z</time>
      </trkpt>
      <trkpt lat="45.98496" lon="4.55964">
        <ele>596.15</ele>
        <time>2014-03-09T12:49:51Z</time>
      </trkpt>
      <trkpt lat="45.9851" lon="4.55944">
        <ele>595.67</ele>
        <time>2014-03-09T12:49:55Z</time>
      </trkpt>
      <trkpt lat="45.98513" lon="4.55937">
        <ele>595.19</ele>
        <time>2014-03-09T12:49:56Z</time>
      </trkpt>
      <trkpt lat="45.98529" lon="4.55885">
        <ele>594.71</ele>
        <time>2014-03-09T12:50:04Z</time>
      </trkpt>
      <trkpt lat="45.98531" lon="4.55882">
        <ele>594.23</ele>
        <time>2014-03-09T12:50:05Z</time>
      </trkpt>
      <trkpt lat="45.98533" lon="4.55877">
        <ele>594.23</ele>
        <time>2014-03-09T12:50:06Z</time>
      </trkpt>
      <trkpt lat="45.98534" lon="4.55871">
        <ele>594.23</ele>
        <time>2014-03-09T12:50:07Z</time>
      </trkpt>
      <trkpt lat="45.98536" lon="4.55864">
        <ele>593.27</ele>
        <time>2014-03-09T12:50:08Z</time>
      </trkpt>
      <trkpt lat="45.98539" lon="4.55856">
        <ele>593.27</ele>
        <time>2014-03-09T12:50:09Z</time>
      </trkpt>
      <trkpt lat="45.98548" lon="4.55825">
        <ele>592.31</ele>
        <time>2014-03-09T12:50:13Z</time>
      </trkpt>
      <trkpt lat="45.98565" lon="4.55785">
        <ele>591.35</ele>
        <time>2014-03-09T12:50:19Z</time>
      </trkpt>
      <trkpt lat="45.98567" lon="4.55779">
        <ele>591.35</ele>
        <time>2014-03-09T12:50:20Z</time>
      </trkpt>
      <trkpt lat="45.9857" lon="4.55772">
        <ele>590.87</ele>
        <time>2014-03-09T12:50:21Z</time>
      </trkpt>
      <trkpt lat="45.98572" lon="4.55765">
        <ele>590.87</ele>
        <time>2014-03-09T12:50:22Z</time>
      </trkpt>
      <trkpt lat="45.98574" lon="4.55759">
        <ele>590.39</ele>
        <time>2014-03-09T12:50:23Z</time>
      </trkpt>
      <trkpt lat="45.98576" lon="4.55752">
        <ele>589.91</ele>
        <time>2014-03-09T12:50:24Z</time>
      </trkpt>
      <trkpt lat="45.98579" lon="4.55746">
        <ele>589.91</ele>
        <time>2014-03-09T12:50:25Z</time>
      </trkpt>
      <trkpt lat="45.98582" lon="4.5574">
        <ele>589.43</ele>
        <time>2014-03-09T12:50:26Z</time>
      </trkpt>
      <trkpt lat="45.98585" lon="4.55733">
        <ele>589.43</ele>
        <time>2014-03-09T12:50:27Z</time>
      </trkpt>
      <trkpt lat="45.98588" lon="4.55726">
        <ele>589.43</ele>
        <time>2014-03-09T12:50:28Z</time>
      </trkpt>
      <trkpt lat="45.98597" lon="4.55707">
        <ele>588.95</ele>
        <time>2014-03-09T12:50:31Z</time>
      </trkpt>
      <trkpt lat="45.98598" lon="4.557">
        <ele>587.98</ele>
        <time>2014-03-09T12:50:32Z</time>
      </trkpt>
      <trkpt lat="45.98599" lon="4.55693">
        <ele>587.02</ele>
        <time>2014-03-09T12:50:33Z</time>
      </trkpt>
      <trkpt lat="45.98599" lon="4.55687">
        <ele>586.06</ele>
        <time>2014-03-09T12:50:34Z</time>
      </trkpt>
      <trkpt lat="45.98598" lon="4.5568">
        <ele>585.1</ele>
        <time>2014-03-09T12:50:35Z</time>
      </trkpt>
      <trkpt lat="45.98597" lon="4.55673">
        <ele>584.14</ele>
        <time>2014-03-09T12:50:36Z</time>
      </trkpt>
      <trkpt lat="45.98594" lon="4.55667">
        <ele>582.7</ele>
        <time>2014-03-09T12:50:37Z</time>
      </trkpt>
      <trkpt lat="45.98592" lon="4.55663">
        <ele>582.22</ele>
        <time>2014-03-09T12:50:38Z</time>
      </trkpt>
      <trkpt lat="45.98591" lon="4.55658">
        <ele>581.25</ele>
        <time>2014-03-09T12:50:39Z</time>
      </trkpt>
      <trkpt lat="45.9859" lon="4.55653">
        <ele>580.29</ele>
        <time>2014-03-09T12:50:40Z</time>
      </trkpt>
      <trkpt lat="45.9859" lon="4.55636">
        <ele>576.93</ele>
        <time>2014-03-09T12:50:43Z</time>
      </trkpt>
      <trkpt lat="45.9859" lon="4.55618">
        <ele>573.56</ele>
        <time>2014-03-09T12:50:47Z</time>
      </trkpt>
      <trkpt lat="45.98589" lon="4.55613">
        <ele>572.12</ele>
        <time>2014-03-09T12:50:48Z</time>
      </trkpt>
      <trkpt lat="45.98585" lon="4.55589">
        <ele>568.76</ele>
        <time>2014-03-09T12:50:53Z</time>
      </trkpt>
      <trkpt lat="45.98581" lon="4.55568">
        <ele>564.91</ele>
        <time>2014-03-09T12:50:57Z</time>
      </trkpt>
      <trkpt lat="45.98574" lon="4.55554">
        <ele>561.55</ele>
        <time>2014-03-09T12:51:00Z</time>
      </trkpt>
      <trkpt lat="45.98568" lon="4.55537">
        <ele>558.66</ele>
        <time>2014-03-09T12:51:03Z</time>
      </trkpt>
      <trkpt lat="45.98564" lon="4.55526">
        <ele>557.22</ele>
        <time>2014-03-09T12:51:05Z</time>
      </trkpt>
      <trkpt lat="45.9856" lon="4.55513">
        <ele>555.3</ele>
        <time>2014-03-09T12:51:07Z</time>
      </trkpt>
      <trkpt lat="45.98553" lon="4.55496">
        <ele>553.38</ele>
        <time>2014-03-09T12:51:10Z</time>
      </trkpt>
      <trkpt lat="45.98553" lon="4.5549">
        <ele>552.41</ele>
        <time>2014-03-09T12:51:11Z</time>
      </trkpt>
      <trkpt lat="45.98551" lon="4.55477">
        <ele>550.49</ele>
        <time>2014-03-09T12:51:13Z</time>
      </trkpt>
      <trkpt lat="45.9855" lon="4.55471">
        <ele>549.53</ele>
        <time>2014-03-09T12:51:14Z</time>
      </trkpt>
      <trkpt lat="45.98548" lon="4.55459">
        <ele>548.09</ele>
        <time>2014-03-09T12:51:16Z</time>
      </trkpt>
      <trkpt lat="45.98548" lon="4.55453">
        <ele>547.13</ele>
        <time>2014-03-09T12:51:17Z</time>
      </trkpt>
      <trkpt lat="45.98549" lon="4.55448">
        <ele>547.13</ele>
        <time>2014-03-09T12:51:18Z</time>
      </trkpt>
      <trkpt lat="45.98548" lon="4.55437">
        <ele>545.69</ele>
        <time>2014-03-09T12:51:20Z</time>
      </trkpt>
      <trkpt lat="45.98546" lon="4.55431">
        <ele>545.2</ele>
        <time>2014-03-09T12:51:21Z</time>
      </trkpt>
      <trkpt lat="45.98543" lon="4.55425">
        <ele>543.76</ele>
        <time>2014-03-09T12:51:22Z</time>
      </trkpt>
      <trkpt lat="45.9854" lon="4.55421">
        <ele>543.28</ele>
        <time>2014-03-09T12:51:23Z</time>
      </trkpt>
      <trkpt lat="45.98536" lon="4.55419">
        <ele>541.84</ele>
        <time>2014-03-09T12:51:24Z</time>
      </trkpt>
      <trkpt lat="45.98532" lon="4.55417">
        <ele>541.36</ele>
        <time>2014-03-09T12:51:25Z</time>
      </trkpt>
      <trkpt lat="45.98528" lon="4.55415">
        <ele>540.88</ele>
        <time>2014-03-09T12:51:26Z</time>
      </trkpt>
      <trkpt lat="45.98524" lon="4.55411">
        <ele>540.88</ele>
        <time>2014-03-09T12:51:27Z</time>
      </trkpt>
      <trkpt lat="45.9852" lon="4.55408">
        <ele>539.44</ele>
        <time>2014-03-09T12:51:28Z</time>
      </trkpt>
      <trkpt lat="45.98517" lon="4.55403">
        <ele>538.96</ele>
        <time>2014-03-09T12:51:29Z</time>
      </trkpt>
      <trkpt lat="45.98513" lon="4.55399">
        <ele>537.51</ele>
        <time>2014-03-09T12:51:30Z</time>
      </trkpt>
      <trkpt lat="45.98509" lon="4.55395">
        <ele>536.55</ele>
        <time>2014-03-09T12:51:31Z</time>
      </trkpt>
      <trkpt lat="45.98506" lon="4.55392">
        <ele>535.59</ele>
        <time>2014-03-09T12:51:32Z</time>
      </trkpt>
      <trkpt lat="45.98504" lon="4.55389">
        <ele>534.63</ele>
        <time>2014-03-09T12:51:33Z</time>
      </trkpt>
      <trkpt lat="45.98502" lon="4.55385">
        <ele>534.15</ele>
        <time>2014-03-09T12:51:34Z</time>
      </trkpt>
      <trkpt lat="45.98497" lon="4.55378">
        <ele>532.23</ele>
        <time>2014-03-09T12:51:36Z</time>
      </trkpt>
      <trkpt lat="45.98496" lon="4.55365">
        <ele>530.3</ele>
        <time>2014-03-09T12:51:39Z</time>
      </trkpt>
      <trkpt lat="45.98501" lon="4.55347">
        <ele>526.94</ele>
        <time>2014-03-09T12:51:44Z</time>
      </trkpt>
      <trkpt lat="45.9851" lon="4.55337">
        <ele>525.98</ele>
        <time>2014-03-09T12:51:48Z</time>
      </trkpt>
      <trkpt lat="45.9852" lon="4.5533">
        <ele>524.06</ele>
        <time>2014-03-09T12:51:52Z</time>
      </trkpt>
      <trkpt lat="45.98532" lon="4.55323">
        <ele>520.69</ele>
        <time>2014-03-09T12:51:56Z</time>
      </trkpt>
      <trkpt lat="45.98543" lon="4.55321">
        <ele>518.77</ele>
        <time>2014-03-09T12:51:59Z</time>
      </trkpt>
      <trkpt lat="45.9856" lon="4.55319">
        <ele>515.4</ele>
        <time>2014-03-09T12:52:03Z</time>
      </trkpt>
      <trkpt lat="45.98572" lon="4.55319">
        <ele>512.52</ele>
        <time>2014-03-09T12:52:06Z</time>
      </trkpt>
      <trkpt lat="45.98577" lon="4.5532">
        <ele>511.56</ele>
        <time>2014-03-09T12:52:07Z</time>
      </trkpt>
      <trkpt lat="45.98594" lon="4.55327">
        <ele>508.19</ele>
        <time>2014-03-09T12:52:12Z</time>
      </trkpt>
      <trkpt lat="45.98594" lon="4.55329">
        <ele>507.23</ele>
        <time>2014-03-09T12:52:13Z</time>
      </trkpt>
      <trkpt lat="45.98596" lon="4.55331">
        <ele>506.75</ele>
        <time>2014-03-09T12:52:14Z</time>
      </trkpt>
      <trkpt lat="45.98603" lon="4.55343">
        <ele>503.39</ele>
        <time>2014-03-09T12:52:19Z</time>
      </trkpt>
      <trkpt lat="45.98612" lon="4.55359">
        <ele>501.95</ele>
        <time>2014-03-09T12:52:25Z</time>
      </trkpt>
      <trkpt lat="45.98617" lon="4.55359">
        <ele>501.46</ele>
        <time>2014-03-09T12:52:26Z</time>
      </trkpt>
      <trkpt lat="45.98622" lon="4.55356">
        <ele>501.95</ele>
        <time>2014-03-09T12:52:28Z</time>
      </trkpt>
      <trkpt lat="45.98626" lon="4.55346">
        <ele>501.46</ele>
        <time>2014-03-09T12:52:37Z</time>
      </trkpt>
      <trkpt lat="45.98626" lon="4.55346">
        <ele>501.46</ele>
        <time>2014-03-09T12:52:52Z</time>
      </trkpt>
      <trkpt lat="45.98626" lon="4.55346">
        <ele>500.98</ele>
        <time>2014-03-09T12:53:06Z</time>
      </trkpt>
      <trkpt lat="45.98626" lon="4.55346">
        <ele>501.46</ele>
        <time>2014-03-09T12:53:24Z</time>
      </trkpt>
      <trkpt lat="45.98626" lon="4.55346">
        <ele>500.5</ele>
        <time>2014-03-09T12:53:43Z</time>
      </trkpt>
      <trkpt lat="45.98626" lon="4.55345">
        <ele>500.5</ele>
        <time>2014-03-09T12:53:57Z</time>
      </trkpt>
      <trkpt lat="45.98626" lon="4.55345">
        <ele>500.98</ele>
        <time>2014-03-09T12:54:11Z</time>
      </trkpt>
      <trkpt lat="45.98626" lon="4.55345">
        <ele>500.5</ele>
        <time>2014-03-09T12:54:25Z</time>
      </trkpt>
      <trkpt lat="45.9863" lon="4.55324">
        <ele>499.06</ele>
        <time>2014-03-09T12:54:30Z</time>
      </trkpt>
      <trkpt lat="45.98631" lon="4.55317">
        <ele>498.1</ele>
        <time>2014-03-09T12:54:31Z</time>
      </trkpt>
      <trkpt lat="45.98632" lon="4.55309">
        <ele>498.1</ele>
        <time>2014-03-09T12:54:32Z</time>
      </trkpt>
      <trkpt lat="45.98634" lon="4.55302">
        <ele>497.62</ele>
        <time>2014-03-09T12:54:33Z</time>
      </trkpt>
      <trkpt lat="45.98636" lon="4.55295">
        <ele>497.14</ele>
        <time>2014-03-09T12:54:34Z</time>
      </trkpt>
      <trkpt lat="45.98638" lon="4.55281">
        <ele>496.18</ele>
        <time>2014-03-09T12:54:36Z</time>
      </trkpt>
      <trkpt lat="45.9864" lon="4.55275">
        <ele>495.22</ele>
        <time>2014-03-09T12:54:37Z</time>
      </trkpt>
      <trkpt lat="45.98642" lon="4.5527">
        <ele>495.22</ele>
        <time>2014-03-09T12:54:38Z</time>
      </trkpt>
      <trkpt lat="45.98652" lon="4.55256">
        <ele>493.77</ele>
        <time>2014-03-09T12:54:41Z</time>
      </trkpt>
      <trkpt lat="45.9868" lon="4.55224">
        <ele>491.85</ele>
        <time>2014-03-09T12:54:47Z</time>
      </trkpt>
      <trkpt lat="45.98684" lon="4.55219">
        <ele>490.89</ele>
        <time>2014-03-09T12:54:48Z</time>
      </trkpt>
      <trkpt lat="45.98696" lon="4.55206">
        <ele>488.49</ele>
        <time>2014-03-09T12:54:52Z</time>
      </trkpt>
      <trkpt lat="45.98697" lon="4.55201">
        <ele>488.01</ele>
        <time>2014-03-09T12:54:56Z</time>
      </trkpt>
      <trkpt lat="45.9869" lon="4.55189">
        <ele>488.97</ele>
        <time>2014-03-09T12:55:04Z</time>
      </trkpt>
      <trkpt lat="45.9869" lon="4.55189">
        <ele>489.45</ele>
        <time>2014-03-09T12:55:13Z</time>
      </trkpt>
      <trkpt lat="45.98691" lon="4.55188">
        <ele>482.72</ele>
        <time>2014-03-09T12:55:19Z</time>
      </trkpt>
      <trkpt lat="45.98691" lon="4.55188">
        <ele>489.45</ele>
        <time>2014-03-09T12:55:20Z</time>
      </trkpt>
      <trkpt lat="45.9869" lon="4.55186">
        <ele>488.97</ele>
        <time>2014-03-09T12:55:32Z</time>
      </trkpt>
      <trkpt lat="45.98688" lon="4.55185">
        <ele>488.97</ele>
        <time>2014-03-09T12:55:51Z</time>
      </trkpt>
      <trkpt lat="45.98686" lon="4.55182">
        <ele>488.49</ele>
        <time>2014-03-09T12:56:00Z</time>
      </trkpt>
      <trkpt lat="45.98686" lon="4.55182">
        <ele>488.49</ele>
        <time>2014-03-09T12:56:20Z</time>
      </trkpt>
      <trkpt lat="45.98686" lon="4.55182">
        <ele>488.49</ele>
        <time>2014-03-09T12:56:35Z</time>
      </trkpt>
      <trkpt lat="45.98685" lon="4.55182">
        <ele>488.01</ele>
        <time>2014-03-09T12:56:46Z</time>
      </trkpt>
      <trkpt lat="45.98685" lon="4.55182">
        <ele>488.49</ele>
        <time>2014-03-09T12:57:04Z</time>
      </trkpt>
      <trkpt lat="45.98684" lon="4.55182">
        <ele>488.49</ele>
        <time>2014-03-09T12:57:18Z</time>
      </trkpt>
      <trkpt lat="45.98684" lon="4.55182">
        <ele>488.01</ele>
        <time>2014-03-09T12:57:25Z</time>
      </trkpt>
      <trkpt lat="45.9868" lon="4.55183">
        <ele>488.49</ele>
        <time>2014-03-09T12:57:28Z</time>
      </trkpt>
      <trkpt lat="45.98661" lon="4.55192">
        <ele>487.05</ele>
        <time>2014-03-09T12:57:36Z</time>
      </trkpt>
      <trkpt lat="45.98651" lon="4.55201">
        <ele>486.08</ele>
        <time>2014-03-09T12:57:38Z</time>
      </trkpt>
      <trkpt lat="45.98646" lon="4.55205">
        <ele>485.6</ele>
        <time>2014-03-09T12:57:39Z</time>
      </trkpt>
      <trkpt lat="45.98641" lon="4.55207">
        <ele>485.6</ele>
        <time>2014-03-09T12:57:40Z</time>
      </trkpt>
      <trkpt lat="45.98631" lon="4.55211">
        <ele>485.6</ele>
        <time>2014-03-09T12:57:42Z</time>
      </trkpt>
      <trkpt lat="45.98626" lon="4.55212">
        <ele>486.08</ele>
        <time>2014-03-09T12:57:43Z</time>
      </trkpt>
      <trkpt lat="45.98622" lon="4.55213">
        <ele>485.6</ele>
        <time>2014-03-09T12:57:44Z</time>
      </trkpt>
      <trkpt lat="45.98617" lon="4.55215">
        <ele>484.64</ele>
        <time>2014-03-09T12:57:45Z</time>
      </trkpt>
      <trkpt lat="45.98611" lon="4.55217">
        <ele>484.16</ele>
        <time>2014-03-09T12:57:46Z</time>
      </trkpt>
      <trkpt lat="45.98605" lon="4.55217">
        <ele>483.2</ele>
        <time>2014-03-09T12:57:47Z</time>
      </trkpt>
      <trkpt lat="45.98599" lon="4.55215">
        <ele>482.72</ele>
        <time>2014-03-09T12:57:48Z</time>
      </trkpt>
      <trkpt lat="45.98592" lon="4.55211">
        <ele>481.76</ele>
        <time>2014-03-09T12:57:49Z</time>
      </trkpt>
      <trkpt lat="45.98586" lon="4.55207">
        <ele>481.28</ele>
        <time>2014-03-09T12:57:50Z</time>
      </trkpt>
      <trkpt lat="45.9858" lon="4.55202">
        <ele>480.8</ele>
        <time>2014-03-09T12:57:51Z</time>
      </trkpt>
      <trkpt lat="45.98573" lon="4.55197">
        <ele>480.32</ele>
        <time>2014-03-09T12:57:52Z</time>
      </trkpt>
      <trkpt lat="45.9856" lon="4.55189">
        <ele>478.87</ele>
        <time>2014-03-09T12:57:54Z</time>
      </trkpt>
      <trkpt lat="45.98554" lon="4.55186">
        <ele>477.91</ele>
        <time>2014-03-09T12:57:55Z</time>
      </trkpt>
      <trkpt lat="45.98548" lon="4.55184">
        <ele>476.95</ele>
        <time>2014-03-09T12:57:56Z</time>
      </trkpt>
      <trkpt lat="45.98542" lon="4.55181">
        <ele>475.99</ele>
        <time>2014-03-09T12:57:57Z</time>
      </trkpt>
      <trkpt lat="45.98536" lon="4.55176">
        <ele>475.03</ele>
        <time>2014-03-09T12:57:58Z</time>
      </trkpt>
      <trkpt lat="45.9853" lon="4.55169">
        <ele>474.55</ele>
        <time>2014-03-09T12:57:59Z</time>
      </trkpt>
      <trkpt lat="45.98525" lon="4.55162">
        <ele>473.59</ele>
        <time>2014-03-09T12:58:00Z</time>
      </trkpt>
      <trkpt lat="45.9852" lon="4.55156">
        <ele>473.59</ele>
        <time>2014-03-09T12:58:01Z</time>
      </trkpt>
      <trkpt lat="45.98515" lon="4.55152">
        <ele>473.11</ele>
        <time>2014-03-09T12:58:02Z</time>
      </trkpt>
      <trkpt lat="45.9851" lon="4.55148">
        <ele>472.63</ele>
        <time>2014-03-09T12:58:03Z</time>
      </trkpt>
      <trkpt lat="45.98504" lon="4.55145">
        <ele>472.14</ele>
        <time>2014-03-09T12:58:04Z</time>
      </trkpt>
      <trkpt lat="45.98498" lon="4.55143">
        <ele>471.18</ele>
        <time>2014-03-09T12:58:05Z</time>
      </trkpt>
      <trkpt lat="45.98491" lon="4.55141">
        <ele>471.18</ele>
        <time>2014-03-09T12:58:06Z</time>
      </trkpt>
      <trkpt lat="45.98455" lon="4.55132">
        <ele>468.3</ele>
        <time>2014-03-09T12:58:11Z</time>
      </trkpt>
      <trkpt lat="45.98449" lon="4.55132">
        <ele>467.82</ele>
        <time>2014-03-09T12:58:12Z</time>
      </trkpt>
      <trkpt lat="45.98435" lon="4.55133">
        <ele>466.86</ele>
        <time>2014-03-09T12:58:14Z</time>
      </trkpt>
      <trkpt lat="45.98421" lon="4.55134">
        <ele>465.9</ele>
        <time>2014-03-09T12:58:16Z</time>
      </trkpt>
      <trkpt lat="45.98401" lon="4.55138">
        <ele>464.45</ele>
        <time>2014-03-09T12:58:19Z</time>
      </trkpt>
      <trkpt lat="45.98375" lon="4.55147">
        <ele>461.57</ele>
        <time>2014-03-09T12:58:23Z</time>
      </trkpt>
      <trkpt lat="45.98369" lon="4.55151">
        <ele>462.05</ele>
        <time>2014-03-09T12:58:24Z</time>
      </trkpt>
      <trkpt lat="45.9836" lon="4.55159">
        <ele>462.05</ele>
        <time>2014-03-09T12:58:26Z</time>
      </trkpt>
      <trkpt lat="45.98356" lon="4.55161">
        <ele>461.09</ele>
        <time>2014-03-09T12:58:27Z</time>
      </trkpt>
      <trkpt lat="45.98353" lon="4.55161">
        <ele>460.61</ele>
        <time>2014-03-09T12:58:28Z</time>
      </trkpt>
      <trkpt lat="45.9835" lon="4.5516">
        <ele>461.09</ele>
        <time>2014-03-09T12:58:29Z</time>
      </trkpt>
      <trkpt lat="45.98347" lon="4.55159">
        <ele>460.61</ele>
        <time>2014-03-09T12:58:30Z</time>
      </trkpt>
      <trkpt lat="45.98344" lon="4.55158">
        <ele>460.13</ele>
        <time>2014-03-09T12:58:36Z</time>
      </trkpt>
      <trkpt lat="45.98344" lon="4.55162">
        <ele>460.13</ele>
        <time>2014-03-09T12:58:50Z</time>
      </trkpt>
      <trkpt lat="45.98344" lon="4.55162">
        <ele>460.61</ele>
        <time>2014-03-09T12:59:10Z</time>
      </trkpt>
      <trkpt lat="45.98344" lon="4.55163">
        <ele>460.13</ele>
        <time>2014-03-09T12:59:23Z</time>
      </trkpt>
      <trkpt lat="45.98341" lon="4.55163">
        <ele>459.65</ele>
        <time>2014-03-09T12:59:32Z</time>
      </trkpt>
      <trkpt lat="45.98339" lon="4.55164">
        <ele>459.17</ele>
        <time>2014-03-09T12:59:33Z</time>
      </trkpt>
      <trkpt lat="45.98329" lon="4.55171">
        <ele>458.21</ele>
        <time>2014-03-09T12:59:38Z</time>
      </trkpt>
      <trkpt lat="45.98327" lon="4.55174">
        <ele>457.72</ele>
        <time>2014-03-09T12:59:39Z</time>
      </trkpt>
      <trkpt lat="45.98325" lon="4.55176">
        <ele>457.72</ele>
        <time>2014-03-09T12:59:40Z</time>
      </trkpt>
      <trkpt lat="45.98323" lon="4.55178">
        <ele>457.72</ele>
        <time>2014-03-09T12:59:41Z</time>
      </trkpt>
      <trkpt lat="45.98321" lon="4.55182">
        <ele>457.24</ele>
        <time>2014-03-09T12:59:42Z</time>
      </trkpt>
      <trkpt lat="45.98308" lon="4.552">
        <ele>455.32</ele>
        <time>2014-03-09T12:59:46Z</time>
      </trkpt>
      <trkpt lat="45.98299" lon="4.55207">
        <ele>454.84</ele>
        <time>2014-03-09T12:59:48Z</time>
      </trkpt>
      <trkpt lat="45.98284" lon="4.55222">
        <ele>452.92</ele>
        <time>2014-03-09T12:59:52Z</time>
      </trkpt>
      <trkpt lat="45.98272" lon="4.55242">
        <ele>451.96</ele>
        <time>2014-03-09T12:59:59Z</time>
      </trkpt>
      <trkpt lat="45.98263" lon="4.55251">
        <ele>451</ele>
        <time>2014-03-09T13:00:01Z</time>
      </trkpt>
      <trkpt lat="45.98236" lon="4.55268">
        <ele>449.07</ele>
        <time>2014-03-09T13:00:06Z</time>
      </trkpt>
      <trkpt lat="45.98231" lon="4.55272">
        <ele>449.07</ele>
        <time>2014-03-09T13:00:07Z</time>
      </trkpt>
      <trkpt lat="45.98222" lon="4.55288">
        <ele>448.59</ele>
        <time>2014-03-09T13:00:10Z</time>
      </trkpt>
      <trkpt lat="45.98219" lon="4.55295">
        <ele>447.63</ele>
        <time>2014-03-09T13:00:11Z</time>
      </trkpt>
      <trkpt lat="45.98215" lon="4.55301">
        <ele>447.15</ele>
        <time>2014-03-09T13:00:12Z</time>
      </trkpt>
      <trkpt lat="45.98211" lon="4.55307">
        <ele>446.67</ele>
        <time>2014-03-09T13:00:13Z</time>
      </trkpt>
      <trkpt lat="45.98207" lon="4.55312">
        <ele>446.67</ele>
        <time>2014-03-09T13:00:14Z</time>
      </trkpt>
      <trkpt lat="45.98191" lon="4.55328">
        <ele>446.19</ele>
        <time>2014-03-09T13:00:17Z</time>
      </trkpt>
      <trkpt lat="45.98157" lon="4.55349">
        <ele>443.31</ele>
        <time>2014-03-09T13:00:23Z</time>
      </trkpt>
      <trkpt lat="45.98152" lon="4.55353">
        <ele>443.31</ele>
        <time>2014-03-09T13:00:24Z</time>
      </trkpt>
      <trkpt lat="45.98141" lon="4.55362">
        <ele>441.86</ele>
        <time>2014-03-09T13:00:26Z</time>
      </trkpt>
      <trkpt lat="45.98135" lon="4.55368">
        <ele>441.38</ele>
        <time>2014-03-09T13:00:27Z</time>
      </trkpt>
      <trkpt lat="45.98129" lon="4.55373">
        <ele>441.38</ele>
        <time>2014-03-09T13:00:28Z</time>
      </trkpt>
      <trkpt lat="45.98125" lon="4.55378">
        <ele>440.9</ele>
        <time>2014-03-09T13:00:29Z</time>
      </trkpt>
      <trkpt lat="45.9812" lon="4.55382">
        <ele>440.9</ele>
        <time>2014-03-09T13:00:30Z</time>
      </trkpt>
      <trkpt lat="45.98112" lon="4.55385">
        <ele>439.46</ele>
        <time>2014-03-09T13:00:32Z</time>
      </trkpt>
      <trkpt lat="45.98107" lon="4.55388">
        <ele>438.98</ele>
        <time>2014-03-09T13:00:34Z</time>
      </trkpt>
      <trkpt lat="45.98106" lon="4.5539">
        <ele>438.98</ele>
        <time>2014-03-09T13:00:35Z</time>
      </trkpt>
      <trkpt lat="45.98104" lon="4.55391">
        <ele>438.5</ele>
        <time>2014-03-09T13:00:36Z</time>
      </trkpt>
      <trkpt lat="45.98102" lon="4.55391">
        <ele>438.5</ele>
        <time>2014-03-09T13:00:37Z</time>
      </trkpt>
      <trkpt lat="45.981" lon="4.55391">
        <ele>438.02</ele>
        <time>2014-03-09T13:00:38Z</time>
      </trkpt>
      <trkpt lat="45.98098" lon="4.55391">
        <ele>438.02</ele>
        <time>2014-03-09T13:00:39Z</time>
      </trkpt>
      <trkpt lat="45.98096" lon="4.55392">
        <ele>437.54</ele>
        <time>2014-03-09T13:00:40Z</time>
      </trkpt>
      <trkpt lat="45.98094" lon="4.55393">
        <ele>437.54</ele>
        <time>2014-03-09T13:00:41Z</time>
      </trkpt>
      <trkpt lat="45.98092" lon="4.55393">
        <ele>438.02</ele>
        <time>2014-03-09T13:00:42Z</time>
      </trkpt>
      <trkpt lat="45.9809" lon="4.55394">
        <ele>438.02</ele>
        <time>2014-03-09T13:00:43Z</time>
      </trkpt>
      <trkpt lat="45.98088" lon="4.55394">
        <ele>438.02</ele>
        <time>2014-03-09T13:00:44Z</time>
      </trkpt>
      <trkpt lat="45.98085" lon="4.55394">
        <ele>437.54</ele>
        <time>2014-03-09T13:00:45Z</time>
      </trkpt>
      <trkpt lat="45.98083" lon="4.55395">
        <ele>437.54</ele>
        <time>2014-03-09T13:00:46Z</time>
      </trkpt>
      <trkpt lat="45.98082" lon="4.55395">
        <ele>438.5</ele>
        <time>2014-03-09T13:00:47Z</time>
      </trkpt>
      <trkpt lat="45.9808" lon="4.55395">
        <ele>437.54</ele>
        <time>2014-03-09T13:00:48Z</time>
      </trkpt>
      <trkpt lat="45.98077" lon="4.55395">
        <ele>437.06</ele>
        <time>2014-03-09T13:00:49Z</time>
      </trkpt>
      <trkpt lat="45.98074" lon="4.55395">
        <ele>437.54</ele>
        <time>2014-03-09T13:00:50Z</time>
      </trkpt>
      <trkpt lat="45.98055" lon="4.55404">
        <ele>436.1</ele>
        <time>2014-03-09T13:00:56Z</time>
      </trkpt>
      <trkpt lat="45.98027" lon="4.55405">
        <ele>435.13</ele>
        <time>2014-03-09T13:01:03Z</time>
      </trkpt>
      <trkpt lat="45.98011" lon="4.55403">
        <ele>434.65</ele>
        <time>2014-03-09T13:01:06Z</time>
      </trkpt>
      <trkpt lat="45.97996" lon="4.55408">
        <ele>433.69</ele>
        <time>2014-03-09T13:01:09Z</time>
      </trkpt>
      <trkpt lat="45.97992" lon="4.55412">
        <ele>432.73</ele>
        <time>2014-03-09T13:01:10Z</time>
      </trkpt>
      <trkpt lat="45.97984" lon="4.55422">
        <ele>432.25</ele>
        <time>2014-03-09T13:01:12Z</time>
      </trkpt>
      <trkpt lat="45.9798" lon="4.55425">
        <ele>432.73</ele>
        <time>2014-03-09T13:01:13Z</time>
      </trkpt>
      <trkpt lat="45.97975" lon="4.55427">
        <ele>432.73</ele>
        <time>2014-03-09T13:01:14Z</time>
      </trkpt>
      <trkpt lat="45.97961" lon="4.55433">
        <ele>431.77</ele>
        <time>2014-03-09T13:01:17Z</time>
      </trkpt>
      <trkpt lat="45.97948" lon="4.55439">
        <ele>430.81</ele>
        <time>2014-03-09T13:01:20Z</time>
      </trkpt>
      <trkpt lat="45.9794" lon="4.5544">
        <ele>429.85</ele>
        <time>2014-03-09T13:01:22Z</time>
      </trkpt>
      <trkpt lat="45.97931" lon="4.55447">
        <ele>429.85</ele>
        <time>2014-03-09T13:01:24Z</time>
      </trkpt>
      <trkpt lat="45.97926" lon="4.55448">
        <ele>429.37</ele>
        <time>2014-03-09T13:01:25Z</time>
      </trkpt>
      <trkpt lat="45.97921" lon="4.55448">
        <ele>428.4</ele>
        <time>2014-03-09T13:01:26Z</time>
      </trkpt>
      <trkpt lat="45.97918" lon="4.55449">
        <ele>428.89</ele>
        <time>2014-03-09T13:01:27Z</time>
      </trkpt>
      <trkpt lat="45.97895" lon="4.55456">
        <ele>426.48</ele>
        <time>2014-03-09T13:01:33Z</time>
      </trkpt>
      <trkpt lat="45.97885" lon="4.55454">
        <ele>425.04</ele>
        <time>2014-03-09T13:01:36Z</time>
      </trkpt>
      <trkpt lat="45.97878" lon="4.55455">
        <ele>424.56</ele>
        <time>2014-03-09T13:01:44Z</time>
      </trkpt>
      <trkpt lat="45.97864" lon="4.5546">
        <ele>425.04</ele>
        <time>2014-03-09T13:01:53Z</time>
      </trkpt>
      <trkpt lat="45.97852" lon="4.55458">
        <ele>425.52</ele>
        <time>2014-03-09T13:02:00Z</time>
      </trkpt>
      <trkpt lat="45.9785" lon="4.55458">
        <ele>425.52</ele>
        <time>2014-03-09T13:02:01Z</time>
      </trkpt>
      <trkpt lat="45.97847" lon="4.55458">
        <ele>424.56</ele>
        <time>2014-03-09T13:02:02Z</time>
      </trkpt>
      <trkpt lat="45.97821" lon="4.55445">
        <ele>423.6</ele>
        <time>2014-03-09T13:02:09Z</time>
      </trkpt>
      <trkpt lat="45.97813" lon="4.55425">
        <ele>422.16</ele>
        <time>2014-03-09T13:02:14Z</time>
      </trkpt>
      <trkpt lat="45.97812" lon="4.55422">
        <ele>421.68</ele>
        <time>2014-03-09T13:02:15Z</time>
      </trkpt>
      <trkpt lat="45.97808" lon="4.55413">
        <ele>420.23</ele>
        <time>2014-03-09T13:02:17Z</time>
      </trkpt>
      <trkpt lat="45.97806" lon="4.55409">
        <ele>419.27</ele>
        <time>2014-03-09T13:02:18Z</time>
      </trkpt>
      <trkpt lat="45.97804" lon="4.55407">
        <ele>418.79</ele>
        <time>2014-03-09T13:02:19Z</time>
      </trkpt>
      <trkpt lat="45.97802" lon="4.55405">
        <ele>419.27</ele>
        <time>2014-03-09T13:02:20Z</time>
      </trkpt>
      <trkpt lat="45.97801" lon="4.55403">
        <ele>418.79</ele>
        <time>2014-03-09T13:02:21Z</time>
      </trkpt>
      <trkpt lat="45.97798" lon="4.55399">
        <ele>418.31</ele>
        <time>2014-03-09T13:02:22Z</time>
      </trkpt>
      <trkpt lat="45.97795" lon="4.55396">
        <ele>418.79</ele>
        <time>2014-03-09T13:02:23Z</time>
      </trkpt>
      <trkpt lat="45.97795" lon="4.55394">
        <ele>418.79</ele>
        <time>2014-03-09T13:02:24Z</time>
      </trkpt>
      <trkpt lat="45.9777" lon="4.55381">
        <ele>417.83</ele>
        <time>2014-03-09T13:02:32Z</time>
      </trkpt>
      <trkpt lat="45.97738" lon="4.55365">
        <ele>414.95</ele>
        <time>2014-03-09T13:02:40Z</time>
      </trkpt>
      <trkpt lat="45.97711" lon="4.55364">
        <ele>415.43</ele>
        <time>2014-03-09T13:02:47Z</time>
      </trkpt>
      <trkpt lat="45.97705" lon="4.55364">
        <ele>414.95</ele>
        <time>2014-03-09T13:02:48Z</time>
      </trkpt>
      <trkpt lat="45.9769" lon="4.55363">
        <ele>413.98</ele>
        <time>2014-03-09T13:02:51Z</time>
      </trkpt>
      <trkpt lat="45.97685" lon="4.55364">
        <ele>413.5</ele>
        <time>2014-03-09T13:02:52Z</time>
      </trkpt>
      <trkpt lat="45.9768" lon="4.55366">
        <ele>413.5</ele>
        <time>2014-03-09T13:02:53Z</time>
      </trkpt>
      <trkpt lat="45.97675" lon="4.55368">
        <ele>413.02</ele>
        <time>2014-03-09T13:02:54Z</time>
      </trkpt>
      <trkpt lat="45.9767" lon="4.55372">
        <ele>412.54</ele>
        <time>2014-03-09T13:02:55Z</time>
      </trkpt>
      <trkpt lat="45.97666" lon="4.55375">
        <ele>412.54</ele>
        <time>2014-03-09T13:02:56Z</time>
      </trkpt>
      <trkpt lat="45.97656" lon="4.55383">
        <ele>411.58</ele>
        <time>2014-03-09T13:02:58Z</time>
      </trkpt>
      <trkpt lat="45.9765" lon="4.55386">
        <ele>411.58</ele>
        <time>2014-03-09T13:02:59Z</time>
      </trkpt>
      <trkpt lat="45.97636" lon="4.55395">
        <ele>410.14</ele>
        <time>2014-03-09T13:03:02Z</time>
      </trkpt>
      <trkpt lat="45.97618" lon="4.55403">
        <ele>409.66</ele>
        <time>2014-03-09T13:03:05Z</time>
      </trkpt>
      <trkpt lat="45.97578" lon="4.55432">
        <ele>408.7</ele>
        <time>2014-03-09T13:03:12Z</time>
      </trkpt>
      <trkpt lat="45.97559" lon="4.55446">
        <ele>406.77</ele>
        <time>2014-03-09T13:03:18Z</time>
      </trkpt>
      <trkpt lat="45.97553" lon="4.55449">
        <ele>406.29</ele>
        <time>2014-03-09T13:03:20Z</time>
      </trkpt>
      <trkpt lat="45.9755" lon="4.55452">
        <ele>406.29</ele>
        <time>2014-03-09T13:03:21Z</time>
      </trkpt>
      <trkpt lat="45.97532" lon="4.55459">
        <ele>404.85</ele>
        <time>2014-03-09T13:03:26Z</time>
      </trkpt>
      <trkpt lat="45.97529" lon="4.55458">
        <ele>404.37</ele>
        <time>2014-03-09T13:03:27Z</time>
      </trkpt>
      <trkpt lat="45.97526" lon="4.55457">
        <ele>403.89</ele>
        <time>2014-03-09T13:03:28Z</time>
      </trkpt>
      <trkpt lat="45.97522" lon="4.55452">
        <ele>404.37</ele>
        <time>2014-03-09T13:03:29Z</time>
      </trkpt>
      <trkpt lat="45.97519" lon="4.55446">
        <ele>402.93</ele>
        <time>2014-03-09T13:03:30Z</time>
      </trkpt>
      <trkpt lat="45.97517" lon="4.55438">
        <ele>401.97</ele>
        <time>2014-03-09T13:03:31Z</time>
      </trkpt>
      <trkpt lat="45.97514" lon="4.5543">
        <ele>401.49</ele>
        <time>2014-03-09T13:03:32Z</time>
      </trkpt>
      <trkpt lat="45.97511" lon="4.55423">
        <ele>401.01</ele>
        <time>2014-03-09T13:03:33Z</time>
      </trkpt>
      <trkpt lat="45.97507" lon="4.55418">
        <ele>401.01</ele>
        <time>2014-03-09T13:03:34Z</time>
      </trkpt>
      <trkpt lat="45.97498" lon="4.55407">
        <ele>400.53</ele>
        <time>2014-03-09T13:03:36Z</time>
      </trkpt>
      <trkpt lat="45.97495" lon="4.55401">
        <ele>400.05</ele>
        <time>2014-03-09T13:03:37Z</time>
      </trkpt>
      <trkpt lat="45.97491" lon="4.55395">
        <ele>399.57</ele>
        <time>2014-03-09T13:03:38Z</time>
      </trkpt>
      <trkpt lat="45.97486" lon="4.5539">
        <ele>399.08</ele>
        <time>2014-03-09T13:03:39Z</time>
      </trkpt>
      <trkpt lat="45.97476" lon="4.55382">
        <ele>399.08</ele>
        <time>2014-03-09T13:03:41Z</time>
      </trkpt>
      <trkpt lat="45.9747" lon="4.55379">
        <ele>399.08</ele>
        <time>2014-03-09T13:03:42Z</time>
      </trkpt>
      <trkpt lat="45.97452" lon="4.5537">
        <ele>397.64</ele>
        <time>2014-03-09T13:03:46Z</time>
      </trkpt>
      <trkpt lat="45.97448" lon="4.55367">
        <ele>397.16</ele>
        <time>2014-03-09T13:03:47Z</time>
      </trkpt>
      <trkpt lat="45.97445" lon="4.55365">
        <ele>396.68</ele>
        <time>2014-03-09T13:03:48Z</time>
      </trkpt>
      <trkpt lat="45.97443" lon="4.55362">
        <ele>396.68</ele>
        <time>2014-03-09T13:03:49Z</time>
      </trkpt>
      <trkpt lat="45.97441" lon="4.5536">
        <ele>396.2</ele>
        <time>2014-03-09T13:03:50Z</time>
      </trkpt>
      <trkpt lat="45.9744" lon="4.55357">
        <ele>396.2</ele>
        <time>2014-03-09T13:03:51Z</time>
      </trkpt>
      <trkpt lat="45.97439" lon="4.55354">
        <ele>396.68</ele>
        <time>2014-03-09T13:03:52Z</time>
      </trkpt>
      <trkpt lat="45.97431" lon="4.55345">
        <ele>396.68</ele>
        <time>2014-03-09T13:03:59Z</time>
      </trkpt>
      <trkpt lat="45.97431" lon="4.55345">
        <ele>396.2</ele>
        <time>2014-03-09T13:04:19Z</time>
      </trkpt>
      <trkpt lat="45.97428" lon="4.55338">
        <ele>396.2</ele>
        <time>2014-03-09T13:04:38Z</time>
      </trkpt>
      <trkpt lat="45.97427" lon="4.55335">
        <ele>396.68</ele>
        <time>2014-03-09T13:04:39Z</time>
      </trkpt>
      <trkpt lat="45.9742" lon="4.55304">
        <ele>396.68</ele>
        <time>2014-03-09T13:04:47Z</time>
      </trkpt>
      <trkpt lat="45.97411" lon="4.55277">
        <ele>396.2</ele>
        <time>2014-03-09T13:04:54Z</time>
      </trkpt>
      <trkpt lat="45.97385" lon="4.55246">
        <ele>395.72</ele>
        <time>2014-03-09T13:05:02Z</time>
      </trkpt>
      <trkpt lat="45.97381" lon="4.55243">
        <ele>395.72</ele>
        <time>2014-03-09T13:05:03Z</time>
      </trkpt>
      <trkpt lat="45.97376" lon="4.55239">
        <ele>395.72</ele>
        <time>2014-03-09T13:05:04Z</time>
      </trkpt>
      <trkpt lat="45.97372" lon="4.55236">
        <ele>395.72</ele>
        <time>2014-03-09T13:05:05Z</time>
      </trkpt>
      <trkpt lat="45.97369" lon="4.55235">
        <ele>395.72</ele>
        <time>2014-03-09T13:05:06Z</time>
      </trkpt>
      <trkpt lat="45.97365" lon="4.55233">
        <ele>396.2</ele>
        <time>2014-03-09T13:05:07Z</time>
      </trkpt>
      <trkpt lat="45.97342" lon="4.55217">
        <ele>395.24</ele>
        <time>2014-03-09T13:05:14Z</time>
      </trkpt>
      <trkpt lat="45.97338" lon="4.55212">
        <ele>394.76</ele>
        <time>2014-03-09T13:05:15Z</time>
      </trkpt>
      <trkpt lat="45.97312" lon="4.55188">
        <ele>392.84</ele>
        <time>2014-03-09T13:05:21Z</time>
      </trkpt>
      <trkpt lat="45.97307" lon="4.55184">
        <ele>391.87</ele>
        <time>2014-03-09T13:05:22Z</time>
      </trkpt>
      <trkpt lat="45.97301" lon="4.5518">
        <ele>391.39</ele>
        <time>2014-03-09T13:05:23Z</time>
      </trkpt>
      <trkpt lat="45.97296" lon="4.55176">
        <ele>390.43</ele>
        <time>2014-03-09T13:05:24Z</time>
      </trkpt>
      <trkpt lat="45.97291" lon="4.55171">
        <ele>389.95</ele>
        <time>2014-03-09T13:05:25Z</time>
      </trkpt>
      <trkpt lat="45.97288" lon="4.55165">
        <ele>389.95</ele>
        <time>2014-03-09T13:05:26Z</time>
      </trkpt>
      <trkpt lat="45.97284" lon="4.55159">
        <ele>388.51</ele>
        <time>2014-03-09T13:05:27Z</time>
      </trkpt>
      <trkpt lat="45.97281" lon="4.55153">
        <ele>388.51</ele>
        <time>2014-03-09T13:05:28Z</time>
      </trkpt>
      <trkpt lat="45.97275" lon="4.55141">
        <ele>387.55</ele>
        <time>2014-03-09T13:05:30Z</time>
      </trkpt>
      <trkpt lat="45.97272" lon="4.55135">
        <ele>387.07</ele>
        <time>2014-03-09T13:05:31Z</time>
      </trkpt>
      <trkpt lat="45.97268" lon="4.5513">
        <ele>386.59</ele>
        <time>2014-03-09T13:05:32Z</time>
      </trkpt>
      <trkpt lat="45.97263" lon="4.55125">
        <ele>386.59</ele>
        <time>2014-03-09T13:05:33Z</time>
      </trkpt>
      <trkpt lat="45.97258" lon="4.55121">
        <ele>386.11</ele>
        <time>2014-03-09T13:05:34Z</time>
      </trkpt>
      <trkpt lat="45.97252" lon="4.55117">
        <ele>384.66</ele>
        <time>2014-03-09T13:05:35Z</time>
      </trkpt>
      <trkpt lat="45.97246" lon="4.55113">
        <ele>384.18</ele>
        <time>2014-03-09T13:05:36Z</time>
      </trkpt>
      <trkpt lat="45.97241" lon="4.55109">
        <ele>384.18</ele>
        <time>2014-03-09T13:05:37Z</time>
      </trkpt>
      <trkpt lat="45.97237" lon="4.55104">
        <ele>383.7</ele>
        <time>2014-03-09T13:05:38Z</time>
      </trkpt>
      <trkpt lat="45.97233" lon="4.551">
        <ele>383.7</ele>
        <time>2014-03-09T13:05:39Z</time>
      </trkpt>
      <trkpt lat="45.97229" lon="4.55096">
        <ele>383.22</ele>
        <time>2014-03-09T13:05:40Z</time>
      </trkpt>
      <trkpt lat="45.97225" lon="4.55091">
        <ele>383.7</ele>
        <time>2014-03-09T13:05:41Z</time>
      </trkpt>
      <trkpt lat="45.97221" lon="4.55086">
        <ele>383.22</ele>
        <time>2014-03-09T13:05:42Z</time>
      </trkpt>
      <trkpt lat="45.97217" lon="4.55082">
        <ele>382.74</ele>
        <time>2014-03-09T13:05:43Z</time>
      </trkpt>
      <trkpt lat="45.97213" lon="4.5508">
        <ele>382.74</ele>
        <time>2014-03-09T13:05:44Z</time>
      </trkpt>
      <trkpt lat="45.97189" lon="4.55062">
        <ele>381.3</ele>
        <time>2014-03-09T13:05:49Z</time>
      </trkpt>
      <trkpt lat="45.97179" lon="4.55054">
        <ele>380.34</ele>
        <time>2014-03-09T13:05:51Z</time>
      </trkpt>
      <trkpt lat="45.97174" lon="4.55051">
        <ele>380.34</ele>
        <time>2014-03-09T13:05:52Z</time>
      </trkpt>
      <trkpt lat="45.97171" lon="4.55045">
        <ele>379.38</ele>
        <time>2014-03-09T13:05:53Z</time>
      </trkpt>
      <trkpt lat="45.97169" lon="4.55039">
        <ele>379.86</ele>
        <time>2014-03-09T13:05:54Z</time>
      </trkpt>
      <trkpt lat="45.97166" lon="4.55036">
        <ele>379.38</ele>
        <time>2014-03-09T13:05:55Z</time>
      </trkpt>
      <trkpt lat="45.97162" lon="4.55035">
        <ele>378.9</ele>
        <time>2014-03-09T13:05:56Z</time>
      </trkpt>
      <trkpt lat="45.97159" lon="4.55035">
        <ele>378.9</ele>
        <time>2014-03-09T13:05:57Z</time>
      </trkpt>
      <trkpt lat="45.97154" lon="4.55037">
        <ele>378.42</ele>
        <time>2014-03-09T13:05:58Z</time>
      </trkpt>
      <trkpt lat="45.97147" lon="4.55039">
        <ele>379.38</ele>
        <time>2014-03-09T13:06:00Z</time>
      </trkpt>
      <trkpt lat="45.97143" lon="4.55037">
        <ele>379.38</ele>
        <time>2014-03-09T13:06:01Z</time>
      </trkpt>
      <trkpt lat="45.97139" lon="4.55034">
        <ele>378.42</ele>
        <time>2014-03-09T13:06:02Z</time>
      </trkpt>
      <trkpt lat="45.97137" lon="4.55032">
        <ele>379.38</ele>
        <time>2014-03-09T13:06:03Z</time>
      </trkpt>
      <trkpt lat="45.97134" lon="4.55032">
        <ele>378.9</ele>
        <time>2014-03-09T13:06:04Z</time>
      </trkpt>
      <trkpt lat="45.97114" lon="4.55028">
        <ele>380.34</ele>
        <time>2014-03-09T13:06:10Z</time>
      </trkpt>
      <trkpt lat="45.97096" lon="4.55029">
        <ele>380.82</ele>
        <time>2014-03-09T13:06:18Z</time>
      </trkpt>
      <trkpt lat="45.97093" lon="4.5503">
        <ele>380.34</ele>
        <time>2014-03-09T13:06:35Z</time>
      </trkpt>
      <trkpt lat="45.97092" lon="4.55031">
        <ele>380.34</ele>
        <time>2014-03-09T13:06:36Z</time>
      </trkpt>
      <trkpt lat="45.9709" lon="4.55032">
        <ele>380.34</ele>
        <time>2014-03-09T13:06:37Z</time>
      </trkpt>
      <trkpt lat="45.97088" lon="4.55033">
        <ele>380.34</ele>
        <time>2014-03-09T13:06:38Z</time>
      </trkpt>
      <trkpt lat="45.97086" lon="4.55034">
        <ele>379.86</ele>
        <time>2014-03-09T13:06:39Z</time>
      </trkpt>
      <trkpt lat="45.97083" lon="4.55034">
        <ele>380.34</ele>
        <time>2014-03-09T13:06:40Z</time>
      </trkpt>
      <trkpt lat="45.97077" lon="4.55035">
        <ele>379.86</ele>
        <time>2014-03-09T13:06:43Z</time>
      </trkpt>
      <trkpt lat="45.97075" lon="4.55036">
        <ele>379.38</ele>
        <time>2014-03-09T13:06:44Z</time>
      </trkpt>
      <trkpt lat="45.97068" lon="4.5504">
        <ele>380.34</ele>
        <time>2014-03-09T13:06:47Z</time>
      </trkpt>
      <trkpt lat="45.97062" lon="4.55039">
        <ele>380.34</ele>
        <time>2014-03-09T13:06:49Z</time>
      </trkpt>
      <trkpt lat="45.97059" lon="4.55039">
        <ele>379.38</ele>
        <time>2014-03-09T13:06:50Z</time>
      </trkpt>
      <trkpt lat="45.97027" lon="4.55034">
        <ele>378.42</ele>
        <time>2014-03-09T13:06:59Z</time>
      </trkpt>
      <trkpt lat="45.97019" lon="4.55033">
        <ele>377.94</ele>
        <time>2014-03-09T13:07:01Z</time>
      </trkpt>
      <trkpt lat="45.97014" lon="4.55034">
        <ele>377.94</ele>
        <time>2014-03-09T13:07:02Z</time>
      </trkpt>
      <trkpt lat="45.9701" lon="4.55035">
        <ele>378.42</ele>
        <time>2014-03-09T13:07:03Z</time>
      </trkpt>
      <trkpt lat="45.97004" lon="4.55037">
        <ele>378.42</ele>
        <time>2014-03-09T13:07:04Z</time>
      </trkpt>
      <trkpt lat="45.96999" lon="4.55039">
        <ele>378.42</ele>
        <time>2014-03-09T13:07:05Z</time>
      </trkpt>
      <trkpt lat="45.96995" lon="4.5504">
        <ele>378.42</ele>
        <time>2014-03-09T13:07:06Z</time>
      </trkpt>
      <trkpt lat="45.96984" lon="4.55044">
        <ele>377.94</ele>
        <time>2014-03-09T13:07:08Z</time>
      </trkpt>
      <trkpt lat="45.96977" lon="4.55045">
        <ele>376.97</ele>
        <time>2014-03-09T13:07:09Z</time>
      </trkpt>
      <trkpt lat="45.96954" lon="4.55054">
        <ele>376.01</ele>
        <time>2014-03-09T13:07:15Z</time>
      </trkpt>
      <trkpt lat="45.96951" lon="4.55052">
        <ele>376.01</ele>
        <time>2014-03-09T13:07:16Z</time>
      </trkpt>
      <trkpt lat="45.96941" lon="4.5503">
        <ele>375.05</ele>
        <time>2014-03-09T13:07:22Z</time>
      </trkpt>
      <trkpt lat="45.9694" lon="4.55017">
        <ele>374.09</ele>
        <time>2014-03-09T13:07:24Z</time>
      </trkpt>
      <trkpt lat="45.96939" lon="4.55003">
        <ele>373.13</ele>
        <time>2014-03-09T13:07:26Z</time>
      </trkpt>
      <trkpt lat="45.96936" lon="4.54998">
        <ele>373.13</ele>
        <time>2014-03-09T13:07:27Z</time>
      </trkpt>
      <trkpt lat="45.96934" lon="4.54992">
        <ele>372.17</ele>
        <time>2014-03-09T13:07:28Z</time>
      </trkpt>
      <trkpt lat="45.96931" lon="4.54986">
        <ele>371.69</ele>
        <time>2014-03-09T13:07:29Z</time>
      </trkpt>
      <trkpt lat="45.96927" lon="4.54982">
        <ele>371.21</ele>
        <time>2014-03-09T13:07:30Z</time>
      </trkpt>
      <trkpt lat="45.96924" lon="4.54978">
        <ele>370.73</ele>
        <time>2014-03-09T13:07:31Z</time>
      </trkpt>
      <trkpt lat="45.9692" lon="4.54975">
        <ele>369.76</ele>
        <time>2014-03-09T13:07:32Z</time>
      </trkpt>
      <trkpt lat="45.96915" lon="4.54972">
        <ele>369.28</ele>
        <time>2014-03-09T13:07:33Z</time>
      </trkpt>
      <trkpt lat="45.96909" lon="4.5497">
        <ele>368.8</ele>
        <time>2014-03-09T13:07:34Z</time>
      </trkpt>
      <trkpt lat="45.96902" lon="4.54968">
        <ele>368.8</ele>
        <time>2014-03-09T13:07:35Z</time>
      </trkpt>
      <trkpt lat="45.96886" lon="4.54964">
        <ele>368.8</ele>
        <time>2014-03-09T13:07:38Z</time>
      </trkpt>
      <trkpt lat="45.96861" lon="4.54945">
        <ele>368.8</ele>
        <time>2014-03-09T13:07:45Z</time>
      </trkpt>
      <trkpt lat="45.96838" lon="4.54926">
        <ele>368.8</ele>
        <time>2014-03-09T13:07:50Z</time>
      </trkpt>
      <trkpt lat="45.96824" lon="4.5491">
        <ele>367.84</ele>
        <time>2014-03-09T13:07:53Z</time>
      </trkpt>
      <trkpt lat="45.9681" lon="4.54892">
        <ele>365.92</ele>
        <time>2014-03-09T13:07:56Z</time>
      </trkpt>
      <trkpt lat="45.96793" lon="4.5487">
        <ele>363.04</ele>
        <time>2014-03-09T13:07:59Z</time>
      </trkpt>
      <trkpt lat="45.96782" lon="4.54859">
        <ele>363.04</ele>
        <time>2014-03-09T13:08:02Z</time>
      </trkpt>
      <trkpt lat="45.96778" lon="4.54857">
        <ele>363.04</ele>
        <time>2014-03-09T13:08:03Z</time>
      </trkpt>
      <trkpt lat="45.96752" lon="4.54851">
        <ele>364.96</ele>
        <time>2014-03-09T13:08:10Z</time>
      </trkpt>
      <trkpt lat="45.96731" lon="4.54843">
        <ele>364.48</ele>
        <time>2014-03-09T13:08:17Z</time>
      </trkpt>
      <trkpt lat="45.96723" lon="4.54839">
        <ele>364.48</ele>
        <time>2014-03-09T13:08:19Z</time>
      </trkpt>
      <trkpt lat="45.96718" lon="4.54837">
        <ele>364.48</ele>
        <time>2014-03-09T13:08:20Z</time>
      </trkpt>
      <trkpt lat="45.96712" lon="4.54837">
        <ele>363.52</ele>
        <time>2014-03-09T13:08:21Z</time>
      </trkpt>
      <trkpt lat="45.96675" lon="4.54839">
        <ele>363.04</ele>
        <time>2014-03-09T13:08:27Z</time>
      </trkpt>
      <trkpt lat="45.9667" lon="4.5484">
        <ele>363.04</ele>
        <time>2014-03-09T13:08:28Z</time>
      </trkpt>
      <trkpt lat="45.96633" lon="4.54846">
        <ele>360.63</ele>
        <time>2014-03-09T13:08:35Z</time>
      </trkpt>
      <trkpt lat="45.96628" lon="4.54844">
        <ele>360.63</ele>
        <time>2014-03-09T13:08:36Z</time>
      </trkpt>
      <trkpt lat="45.96622" lon="4.54841">
        <ele>360.15</ele>
        <time>2014-03-09T13:08:37Z</time>
      </trkpt>
      <trkpt lat="45.96613" lon="4.54832">
        <ele>358.71</ele>
        <time>2014-03-09T13:08:39Z</time>
      </trkpt>
      <trkpt lat="45.96605" lon="4.54823">
        <ele>358.71</ele>
        <time>2014-03-09T13:08:41Z</time>
      </trkpt>
      <trkpt lat="45.966" lon="4.54819">
        <ele>358.71</ele>
        <time>2014-03-09T13:08:42Z</time>
      </trkpt>
      <trkpt lat="45.96596" lon="4.54817">
        <ele>359.19</ele>
        <time>2014-03-09T13:08:43Z</time>
      </trkpt>
      <trkpt lat="45.9659" lon="4.54815">
        <ele>359.19</ele>
        <time>2014-03-09T13:08:44Z</time>
      </trkpt>
      <trkpt lat="45.96586" lon="4.54813">
        <ele>358.23</ele>
        <time>2014-03-09T13:08:45Z</time>
      </trkpt>
      <trkpt lat="45.96581" lon="4.5481">
        <ele>358.23</ele>
        <time>2014-03-09T13:08:46Z</time>
      </trkpt>
      <trkpt lat="45.96577" lon="4.54805">
        <ele>357.27</ele>
        <time>2014-03-09T13:08:47Z</time>
      </trkpt>
      <trkpt lat="45.96573" lon="4.54798">
        <ele>356.31</ele>
        <time>2014-03-09T13:08:48Z</time>
      </trkpt>
      <trkpt lat="45.96568" lon="4.54791">
        <ele>355.34</ele>
        <time>2014-03-09T13:08:49Z</time>
      </trkpt>
      <trkpt lat="45.96558" lon="4.54777">
        <ele>352.46</ele>
        <time>2014-03-09T13:08:51Z</time>
      </trkpt>
      <trkpt lat="45.96553" lon="4.54772">
        <ele>352.46</ele>
        <time>2014-03-09T13:08:52Z</time>
      </trkpt>
      <trkpt lat="45.96537" lon="4.54756">
        <ele>350.54</ele>
        <time>2014-03-09T13:08:55Z</time>
      </trkpt>
      <trkpt lat="45.96515" lon="4.54737">
        <ele>349.1</ele>
        <time>2014-03-09T13:09:01Z</time>
      </trkpt>
      <trkpt lat="45.96493" lon="4.5473">
        <ele>351.02</ele>
        <time>2014-03-09T13:09:07Z</time>
      </trkpt>
      <trkpt lat="45.96486" lon="4.54726">
        <ele>351.98</ele>
        <time>2014-03-09T13:09:09Z</time>
      </trkpt>
      <trkpt lat="45.96473" lon="4.5472">
        <ele>352.94</ele>
        <time>2014-03-09T13:09:14Z</time>
      </trkpt>
      <trkpt lat="45.96449" lon="4.54707">
        <ele>352.94</ele>
        <time>2014-03-09T13:09:22Z</time>
      </trkpt>
      <trkpt lat="45.96443" lon="4.54704">
        <ele>352.46</ele>
        <time>2014-03-09T13:09:24Z</time>
      </trkpt>
      <trkpt lat="45.96441" lon="4.54702">
        <ele>351.5</ele>
        <time>2014-03-09T13:09:25Z</time>
      </trkpt>
      <trkpt lat="45.9644" lon="4.547">
        <ele>351.5</ele>
        <time>2014-03-09T13:09:26Z</time>
      </trkpt>
      <trkpt lat="45.96438" lon="4.54698">
        <ele>351.5</ele>
        <time>2014-03-09T13:09:27Z</time>
      </trkpt>
      <trkpt lat="45.96436" lon="4.54695">
        <ele>351.02</ele>
        <time>2014-03-09T13:09:28Z</time>
      </trkpt>
      <trkpt lat="45.96432" lon="4.54693">
        <ele>350.54</ele>
        <time>2014-03-09T13:09:29Z</time>
      </trkpt>
      <trkpt lat="45.96428" lon="4.5469">
        <ele>350.54</ele>
        <time>2014-03-09T13:09:30Z</time>
      </trkpt>
      <trkpt lat="45.96423" lon="4.54687">
        <ele>350.06</ele>
        <time>2014-03-09T13:09:31Z</time>
      </trkpt>
      <trkpt lat="45.96419" lon="4.54684">
        <ele>350.54</ele>
        <time>2014-03-09T13:09:32Z</time>
      </trkpt>
      <trkpt lat="45.96414" lon="4.54681">
        <ele>350.54</ele>
        <time>2014-03-09T13:09:33Z</time>
      </trkpt>
      <trkpt lat="45.9641" lon="4.54677">
        <ele>350.06</ele>
        <time>2014-03-09T13:09:34Z</time>
      </trkpt>
      <trkpt lat="45.96406" lon="4.54674">
        <ele>350.54</ele>
        <time>2014-03-09T13:09:35Z</time>
      </trkpt>
      <trkpt lat="45.96401" lon="4.5467">
        <ele>350.54</ele>
        <time>2014-03-09T13:09:36Z</time>
      </trkpt>
      <trkpt lat="45.96391" lon="4.54661">
        <ele>349.58</ele>
        <time>2014-03-09T13:09:38Z</time>
      </trkpt>
      <trkpt lat="45.96383" lon="4.54655">
        <ele>349.1</ele>
        <time>2014-03-09T13:09:39Z</time>
      </trkpt>
      <trkpt lat="45.96376" lon="4.5465">
        <ele>349.1</ele>
        <time>2014-03-09T13:09:40Z</time>
      </trkpt>
      <trkpt lat="45.96371" lon="4.54647">
        <ele>348.62</ele>
        <time>2014-03-09T13:09:41Z</time>
      </trkpt>
      <trkpt lat="45.96366" lon="4.54645">
        <ele>349.1</ele>
        <time>2014-03-09T13:09:42Z</time>
      </trkpt>
      <trkpt lat="45.96362" lon="4.54643">
        <ele>349.1</ele>
        <time>2014-03-09T13:09:43Z</time>
      </trkpt>
      <trkpt lat="45.96356" lon="4.54642">
        <ele>349.1</ele>
        <time>2014-03-09T13:09:44Z</time>
      </trkpt>
      <trkpt lat="45.9635" lon="4.54642">
        <ele>349.1</ele>
        <time>2014-03-09T13:09:45Z</time>
      </trkpt>
      <trkpt lat="45.96324" lon="4.54637">
        <ele>348.13</ele>
        <time>2014-03-09T13:09:50Z</time>
      </trkpt>
      <trkpt lat="45.96319" lon="4.54636">
        <ele>347.65</ele>
        <time>2014-03-09T13:09:51Z</time>
      </trkpt>
      <trkpt lat="45.96309" lon="4.54631">
        <ele>347.65</ele>
        <time>2014-03-09T13:09:53Z</time>
      </trkpt>
      <trkpt lat="45.96303" lon="4.5463">
        <ele>347.65</ele>
        <time>2014-03-09T13:09:54Z</time>
      </trkpt>
      <trkpt lat="45.96299" lon="4.54627">
        <ele>347.65</ele>
        <time>2014-03-09T13:09:55Z</time>
      </trkpt>
      <trkpt lat="45.96277" lon="4.54617">
        <ele>346.69</ele>
        <time>2014-03-09T13:10:00Z</time>
      </trkpt>
      <trkpt lat="45.96272" lon="4.54614">
        <ele>346.69</ele>
        <time>2014-03-09T13:10:06Z</time>
      </trkpt>
      <trkpt lat="45.96272" lon="4.54614">
        <ele>346.21</ele>
        <time>2014-03-09T13:10:28Z</time>
      </trkpt>
      <trkpt lat="45.96272" lon="4.54614">
        <ele>346.21</ele>
        <time>2014-03-09T13:10:54Z</time>
      </trkpt>
      <trkpt lat="45.96272" lon="4.54614">
        <ele>346.21</ele>
        <time>2014-03-09T13:11:17Z</time>
      </trkpt>
      <trkpt lat="45.96268" lon="4.54612">
        <ele>346.21</ele>
        <time>2014-03-09T13:11:24Z</time>
      </trkpt>
      <trkpt lat="45.96267" lon="4.54609">
        <ele>345.73</ele>
        <time>2014-03-09T13:11:25Z</time>
      </trkpt>
      <trkpt lat="45.96265" lon="4.54605">
        <ele>345.25</ele>
        <time>2014-03-09T13:11:26Z</time>
      </trkpt>
      <trkpt lat="45.96264" lon="4.546">
        <ele>344.77</ele>
        <time>2014-03-09T13:11:27Z</time>
      </trkpt>
      <trkpt lat="45.96263" lon="4.54593">
        <ele>344.29</ele>
        <time>2014-03-09T13:11:28Z</time>
      </trkpt>
      <trkpt lat="45.96264" lon="4.54585">
        <ele>343.33</ele>
        <time>2014-03-09T13:11:29Z</time>
      </trkpt>
      <trkpt lat="45.96264" lon="4.54577">
        <ele>341.89</ele>
        <time>2014-03-09T13:11:30Z</time>
      </trkpt>
      <trkpt lat="45.96262" lon="4.54544">
        <ele>339</ele>
        <time>2014-03-09T13:11:35Z</time>
      </trkpt>
      <trkpt lat="45.96261" lon="4.5454">
        <ele>338.52</ele>
        <time>2014-03-09T13:11:36Z</time>
      </trkpt>
      <trkpt lat="45.96253" lon="4.54521">
        <ele>337.56</ele>
        <time>2014-03-09T13:11:41Z</time>
      </trkpt>
      <trkpt lat="45.96251" lon="4.54519">
        <ele>337.56</ele>
        <time>2014-03-09T13:11:42Z</time>
      </trkpt>
      <trkpt lat="45.96236" lon="4.54504">
        <ele>338.04</ele>
        <time>2014-03-09T13:11:49Z</time>
      </trkpt>
      <trkpt lat="45.96219" lon="4.5449">
        <ele>336.6</ele>
        <time>2014-03-09T13:11:56Z</time>
      </trkpt>
      <trkpt lat="45.96197" lon="4.54468">
        <ele>336.12</ele>
        <time>2014-03-09T13:12:03Z</time>
      </trkpt>
      <trkpt lat="45.96193" lon="4.54464">
        <ele>336.12</ele>
        <time>2014-03-09T13:12:04Z</time>
      </trkpt>
      <trkpt lat="45.9619" lon="4.54461">
        <ele>336.12</ele>
        <time>2014-03-09T13:12:05Z</time>
      </trkpt>
      <trkpt lat="45.96186" lon="4.54457">
        <ele>335.64</ele>
        <time>2014-03-09T13:12:06Z</time>
      </trkpt>
      <trkpt lat="45.96183" lon="4.54453">
        <ele>335.16</ele>
        <time>2014-03-09T13:12:07Z</time>
      </trkpt>
      <trkpt lat="45.9618" lon="4.54449">
        <ele>335.64</ele>
        <time>2014-03-09T13:12:08Z</time>
      </trkpt>
      <trkpt lat="45.96176" lon="4.54444">
        <ele>335.16</ele>
        <time>2014-03-09T13:12:09Z</time>
      </trkpt>
      <trkpt lat="45.96174" lon="4.5444">
        <ele>335.16</ele>
        <time>2014-03-09T13:12:10Z</time>
      </trkpt>
      <trkpt lat="45.96172" lon="4.54437">
        <ele>335.16</ele>
        <time>2014-03-09T13:12:11Z</time>
      </trkpt>
      <trkpt lat="45.96171" lon="4.54434">
        <ele>335.64</ele>
        <time>2014-03-09T13:12:12Z</time>
      </trkpt>
      <trkpt lat="45.96169" lon="4.54431">
        <ele>335.64</ele>
        <time>2014-03-09T13:12:13Z</time>
      </trkpt>
      <trkpt lat="45.96167" lon="4.54428">
        <ele>335.64</ele>
        <time>2014-03-09T13:12:14Z</time>
      </trkpt>
      <trkpt lat="45.96155" lon="4.54413">
        <ele>337.08</ele>
        <time>2014-03-09T13:12:21Z</time>
      </trkpt>
      <trkpt lat="45.96141" lon="4.54399">
        <ele>337.56</ele>
        <time>2014-03-09T13:12:28Z</time>
      </trkpt>
      <trkpt lat="45.96139" lon="4.54396">
        <ele>338.04</ele>
        <time>2014-03-09T13:12:29Z</time>
      </trkpt>
      <trkpt lat="45.96138" lon="4.54394">
        <ele>338.04</ele>
        <time>2014-03-09T13:12:30Z</time>
      </trkpt>
      <trkpt lat="45.96129" lon="4.54381">
        <ele>338.52</ele>
        <time>2014-03-09T13:12:37Z</time>
      </trkpt>
      <trkpt lat="45.96126" lon="4.54379">
        <ele>338.52</ele>
        <time>2014-03-09T13:12:38Z</time>
      </trkpt>
      <trkpt lat="45.96124" lon="4.54377">
        <ele>338.52</ele>
        <time>2014-03-09T13:12:39Z</time>
      </trkpt>
      <trkpt lat="45.96122" lon="4.54375">
        <ele>339</ele>
        <time>2014-03-09T13:12:40Z</time>
      </trkpt>
      <trkpt lat="45.9612" lon="4.54373">
        <ele>339</ele>
        <time>2014-03-09T13:12:41Z</time>
      </trkpt>
      <trkpt lat="45.96119" lon="4.54371">
        <ele>339</ele>
        <time>2014-03-09T13:12:42Z</time>
      </trkpt>
      <trkpt lat="45.96118" lon="4.54369">
        <ele>339</ele>
        <time>2014-03-09T13:12:43Z</time>
      </trkpt>
      <trkpt lat="45.96107" lon="4.54356">
        <ele>339.48</ele>
        <time>2014-03-09T13:12:52Z</time>
      </trkpt>
      <trkpt lat="45.96106" lon="4.54354">
        <ele>339.48</ele>
        <time>2014-03-09T13:12:53Z</time>
      </trkpt>
      <trkpt lat="45.96104" lon="4.54352">
        <ele>339.48</ele>
        <time>2014-03-09T13:12:54Z</time>
      </trkpt>
      <trkpt lat="45.96102" lon="4.54351">
        <ele>339.48</ele>
        <time>2014-03-09T13:12:55Z</time>
      </trkpt>
      <trkpt lat="45.961" lon="4.54349">
        <ele>339.48</ele>
        <time>2014-03-09T13:12:56Z</time>
      </trkpt>
      <trkpt lat="45.96099" lon="4.54347">
        <ele>339.96</ele>
        <time>2014-03-09T13:12:57Z</time>
      </trkpt>
      <trkpt lat="45.96093" lon="4.54342">
        <ele>339.96</ele>
        <time>2014-03-09T13:13:01Z</time>
      </trkpt>
      <trkpt lat="45.96089" lon="4.54339">
        <ele>340.44</ele>
        <time>2014-03-09T13:13:04Z</time>
      </trkpt>
      <trkpt lat="45.96088" lon="4.54337">
        <ele>340.44</ele>
        <time>2014-03-09T13:13:05Z</time>
      </trkpt>
      <trkpt lat="45.96087" lon="4.54335">
        <ele>340.44</ele>
        <time>2014-03-09T13:13:06Z</time>
      </trkpt>
      <trkpt lat="45.96086" lon="4.54333">
        <ele>340.92</ele>
        <time>2014-03-09T13:13:07Z</time>
      </trkpt>
      <trkpt lat="45.96083" lon="4.5433">
        <ele>340.92</ele>
        <time>2014-03-09T13:13:08Z</time>
      </trkpt>
      <trkpt lat="45.96081" lon="4.54326">
        <ele>340.92</ele>
        <time>2014-03-09T13:13:09Z</time>
      </trkpt>
      <trkpt lat="45.96079" lon="4.54323">
        <ele>340.44</ele>
        <time>2014-03-09T13:13:10Z</time>
      </trkpt>
      <trkpt lat="45.96071" lon="4.54302">
        <ele>339.48</ele>
        <time>2014-03-09T13:13:14Z</time>
      </trkpt>
      <trkpt lat="45.96065" lon="4.54272">
        <ele>337.08</ele>
        <time>2014-03-09T13:13:19Z</time>
      </trkpt>
      <trkpt lat="45.96053" lon="4.54246">
        <ele>337.56</ele>
        <time>2014-03-09T13:13:25Z</time>
      </trkpt>
      <trkpt lat="45.96049" lon="4.54241">
        <ele>337.56</ele>
        <time>2014-03-09T13:13:26Z</time>
      </trkpt>
      <trkpt lat="45.96023" lon="4.54191">
        <ele>336.12</ele>
        <time>2014-03-09T13:13:35Z</time>
      </trkpt>
      <trkpt lat="45.9602" lon="4.54187">
        <ele>335.64</ele>
        <time>2014-03-09T13:13:36Z</time>
      </trkpt>
      <trkpt lat="45.96008" lon="4.54175">
        <ele>334.68</ele>
        <time>2014-03-09T13:13:39Z</time>
      </trkpt>
      <trkpt lat="45.95975" lon="4.54136">
        <ele>332.27</ele>
        <time>2014-03-09T13:13:46Z</time>
      </trkpt>
      <trkpt lat="45.95972" lon="4.54131">
        <ele>332.75</ele>
        <time>2014-03-09T13:13:47Z</time>
      </trkpt>
      <trkpt lat="45.95971" lon="4.54126">
        <ele>332.75</ele>
        <time>2014-03-09T13:13:48Z</time>
      </trkpt>
      <trkpt lat="45.9597" lon="4.5412">
        <ele>332.75</ele>
        <time>2014-03-09T13:13:49Z</time>
      </trkpt>
      <trkpt lat="45.9597" lon="4.54113">
        <ele>332.75</ele>
        <time>2014-03-09T13:13:50Z</time>
      </trkpt>
      <trkpt lat="45.9597" lon="4.54097">
        <ele>333.23</ele>
        <time>2014-03-09T13:13:53Z</time>
      </trkpt>
      <trkpt lat="45.95968" lon="4.54093">
        <ele>332.75</ele>
        <time>2014-03-09T13:13:54Z</time>
      </trkpt>
      <trkpt lat="45.95964" lon="4.54085">
        <ele>333.23</ele>
        <time>2014-03-09T13:13:57Z</time>
      </trkpt>
      <trkpt lat="45.95955" lon="4.54081">
        <ele>334.2</ele>
        <time>2014-03-09T13:14:04Z</time>
      </trkpt>
      <trkpt lat="45.95954" lon="4.54082">
        <ele>334.68</ele>
        <time>2014-03-09T13:14:13Z</time>
      </trkpt>
      <trkpt lat="45.95956" lon="4.54083">
        <ele>334.2</ele>
        <time>2014-03-09T13:14:16Z</time>
      </trkpt>
      <trkpt lat="45.95959" lon="4.54086">
        <ele>333.71</ele>
        <time>2014-03-09T13:14:24Z</time>
      </trkpt>
      <trkpt lat="45.95958" lon="4.54087">
        <ele>333.23</ele>
        <time>2014-03-09T13:14:25Z</time>
      </trkpt>
      <trkpt lat="45.95956" lon="4.54087">
        <ele>333.23</ele>
        <time>2014-03-09T13:14:26Z</time>
      </trkpt>
      <trkpt lat="45.95954" lon="4.54088">
        <ele>332.27</ele>
        <time>2014-03-09T13:14:27Z</time>
      </trkpt>
      <trkpt lat="45.95952" lon="4.54089">
        <ele>332.75</ele>
        <time>2014-03-09T13:14:28Z</time>
      </trkpt>
      <trkpt lat="45.95949" lon="4.54089">
        <ele>332.75</ele>
        <time>2014-03-09T13:14:29Z</time>
      </trkpt>
      <trkpt lat="45.95947" lon="4.54089">
        <ele>332.27</ele>
        <time>2014-03-09T13:14:30Z</time>
      </trkpt>
      <trkpt lat="45.95944" lon="4.54089">
        <ele>332.27</ele>
        <time>2014-03-09T13:14:31Z</time>
      </trkpt>
      <trkpt lat="45.95942" lon="4.54089">
        <ele>332.75</ele>
        <time>2014-03-09T13:14:32Z</time>
      </trkpt>
      <trkpt lat="45.95941" lon="4.5409">
        <ele>332.27</ele>
        <time>2014-03-09T13:14:33Z</time>
      </trkpt>
      <trkpt lat="45.95938" lon="4.5409">
        <ele>332.27</ele>
        <time>2014-03-09T13:14:34Z</time>
      </trkpt>
      <trkpt lat="45.95936" lon="4.5409">
        <ele>332.27</ele>
        <time>2014-03-09T13:14:35Z</time>
      </trkpt>
      <trkpt lat="45.95933" lon="4.5409">
        <ele>331.79</ele>
        <time>2014-03-09T13:14:36Z</time>
      </trkpt>
      <trkpt lat="45.9593" lon="4.5409">
        <ele>332.27</ele>
        <time>2014-03-09T13:14:37Z</time>
      </trkpt>
      <trkpt lat="45.95927" lon="4.5409">
        <ele>331.79</ele>
        <time>2014-03-09T13:14:38Z</time>
      </trkpt>
      <trkpt lat="45.95925" lon="4.5409">
        <ele>331.79</ele>
        <time>2014-03-09T13:14:39Z</time>
      </trkpt>
      <trkpt lat="45.95922" lon="4.54089">
        <ele>332.27</ele>
        <time>2014-03-09T13:14:40Z</time>
      </trkpt>
      <trkpt lat="45.95918" lon="4.54088">
        <ele>331.79</ele>
        <time>2014-03-09T13:14:41Z</time>
      </trkpt>
      <trkpt lat="45.95914" lon="4.54087">
        <ele>331.79</ele>
        <time>2014-03-09T13:14:42Z</time>
      </trkpt>
      <trkpt lat="45.9591" lon="4.54084">
        <ele>331.31</ele>
        <time>2014-03-09T13:14:43Z</time>
      </trkpt>
      <trkpt lat="45.95903" lon="4.54077">
        <ele>330.83</ele>
        <time>2014-03-09T13:14:45Z</time>
      </trkpt>
      <trkpt lat="45.9589" lon="4.54062">
        <ele>329.87</ele>
        <time>2014-03-09T13:14:48Z</time>
      </trkpt>
      <trkpt lat="45.95876" lon="4.54041">
        <ele>327.47</ele>
        <time>2014-03-09T13:14:54Z</time>
      </trkpt>
      <trkpt lat="45.95875" lon="4.54038">
        <ele>326.5</ele>
        <time>2014-03-09T13:14:55Z</time>
      </trkpt>
      <trkpt lat="45.95874" lon="4.54034">
        <ele>326.5</ele>
        <time>2014-03-09T13:14:56Z</time>
      </trkpt>
      <trkpt lat="45.95872" lon="4.54029">
        <ele>325.54</ele>
        <time>2014-03-09T13:14:57Z</time>
      </trkpt>
      <trkpt lat="45.9587" lon="4.54024">
        <ele>325.06</ele>
        <time>2014-03-09T13:14:58Z</time>
      </trkpt>
      <trkpt lat="45.95867" lon="4.54017">
        <ele>324.58</ele>
        <time>2014-03-09T13:14:59Z</time>
      </trkpt>
      <trkpt lat="45.95863" lon="4.54011">
        <ele>323.62</ele>
        <time>2014-03-09T13:15:00Z</time>
      </trkpt>
      <trkpt lat="45.95859" lon="4.54006">
        <ele>323.62</ele>
        <time>2014-03-09T13:15:01Z</time>
      </trkpt>
      <trkpt lat="45.95856" lon="4.53999">
        <ele>323.14</ele>
        <time>2014-03-09T13:15:02Z</time>
      </trkpt>
      <trkpt lat="45.95853" lon="4.53994">
        <ele>322.66</ele>
        <time>2014-03-09T13:15:03Z</time>
      </trkpt>
      <trkpt lat="45.95851" lon="4.5399">
        <ele>322.66</ele>
        <time>2014-03-09T13:15:04Z</time>
      </trkpt>
      <trkpt lat="45.95848" lon="4.53988">
        <ele>322.18</ele>
        <time>2014-03-09T13:15:05Z</time>
      </trkpt>
      <trkpt lat="45.95844" lon="4.53986">
        <ele>322.18</ele>
        <time>2014-03-09T13:15:06Z</time>
      </trkpt>
      <trkpt lat="45.95841" lon="4.53984">
        <ele>322.18</ele>
        <time>2014-03-09T13:15:07Z</time>
      </trkpt>
      <trkpt lat="45.95838" lon="4.53981">
        <ele>322.18</ele>
        <time>2014-03-09T13:15:08Z</time>
      </trkpt>
      <trkpt lat="45.95835" lon="4.53978">
        <ele>322.18</ele>
        <time>2014-03-09T13:15:09Z</time>
      </trkpt>
      <trkpt lat="45.95816" lon="4.53963">
        <ele>322.66</ele>
        <time>2014-03-09T13:15:18Z</time>
      </trkpt>
      <trkpt lat="45.95794" lon="4.53945">
        <ele>322.18</ele>
        <time>2014-03-09T13:15:26Z</time>
      </trkpt>
      <trkpt lat="45.95766" lon="4.53935">
        <ele>321.7</ele>
        <time>2014-03-09T13:15:34Z</time>
      </trkpt>
      <trkpt lat="45.95732" lon="4.53921">
        <ele>320.26</ele>
        <time>2014-03-09T13:15:42Z</time>
      </trkpt>
      <trkpt lat="45.95727" lon="4.53918">
        <ele>319.78</ele>
        <time>2014-03-09T13:15:43Z</time>
      </trkpt>
      <trkpt lat="45.95723" lon="4.53914">
        <ele>319.3</ele>
        <time>2014-03-09T13:15:44Z</time>
      </trkpt>
      <trkpt lat="45.95718" lon="4.53911">
        <ele>318.81</ele>
        <time>2014-03-09T13:15:45Z</time>
      </trkpt>
      <trkpt lat="45.95714" lon="4.53907">
        <ele>318.81</ele>
        <time>2014-03-09T13:15:46Z</time>
      </trkpt>
      <trkpt lat="45.95711" lon="4.53904">
        <ele>318.81</ele>
        <time>2014-03-09T13:15:47Z</time>
      </trkpt>
      <trkpt lat="45.95708" lon="4.539">
        <ele>318.81</ele>
        <time>2014-03-09T13:15:48Z</time>
      </trkpt>
      <trkpt lat="45.95706" lon="4.53896">
        <ele>318.33</ele>
        <time>2014-03-09T13:15:49Z</time>
      </trkpt>
      <trkpt lat="45.95704" lon="4.53894">
        <ele>318.81</ele>
        <time>2014-03-09T13:15:50Z</time>
      </trkpt>
      <trkpt lat="45.95702" lon="4.53891">
        <ele>318.33</ele>
        <time>2014-03-09T13:15:51Z</time>
      </trkpt>
      <trkpt lat="45.957" lon="4.53888">
        <ele>317.85</ele>
        <time>2014-03-09T13:15:52Z</time>
      </trkpt>
      <trkpt lat="45.95698" lon="4.53884">
        <ele>318.33</ele>
        <time>2014-03-09T13:15:53Z</time>
      </trkpt>
      <trkpt lat="45.95695" lon="4.53879">
        <ele>317.85</ele>
        <time>2014-03-09T13:15:54Z</time>
      </trkpt>
      <trkpt lat="45.95693" lon="4.53873">
        <ele>317.85</ele>
        <time>2014-03-09T13:15:55Z</time>
      </trkpt>
      <trkpt lat="45.95678" lon="4.53832">
        <ele>317.37</ele>
        <time>2014-03-09T13:16:01Z</time>
      </trkpt>
      <trkpt lat="45.95666" lon="4.53795">
        <ele>319.3</ele>
        <time>2014-03-09T13:16:09Z</time>
      </trkpt>
      <trkpt lat="45.95653" lon="4.53757">
        <ele>319.3</ele>
        <time>2014-03-09T13:16:18Z</time>
      </trkpt>
      <trkpt lat="45.95645" lon="4.53727">
        <ele>320.74</ele>
        <time>2014-03-09T13:16:27Z</time>
      </trkpt>
      <trkpt lat="45.95645" lon="4.53724">
        <ele>320.74</ele>
        <time>2014-03-09T13:16:28Z</time>
      </trkpt>
      <trkpt lat="45.95645" lon="4.53722">
        <ele>320.74</ele>
        <time>2014-03-09T13:16:29Z</time>
      </trkpt>
      <trkpt lat="45.95646" lon="4.53717">
        <ele>320.74</ele>
        <time>2014-03-09T13:16:41Z</time>
      </trkpt>
      <trkpt lat="45.95646" lon="4.53717">
        <ele>321.22</ele>
        <time>2014-03-09T13:16:57Z</time>
      </trkpt>
      <trkpt lat="45.95646" lon="4.53717">
        <ele>320.74</ele>
        <time>2014-03-09T13:17:19Z</time>
      </trkpt>
      <trkpt lat="45.95646" lon="4.53716">
        <ele>320.26</ele>
        <time>2014-03-09T13:17:34Z</time>
      </trkpt>
      <trkpt lat="45.95646" lon="4.53716">
        <ele>320.74</ele>
        <time>2014-03-09T13:17:59Z</time>
      </trkpt>
      <trkpt lat="45.95647" lon="4.53713">
        <ele>320.74</ele>
        <time>2014-03-09T13:18:22Z</time>
      </trkpt>
      <trkpt lat="45.95646" lon="4.53712">
        <ele>320.74</ele>
        <time>2014-03-09T13:18:38Z</time>
      </trkpt>
      <trkpt lat="45.95646" lon="4.53712">
        <ele>321.22</ele>
        <time>2014-03-09T13:18:58Z</time>
      </trkpt>
      <trkpt lat="45.95646" lon="4.53712">
        <ele>321.22</ele>
        <time>2014-03-09T13:19:13Z</time>
      </trkpt>
      <trkpt lat="45.95646" lon="4.53712">
        <ele>321.22</ele>
        <time>2014-03-09T13:19:34Z</time>
      </trkpt>
      <trkpt lat="45.95646" lon="4.53711">
        <ele>321.22</ele>
        <time>2014-03-09T13:19:59Z</time>
      </trkpt>
      <trkpt lat="45.95646" lon="4.53711">
        <ele>321.22</ele>
        <time>2014-03-09T13:20:18Z</time>
      </trkpt>
      <trkpt lat="45.95648" lon="4.537">
        <ele>322.66</ele>
        <time>2014-03-09T13:20:30Z</time>
      </trkpt>
      <trkpt lat="45.95648" lon="4.53693">
        <ele>323.14</ele>
        <time>2014-03-09T13:20:34Z</time>
      </trkpt>
      <trkpt lat="45.95649" lon="4.53691">
        <ele>323.14</ele>
        <time>2014-03-09T13:20:35Z</time>
      </trkpt>
      <trkpt lat="45.9565" lon="4.5369">
        <ele>323.62</ele>
        <time>2014-03-09T13:20:36Z</time>
      </trkpt>
      <trkpt lat="45.9565" lon="4.53688">
        <ele>323.62</ele>
        <time>2014-03-09T13:20:37Z</time>
      </trkpt>
      <trkpt lat="45.95651" lon="4.53686">
        <ele>323.62</ele>
        <time>2014-03-09T13:20:38Z</time>
      </trkpt>
      <trkpt lat="45.95652" lon="4.53684">
        <ele>323.62</ele>
        <time>2014-03-09T13:20:39Z</time>
      </trkpt>
      <trkpt lat="45.95653" lon="4.53682">
        <ele>323.14</ele>
        <time>2014-03-09T13:20:40Z</time>
      </trkpt>
      <trkpt lat="45.95654" lon="4.5368">
        <ele>323.62</ele>
        <time>2014-03-09T13:20:41Z</time>
      </trkpt>
      <trkpt lat="45.95655" lon="4.53679">
        <ele>324.1</ele>
        <time>2014-03-09T13:20:42Z</time>
      </trkpt>
      <trkpt lat="45.95656" lon="4.53677">
        <ele>323.62</ele>
        <time>2014-03-09T13:20:43Z</time>
      </trkpt>
      <trkpt lat="45.95658" lon="4.53673">
        <ele>324.58</ele>
        <time>2014-03-09T13:20:46Z</time>
      </trkpt>
      <trkpt lat="45.95659" lon="4.53671">
        <ele>325.06</ele>
        <time>2014-03-09T13:20:47Z</time>
      </trkpt>
      <trkpt lat="45.9566" lon="4.5367">
        <ele>325.06</ele>
        <time>2014-03-09T13:20:48Z</time>
      </trkpt>
      <trkpt lat="45.9566" lon="4.53668">
        <ele>325.54</ele>
        <time>2014-03-09T13:20:49Z</time>
      </trkpt>
      <trkpt lat="45.95661" lon="4.53666">
        <ele>325.06</ele>
        <time>2014-03-09T13:20:50Z</time>
      </trkpt>
      <trkpt lat="45.95665" lon="4.53662">
        <ele>325.54</ele>
        <time>2014-03-09T13:20:53Z</time>
      </trkpt>
      <trkpt lat="45.95666" lon="4.53661">
        <ele>326.02</ele>
        <time>2014-03-09T13:20:54Z</time>
      </trkpt>
      <trkpt lat="45.95678" lon="4.5365">
        <ele>327.47</ele>
        <time>2014-03-09T13:21:05Z</time>
      </trkpt>
      <trkpt lat="45.95686" lon="4.53648">
        <ele>328.43</ele>
        <time>2014-03-09T13:21:12Z</time>
      </trkpt>
      <trkpt lat="45.95695" lon="4.53642">
        <ele>329.39</ele>
        <time>2014-03-09T13:21:21Z</time>
      </trkpt>
      <trkpt lat="45.95701" lon="4.53638">
        <ele>330.35</ele>
        <time>2014-03-09T13:21:28Z</time>
      </trkpt>
      <trkpt lat="45.95711" lon="4.53622">
        <ele>331.31</ele>
        <time>2014-03-09T13:21:38Z</time>
      </trkpt>
      <trkpt lat="45.95716" lon="4.53604">
        <ele>331.31</ele>
        <time>2014-03-09T13:21:47Z</time>
      </trkpt>
      <trkpt lat="45.95717" lon="4.536">
        <ele>331.79</ele>
        <time>2014-03-09T13:21:49Z</time>
      </trkpt>
      <trkpt lat="45.95717" lon="4.53598">
        <ele>332.27</ele>
        <time>2014-03-09T13:21:50Z</time>
      </trkpt>
      <trkpt lat="45.95718" lon="4.53596">
        <ele>331.79</ele>
        <time>2014-03-09T13:21:51Z</time>
      </trkpt>
      <trkpt lat="45.95718" lon="4.53594">
        <ele>331.79</ele>
        <time>2014-03-09T13:21:52Z</time>
      </trkpt>
      <trkpt lat="45.95719" lon="4.53592">
        <ele>332.27</ele>
        <time>2014-03-09T13:21:53Z</time>
      </trkpt>
      <trkpt lat="45.95719" lon="4.5359">
        <ele>332.27</ele>
        <time>2014-03-09T13:21:54Z</time>
      </trkpt>
      <trkpt lat="45.95719" lon="4.53588">
        <ele>331.79</ele>
        <time>2014-03-09T13:21:55Z</time>
      </trkpt>
      <trkpt lat="45.9572" lon="4.53586">
        <ele>332.27</ele>
        <time>2014-03-09T13:21:56Z</time>
      </trkpt>
      <trkpt lat="45.9572" lon="4.53584">
        <ele>332.27</ele>
        <time>2014-03-09T13:21:57Z</time>
      </trkpt>
      <trkpt lat="45.95721" lon="4.53582">
        <ele>332.75</ele>
        <time>2014-03-09T13:21:58Z</time>
      </trkpt>
      <trkpt lat="45.95721" lon="4.5358">
        <ele>332.75</ele>
        <time>2014-03-09T13:21:59Z</time>
      </trkpt>
      <trkpt lat="45.95722" lon="4.53576">
        <ele>332.75</ele>
        <time>2014-03-09T13:22:01Z</time>
      </trkpt>
      <trkpt lat="45.95723" lon="4.53574">
        <ele>333.23</ele>
        <time>2014-03-09T13:22:02Z</time>
      </trkpt>
      <trkpt lat="45.95724" lon="4.53568">
        <ele>333.71</ele>
        <time>2014-03-09T13:22:06Z</time>
      </trkpt>
      <trkpt lat="45.95728" lon="4.53545">
        <ele>335.16</ele>
        <time>2014-03-09T13:22:18Z</time>
      </trkpt>
      <trkpt lat="45.9573" lon="4.53532">
        <ele>335.64</ele>
        <time>2014-03-09T13:22:28Z</time>
      </trkpt>
      <trkpt lat="45.9573" lon="4.53522">
        <ele>337.56</ele>
        <time>2014-03-09T13:22:38Z</time>
      </trkpt>
      <trkpt lat="45.95731" lon="4.53513">
        <ele>338.52</ele>
        <time>2014-03-09T13:22:47Z</time>
      </trkpt>
      <trkpt lat="45.95733" lon="4.53505">
        <ele>339.48</ele>
        <time>2014-03-09T13:22:57Z</time>
      </trkpt>
      <trkpt lat="45.95735" lon="4.53492">
        <ele>340.44</ele>
        <time>2014-03-09T13:23:09Z</time>
      </trkpt>
      <trkpt lat="45.95736" lon="4.53482">
        <ele>341.89</ele>
        <time>2014-03-09T13:23:19Z</time>
      </trkpt>
      <trkpt lat="45.95737" lon="4.53474">
        <ele>342.85</ele>
        <time>2014-03-09T13:23:28Z</time>
      </trkpt>
      <trkpt lat="45.95738" lon="4.53467">
        <ele>344.29</ele>
        <time>2014-03-09T13:23:37Z</time>
      </trkpt>
      <trkpt lat="45.95739" lon="4.53453">
        <ele>344.77</ele>
        <time>2014-03-09T13:23:48Z</time>
      </trkpt>
      <trkpt lat="45.9574" lon="4.53443">
        <ele>346.69</ele>
        <time>2014-03-09T13:23:58Z</time>
      </trkpt>
      <trkpt lat="45.95739" lon="4.53434">
        <ele>348.13</ele>
        <time>2014-03-09T13:24:09Z</time>
      </trkpt>
      <trkpt lat="45.9574" lon="4.53424">
        <ele>349.58</ele>
        <time>2014-03-09T13:24:19Z</time>
      </trkpt>
      <trkpt lat="45.95742" lon="4.53412">
        <ele>350.54</ele>
        <time>2014-03-09T13:24:29Z</time>
      </trkpt>
      <trkpt lat="45.95743" lon="4.53397">
        <ele>351.02</ele>
        <time>2014-03-09T13:24:39Z</time>
      </trkpt>
      <trkpt lat="45.95744" lon="4.5339">
        <ele>351.98</ele>
        <time>2014-03-09T13:24:48Z</time>
      </trkpt>
      <trkpt lat="45.95748" lon="4.53387">
        <ele>352.46</ele>
        <time>2014-03-09T13:24:53Z</time>
      </trkpt>
      <trkpt lat="45.95749" lon="4.53386">
        <ele>351.98</ele>
        <time>2014-03-09T13:24:54Z</time>
      </trkpt>
      <trkpt lat="45.95751" lon="4.53384">
        <ele>351.98</ele>
        <time>2014-03-09T13:24:55Z</time>
      </trkpt>
      <trkpt lat="45.95752" lon="4.53383">
        <ele>352.94</ele>
        <time>2014-03-09T13:24:56Z</time>
      </trkpt>
      <trkpt lat="45.95753" lon="4.53381">
        <ele>352.46</ele>
        <time>2014-03-09T13:24:57Z</time>
      </trkpt>
      <trkpt lat="45.9577" lon="4.5336">
        <ele>352.94</ele>
        <time>2014-03-09T13:25:08Z</time>
      </trkpt>
      <trkpt lat="45.95783" lon="4.53333">
        <ele>353.42</ele>
        <time>2014-03-09T13:25:18Z</time>
      </trkpt>
      <trkpt lat="45.95792" lon="4.53307">
        <ele>353.42</ele>
        <time>2014-03-09T13:25:27Z</time>
      </trkpt>
      <trkpt lat="45.95802" lon="4.53272">
        <ele>353.9</ele>
        <time>2014-03-09T13:25:39Z</time>
      </trkpt>
      <trkpt lat="45.95813" lon="4.53227">
        <ele>354.38</ele>
        <time>2014-03-09T13:25:51Z</time>
      </trkpt>
      <trkpt lat="45.95827" lon="4.53179">
        <ele>355.34</ele>
        <time>2014-03-09T13:26:04Z</time>
      </trkpt>
      <trkpt lat="45.95846" lon="4.53134">
        <ele>355.83</ele>
        <time>2014-03-09T13:26:17Z</time>
      </trkpt>
      <trkpt lat="45.95868" lon="4.53081">
        <ele>354.86</ele>
        <time>2014-03-09T13:26:29Z</time>
      </trkpt>
      <trkpt lat="45.95873" lon="4.53073">
        <ele>354.86</ele>
        <time>2014-03-09T13:26:31Z</time>
      </trkpt>
      <trkpt lat="45.95876" lon="4.53069">
        <ele>355.34</ele>
        <time>2014-03-09T13:26:32Z</time>
      </trkpt>
      <trkpt lat="45.95879" lon="4.53066">
        <ele>355.34</ele>
        <time>2014-03-09T13:26:33Z</time>
      </trkpt>
      <trkpt lat="45.95881" lon="4.53062">
        <ele>355.83</ele>
        <time>2014-03-09T13:26:34Z</time>
      </trkpt>
      <trkpt lat="45.95883" lon="4.53059">
        <ele>355.83</ele>
        <time>2014-03-09T13:26:35Z</time>
      </trkpt>
      <trkpt lat="45.95885" lon="4.53055">
        <ele>355.83</ele>
        <time>2014-03-09T13:26:36Z</time>
      </trkpt>
      <trkpt lat="45.95904" lon="4.52998">
        <ele>355.83</ele>
        <time>2014-03-09T13:26:49Z</time>
      </trkpt>
      <trkpt lat="45.95905" lon="4.52992">
        <ele>355.83</ele>
        <time>2014-03-09T13:26:50Z</time>
      </trkpt>
      <trkpt lat="45.95907" lon="4.52987">
        <ele>355.34</ele>
        <time>2014-03-09T13:26:51Z</time>
      </trkpt>
      <trkpt lat="45.95908" lon="4.52982">
        <ele>355.83</ele>
        <time>2014-03-09T13:26:52Z</time>
      </trkpt>
      <trkpt lat="45.95909" lon="4.52977">
        <ele>355.83</ele>
        <time>2014-03-09T13:26:53Z</time>
      </trkpt>
      <trkpt lat="45.9591" lon="4.52972">
        <ele>355.34</ele>
        <time>2014-03-09T13:26:54Z</time>
      </trkpt>
      <trkpt lat="45.95919" lon="4.52937">
        <ele>355.34</ele>
        <time>2014-03-09T13:27:02Z</time>
      </trkpt>
      <trkpt lat="45.95925" lon="4.52923">
        <ele>353.42</ele>
        <time>2014-03-09T13:27:05Z</time>
      </trkpt>
      <trkpt lat="45.95951" lon="4.52892">
        <ele>351.02</ele>
        <time>2014-03-09T13:27:14Z</time>
      </trkpt>
      <trkpt lat="45.95954" lon="4.52888">
        <ele>351.02</ele>
        <time>2014-03-09T13:27:15Z</time>
      </trkpt>
      <trkpt lat="45.95964" lon="4.52865">
        <ele>347.65</ele>
        <time>2014-03-09T13:27:20Z</time>
      </trkpt>
      <trkpt lat="45.9597" lon="4.52849">
        <ele>345.25</ele>
        <time>2014-03-09T13:27:23Z</time>
      </trkpt>
      <trkpt lat="45.95973" lon="4.52844">
        <ele>345.25</ele>
        <time>2014-03-09T13:27:24Z</time>
      </trkpt>
      <trkpt lat="45.95981" lon="4.52827">
        <ele>341.89</ele>
        <time>2014-03-09T13:27:27Z</time>
      </trkpt>
      <trkpt lat="45.95983" lon="4.52816">
        <ele>339</ele>
        <time>2014-03-09T13:27:29Z</time>
      </trkpt>
      <trkpt lat="45.95982" lon="4.52811">
        <ele>339</ele>
        <time>2014-03-09T13:27:30Z</time>
      </trkpt>
      <trkpt lat="45.95981" lon="4.52807">
        <ele>338.04</ele>
        <time>2014-03-09T13:27:31Z</time>
      </trkpt>
      <trkpt lat="45.95977" lon="4.52788">
        <ele>334.68</ele>
        <time>2014-03-09T13:27:36Z</time>
      </trkpt>
      <trkpt lat="45.95978" lon="4.52785">
        <ele>334.2</ele>
        <time>2014-03-09T13:27:37Z</time>
      </trkpt>
      <trkpt lat="45.95978" lon="4.52782">
        <ele>333.71</ele>
        <time>2014-03-09T13:27:38Z</time>
      </trkpt>
      <trkpt lat="45.95979" lon="4.52779">
        <ele>333.71</ele>
        <time>2014-03-09T13:27:39Z</time>
      </trkpt>
      <trkpt lat="45.95981" lon="4.52778">
        <ele>332.75</ele>
        <time>2014-03-09T13:27:40Z</time>
      </trkpt>
      <trkpt lat="45.95984" lon="4.5278">
        <ele>332.75</ele>
        <time>2014-03-09T13:27:41Z</time>
      </trkpt>
      <trkpt lat="45.95986" lon="4.52783">
        <ele>333.23</ele>
        <time>2014-03-09T13:27:42Z</time>
      </trkpt>
      <trkpt lat="45.95987" lon="4.52786">
        <ele>332.75</ele>
        <time>2014-03-09T13:27:43Z</time>
      </trkpt>
      <trkpt lat="45.95989" lon="4.52789">
        <ele>332.75</ele>
        <time>2014-03-09T13:27:44Z</time>
      </trkpt>
      <trkpt lat="45.9599" lon="4.52791">
        <ele>333.71</ele>
        <time>2014-03-09T13:27:45Z</time>
      </trkpt>
      <trkpt lat="45.95992" lon="4.52794">
        <ele>333.71</ele>
        <time>2014-03-09T13:27:46Z</time>
      </trkpt>
      <trkpt lat="45.95994" lon="4.52797">
        <ele>333.71</ele>
        <time>2014-03-09T13:27:47Z</time>
      </trkpt>
      <trkpt lat="45.95996" lon="4.52799">
        <ele>333.23</ele>
        <time>2014-03-09T13:27:48Z</time>
      </trkpt>
      <trkpt lat="45.96021" lon="4.52819">
        <ele>335.16</ele>
        <time>2014-03-09T13:27:58Z</time>
      </trkpt>
      <trkpt lat="45.96051" lon="4.52835">
        <ele>336.6</ele>
        <time>2014-03-09T13:28:10Z</time>
      </trkpt>
      <trkpt lat="45.96073" lon="4.52841">
        <ele>337.08</ele>
        <time>2014-03-09T13:28:20Z</time>
      </trkpt>
      <trkpt lat="45.96097" lon="4.52846">
        <ele>339</ele>
        <time>2014-03-09T13:28:30Z</time>
      </trkpt>
      <trkpt lat="45.96124" lon="4.5285">
        <ele>339.48</ele>
        <time>2014-03-09T13:28:41Z</time>
      </trkpt>
      <trkpt lat="45.96154" lon="4.52855">
        <ele>339.96</ele>
        <time>2014-03-09T13:28:53Z</time>
      </trkpt>
      <trkpt lat="45.96182" lon="4.52861">
        <ele>340.92</ele>
        <time>2014-03-09T13:29:05Z</time>
      </trkpt>
      <trkpt lat="45.96204" lon="4.5288">
        <ele>341.89</ele>
        <time>2014-03-09T13:29:15Z</time>
      </trkpt>
      <trkpt lat="45.96225" lon="4.52915">
        <ele>341.89</ele>
        <time>2014-03-09T13:29:27Z</time>
      </trkpt>
      <trkpt lat="45.96244" lon="4.52951">
        <ele>343.33</ele>
        <time>2014-03-09T13:29:38Z</time>
      </trkpt>
      <trkpt lat="45.9627" lon="4.52983">
        <ele>344.29</ele>
        <time>2014-03-09T13:29:50Z</time>
      </trkpt>
      <trkpt lat="45.96292" lon="4.53004">
        <ele>345.25</ele>
        <time>2014-03-09T13:30:00Z</time>
      </trkpt>
      <trkpt lat="45.96316" lon="4.53027">
        <ele>345.73</ele>
        <time>2014-03-09T13:30:11Z</time>
      </trkpt>
      <trkpt lat="45.9633" lon="4.53031">
        <ele>345.25</ele>
        <time>2014-03-09T13:30:15Z</time>
      </trkpt>
      <trkpt lat="45.96338" lon="4.53031">
        <ele>344.77</ele>
        <time>2014-03-09T13:30:17Z</time>
      </trkpt>
      <trkpt lat="45.96342" lon="4.53029">
        <ele>344.77</ele>
        <time>2014-03-09T13:30:18Z</time>
      </trkpt>
      <trkpt lat="45.96346" lon="4.53026">
        <ele>344.77</ele>
        <time>2014-03-09T13:30:19Z</time>
      </trkpt>
      <trkpt lat="45.96358" lon="4.52988">
        <ele>344.29</ele>
        <time>2014-03-09T13:30:27Z</time>
      </trkpt>
      <trkpt lat="45.96344" lon="4.52949">
        <ele>344.77</ele>
        <time>2014-03-09T13:30:35Z</time>
      </trkpt>
      <trkpt lat="45.9633" lon="4.52902">
        <ele>345.25</ele>
        <time>2014-03-09T13:30:45Z</time>
      </trkpt>
      <trkpt lat="45.96318" lon="4.52858">
        <ele>346.21</ele>
        <time>2014-03-09T13:30:56Z</time>
      </trkpt>
      <trkpt lat="45.96308" lon="4.52831">
        <ele>347.65</ele>
        <time>2014-03-09T13:31:06Z</time>
      </trkpt>
      <trkpt lat="45.96292" lon="4.52802">
        <ele>350.06</ele>
        <time>2014-03-09T13:31:18Z</time>
      </trkpt>
      <trkpt lat="45.96276" lon="4.52777">
        <ele>351.02</ele>
        <time>2014-03-09T13:31:28Z</time>
      </trkpt>
      <trkpt lat="45.96256" lon="4.52749">
        <ele>351.02</ele>
        <time>2014-03-09T13:31:41Z</time>
      </trkpt>
      <trkpt lat="45.96238" lon="4.52724">
        <ele>352.46</ele>
        <time>2014-03-09T13:31:52Z</time>
      </trkpt>
      <trkpt lat="45.96217" lon="4.52693">
        <ele>353.42</ele>
        <time>2014-03-09T13:32:05Z</time>
      </trkpt>
      <trkpt lat="45.9621" lon="4.52661">
        <ele>353.9</ele>
        <time>2014-03-09T13:32:15Z</time>
      </trkpt>
      <trkpt lat="45.96217" lon="4.52628">
        <ele>354.86</ele>
        <time>2014-03-09T13:32:26Z</time>
      </trkpt>
      <trkpt lat="45.96229" lon="4.52595">
        <ele>355.83</ele>
        <time>2014-03-09T13:32:38Z</time>
      </trkpt>
      <trkpt lat="45.96247" lon="4.52561">
        <ele>355.83</ele>
        <time>2014-03-09T13:32:48Z</time>
      </trkpt>
      <trkpt lat="45.96268" lon="4.52522">
        <ele>355.83</ele>
        <time>2014-03-09T13:32:58Z</time>
      </trkpt>
      <trkpt lat="45.96271" lon="4.52484">
        <ele>356.79</ele>
        <time>2014-03-09T13:33:08Z</time>
      </trkpt>
      <trkpt lat="45.96269" lon="4.52464">
        <ele>357.27</ele>
        <time>2014-03-09T13:33:17Z</time>
      </trkpt>
      <trkpt lat="45.96267" lon="4.52462">
        <ele>357.27</ele>
        <time>2014-03-09T13:33:31Z</time>
      </trkpt>
      <trkpt lat="45.96265" lon="4.52462">
        <ele>357.27</ele>
        <time>2014-03-09T13:33:32Z</time>
      </trkpt>
      <trkpt lat="45.96262" lon="4.52461">
        <ele>356.79</ele>
        <time>2014-03-09T13:33:33Z</time>
      </trkpt>
      <trkpt lat="45.96243" lon="4.52461">
        <ele>353.9</ele>
        <time>2014-03-09T13:33:37Z</time>
      </trkpt>
      <trkpt lat="45.96238" lon="4.5246">
        <ele>353.42</ele>
        <time>2014-03-09T13:33:38Z</time>
      </trkpt>
      <trkpt lat="45.96233" lon="4.5246">
        <ele>352.46</ele>
        <time>2014-03-09T13:33:39Z</time>
      </trkpt>
      <trkpt lat="45.96228" lon="4.52459">
        <ele>351.98</ele>
        <time>2014-03-09T13:33:40Z</time>
      </trkpt>
      <trkpt lat="45.96224" lon="4.52458">
        <ele>351.5</ele>
        <time>2014-03-09T13:33:41Z</time>
      </trkpt>
      <trkpt lat="45.9622" lon="4.52456">
        <ele>351.02</ele>
        <time>2014-03-09T13:33:42Z</time>
      </trkpt>
      <trkpt lat="45.96218" lon="4.52456">
        <ele>350.54</ele>
        <time>2014-03-09T13:33:43Z</time>
      </trkpt>
      <trkpt lat="45.96216" lon="4.52456">
        <ele>350.54</ele>
        <time>2014-03-09T13:33:44Z</time>
      </trkpt>
      <trkpt lat="45.96215" lon="4.52456">
        <ele>350.06</ele>
        <time>2014-03-09T13:33:51Z</time>
      </trkpt>
      <trkpt lat="45.96215" lon="4.52456">
        <ele>349.58</ele>
        <time>2014-03-09T13:34:09Z</time>
      </trkpt>
      <trkpt lat="45.96214" lon="4.52456">
        <ele>349.58</ele>
        <time>2014-03-09T13:34:20Z</time>
      </trkpt>
      <trkpt lat="45.96214" lon="4.52456">
        <ele>349.58</ele>
        <time>2014-03-09T13:34:36Z</time>
      </trkpt>
      <trkpt lat="45.96214" lon="4.52456">
        <ele>349.58</ele>
        <time>2014-03-09T13:35:01Z</time>
      </trkpt>
      <trkpt lat="45.96214" lon="4.52456">
        <ele>349.58</ele>
        <time>2014-03-09T13:35:29Z</time>
      </trkpt>
      <trkpt lat="45.96214" lon="4.52456">
        <ele>349.58</ele>
        <time>2014-03-09T13:35:54Z</time>
      </trkpt>
      <trkpt lat="45.96214" lon="4.52455">
        <ele>349.58</ele>
        <time>2014-03-09T13:36:10Z</time>
      </trkpt>
      <trkpt lat="45.96214" lon="4.52455">
        <ele>350.06</ele>
        <time>2014-03-09T13:36:35Z</time>
      </trkpt>
      <trkpt lat="45.96214" lon="4.52455">
        <ele>349.58</ele>
        <time>2014-03-09T13:37:03Z</time>
      </trkpt>
      <trkpt lat="45.96214" lon="4.52455">
        <ele>349.58</ele>
        <time>2014-03-09T13:37:28Z</time>
      </trkpt>
      <trkpt lat="45.96214" lon="4.52455">
        <ele>349.58</ele>
        <time>2014-03-09T13:37:55Z</time>
      </trkpt>
      <trkpt lat="45.96214" lon="4.52455">
        <ele>350.06</ele>
        <time>2014-03-09T13:38:23Z</time>
      </trkpt>
      <trkpt lat="45.96214" lon="4.52455">
        <ele>350.54</ele>
        <time>2014-03-09T13:38:44Z</time>
      </trkpt>
      <trkpt lat="45.96214" lon="4.52455">
        <ele>350.54</ele>
        <time>2014-03-09T13:39:04Z</time>
      </trkpt>
      <trkpt lat="45.96214" lon="4.52455">
        <ele>350.06</ele>
        <time>2014-03-09T13:39:32Z</time>
      </trkpt>
      <trkpt lat="45.96214" lon="4.52455">
        <ele>350.06</ele>
        <time>2014-03-09T13:39:58Z</time>
      </trkpt>
      <trkpt lat="45.96214" lon="4.52455">
        <ele>350.06</ele>
        <time>2014-03-09T13:40:18Z</time>
      </trkpt>
      <trkpt lat="45.96214" lon="4.52455">
        <ele>350.06</ele>
        <time>2014-03-09T13:40:41Z</time>
      </trkpt>
      <trkpt lat="45.96213" lon="4.52455">
        <ele>350.54</ele>
        <time>2014-03-09T13:41:02Z</time>
      </trkpt>
      <trkpt lat="45.96211" lon="4.52457">
        <ele>350.54</ele>
        <time>2014-03-09T13:41:12Z</time>
      </trkpt>
      <trkpt lat="45.96209" lon="4.52459">
        <ele>350.06</ele>
        <time>2014-03-09T13:41:13Z</time>
      </trkpt>
      <trkpt lat="45.96206" lon="4.5246">
        <ele>350.06</ele>
        <time>2014-03-09T13:41:14Z</time>
      </trkpt>
      <trkpt lat="45.96203" lon="4.52461">
        <ele>349.58</ele>
        <time>2014-03-09T13:41:15Z</time>
      </trkpt>
      <trkpt lat="45.96199" lon="4.52461">
        <ele>349.58</ele>
        <time>2014-03-09T13:41:16Z</time>
      </trkpt>
      <trkpt lat="45.96195" lon="4.52461">
        <ele>349.58</ele>
        <time>2014-03-09T13:41:17Z</time>
      </trkpt>
      <trkpt lat="45.96178" lon="4.52466">
        <ele>347.65</ele>
        <time>2014-03-09T13:41:20Z</time>
      </trkpt>
      <trkpt lat="45.96159" lon="4.52471">
        <ele>345.73</ele>
        <time>2014-03-09T13:41:23Z</time>
      </trkpt>
      <trkpt lat="45.96124" lon="4.52484">
        <ele>342.37</ele>
        <time>2014-03-09T13:41:28Z</time>
      </trkpt>
      <trkpt lat="45.96115" lon="4.52487">
        <ele>342.37</ele>
        <time>2014-03-09T13:41:29Z</time>
      </trkpt>
      <trkpt lat="45.9609" lon="4.52494">
        <ele>339</ele>
        <time>2014-03-09T13:41:32Z</time>
      </trkpt>
      <trkpt lat="45.96061" lon="4.52499">
        <ele>336.12</ele>
        <time>2014-03-09T13:41:35Z</time>
      </trkpt>
      <trkpt lat="45.96051" lon="4.52499">
        <ele>335.16</ele>
        <time>2014-03-09T13:41:36Z</time>
      </trkpt>
      <trkpt lat="45.96041" lon="4.52497">
        <ele>333.71</ele>
        <time>2014-03-09T13:41:37Z</time>
      </trkpt>
      <trkpt lat="45.9603" lon="4.52495">
        <ele>332.27</ele>
        <time>2014-03-09T13:41:38Z</time>
      </trkpt>
      <trkpt lat="45.96019" lon="4.52492">
        <ele>330.83</ele>
        <time>2014-03-09T13:41:39Z</time>
      </trkpt>
      <trkpt lat="45.96007" lon="4.52487">
        <ele>328.91</ele>
        <time>2014-03-09T13:41:40Z</time>
      </trkpt>
      <trkpt lat="45.95972" lon="4.5247">
        <ele>325.54</ele>
        <time>2014-03-09T13:41:43Z</time>
      </trkpt>
      <trkpt lat="45.9594" lon="4.52452">
        <ele>322.18</ele>
        <time>2014-03-09T13:41:46Z</time>
      </trkpt>
      <trkpt lat="45.95907" lon="4.52435">
        <ele>318.81</ele>
        <time>2014-03-09T13:41:49Z</time>
      </trkpt>
      <trkpt lat="45.95871" lon="4.52419">
        <ele>314.49</ele>
        <time>2014-03-09T13:41:52Z</time>
      </trkpt>
      <trkpt lat="45.95831" lon="4.52408">
        <ele>310.64</ele>
        <time>2014-03-09T13:41:55Z</time>
      </trkpt>
      <trkpt lat="45.95791" lon="4.524">
        <ele>307.28</ele>
        <time>2014-03-09T13:41:58Z</time>
      </trkpt>
      <trkpt lat="45.95754" lon="4.5239">
        <ele>303.43</ele>
        <time>2014-03-09T13:42:01Z</time>
      </trkpt>
      <trkpt lat="45.95713" lon="4.5237">
        <ele>300.55</ele>
        <time>2014-03-09T13:42:05Z</time>
      </trkpt>
      <trkpt lat="45.95667" lon="4.52347">
        <ele>296.7</ele>
        <time>2014-03-09T13:42:11Z</time>
      </trkpt>
      <trkpt lat="45.95662" lon="4.52344">
        <ele>296.22</ele>
        <time>2014-03-09T13:42:12Z</time>
      </trkpt>
      <trkpt lat="45.95659" lon="4.52339">
        <ele>296.22</ele>
        <time>2014-03-09T13:42:13Z</time>
      </trkpt>
      <trkpt lat="45.95658" lon="4.52335">
        <ele>295.74</ele>
        <time>2014-03-09T13:42:14Z</time>
      </trkpt>
      <trkpt lat="45.95658" lon="4.52333">
        <ele>295.74</ele>
        <time>2014-03-09T13:42:20Z</time>
      </trkpt>
      <trkpt lat="45.95659" lon="4.5233">
        <ele>295.74</ele>
        <time>2014-03-09T13:42:21Z</time>
      </trkpt>
      <trkpt lat="45.9566" lon="4.52327">
        <ele>295.74</ele>
        <time>2014-03-09T13:42:22Z</time>
      </trkpt>
      <trkpt lat="45.95661" lon="4.52324">
        <ele>295.74</ele>
        <time>2014-03-09T13:42:23Z</time>
      </trkpt>
      <trkpt lat="45.95673" lon="4.52306">
        <ele>295.74</ele>
        <time>2014-03-09T13:42:28Z</time>
      </trkpt>
      <trkpt lat="45.95676" lon="4.52302">
        <ele>295.74</ele>
        <time>2014-03-09T13:42:29Z</time>
      </trkpt>
      <trkpt lat="45.95679" lon="4.52298">
        <ele>294.78</ele>
        <time>2014-03-09T13:42:30Z</time>
      </trkpt>
      <trkpt lat="45.95721" lon="4.52234">
        <ele>293.82</ele>
        <time>2014-03-09T13:42:41Z</time>
      </trkpt>
      <trkpt lat="45.95725" lon="4.52226">
        <ele>293.82</ele>
        <time>2014-03-09T13:42:42Z</time>
      </trkpt>
      <trkpt lat="45.95766" lon="4.52148">
        <ele>293.34</ele>
        <time>2014-03-09T13:42:51Z</time>
      </trkpt>
      <trkpt lat="45.9583" lon="4.5203">
        <ele>293.82</ele>
        <time>2014-03-09T13:43:04Z</time>
      </trkpt>
      <trkpt lat="45.95887" lon="4.51928">
        <ele>292.86</ele>
        <time>2014-03-09T13:43:16Z</time>
      </trkpt>
      <trkpt lat="45.9593" lon="4.51867">
        <ele>293.82</ele>
        <time>2014-03-09T13:43:25Z</time>
      </trkpt>
      <trkpt lat="45.95939" lon="4.51856">
        <ele>294.3</ele>
        <time>2014-03-09T13:43:27Z</time>
      </trkpt>
      <trkpt lat="45.95943" lon="4.5185">
        <ele>294.78</ele>
        <time>2014-03-09T13:43:28Z</time>
      </trkpt>
      <trkpt lat="45.95947" lon="4.51845">
        <ele>294.78</ele>
        <time>2014-03-09T13:43:29Z</time>
      </trkpt>
      <trkpt lat="45.96003" lon="4.51782">
        <ele>297.67</ele>
        <time>2014-03-09T13:43:43Z</time>
      </trkpt>
      <trkpt lat="45.96043" lon="4.51745">
        <ele>299.11</ele>
        <time>2014-03-09T13:43:54Z</time>
      </trkpt>
      <trkpt lat="45.96086" lon="4.51707">
        <ele>300.07</ele>
        <time>2014-03-09T13:44:08Z</time>
      </trkpt>
      <trkpt lat="45.96099" lon="4.51695">
        <ele>299.59</ele>
        <time>2014-03-09T13:44:12Z</time>
      </trkpt>
      <trkpt lat="45.96103" lon="4.51691">
        <ele>299.59</ele>
        <time>2014-03-09T13:44:13Z</time>
      </trkpt>
      <trkpt lat="45.96149" lon="4.51632">
        <ele>299.11</ele>
        <time>2014-03-09T13:44:25Z</time>
      </trkpt>
      <trkpt lat="45.9618" lon="4.51566">
        <ele>300.07</ele>
        <time>2014-03-09T13:44:36Z</time>
      </trkpt>
      <trkpt lat="45.96192" lon="4.51542">
        <ele>301.03</ele>
        <time>2014-03-09T13:44:41Z</time>
      </trkpt>
      <trkpt lat="45.96218" lon="4.51479">
        <ele>301.51</ele>
        <time>2014-03-09T13:44:53Z</time>
      </trkpt>
      <trkpt lat="45.96225" lon="4.51463">
        <ele>301.99</ele>
        <time>2014-03-09T13:44:56Z</time>
      </trkpt>
      <trkpt lat="45.96227" lon="4.51457">
        <ele>301.51</ele>
        <time>2014-03-09T13:44:57Z</time>
      </trkpt>
      <trkpt lat="45.96229" lon="4.51452">
        <ele>301.51</ele>
        <time>2014-03-09T13:44:58Z</time>
      </trkpt>
      <trkpt lat="45.96231" lon="4.51447">
        <ele>301.51</ele>
        <time>2014-03-09T13:44:59Z</time>
      </trkpt>
      <trkpt lat="45.96234" lon="4.51441">
        <ele>301.99</ele>
        <time>2014-03-09T13:45:00Z</time>
      </trkpt>
      <trkpt lat="45.96258" lon="4.51389">
        <ele>302.95</ele>
        <time>2014-03-09T13:45:11Z</time>
      </trkpt>
      <trkpt lat="45.96288" lon="4.51342">
        <ele>304.88</ele>
        <time>2014-03-09T13:45:24Z</time>
      </trkpt>
      <trkpt lat="45.9632" lon="4.51306">
        <ele>305.36</ele>
        <time>2014-03-09T13:45:36Z</time>
      </trkpt>
      <trkpt lat="45.96362" lon="4.51267">
        <ele>304.88</ele>
        <time>2014-03-09T13:45:48Z</time>
      </trkpt>
      <trkpt lat="45.96421" lon="4.51213">
        <ele>303.91</ele>
        <time>2014-03-09T13:46:01Z</time>
      </trkpt>
      <trkpt lat="45.96486" lon="4.51156">
        <ele>303.91</ele>
        <time>2014-03-09T13:46:12Z</time>
      </trkpt>
      <trkpt lat="45.96549" lon="4.51084">
        <ele>304.88</ele>
        <time>2014-03-09T13:46:24Z</time>
      </trkpt>
      <trkpt lat="45.96604" lon="4.51022">
        <ele>304.88</ele>
        <time>2014-03-09T13:46:36Z</time>
      </trkpt>
      <trkpt lat="45.96638" lon="4.50995">
        <ele>305.84</ele>
        <time>2014-03-09T13:46:43Z</time>
      </trkpt>
      <trkpt lat="45.96657" lon="4.50986">
        <ele>307.28</ele>
        <time>2014-03-09T13:46:47Z</time>
      </trkpt>
      <trkpt lat="45.96703" lon="4.50978">
        <ele>308.24</ele>
        <time>2014-03-09T13:46:58Z</time>
      </trkpt>
      <trkpt lat="45.96754" lon="4.50972">
        <ele>308.72</ele>
        <time>2014-03-09T13:47:11Z</time>
      </trkpt>
      <trkpt lat="45.96793" lon="4.5096">
        <ele>309.2</ele>
        <time>2014-03-09T13:47:21Z</time>
      </trkpt>
      <trkpt lat="45.96833" lon="4.50948">
        <ele>309.68</ele>
        <time>2014-03-09T13:47:31Z</time>
      </trkpt>
      <trkpt lat="45.96837" lon="4.50947">
        <ele>309.68</ele>
        <time>2014-03-09T13:47:32Z</time>
      </trkpt>
      <trkpt lat="45.96897" lon="4.50949">
        <ele>311.12</ele>
        <time>2014-03-09T13:47:44Z</time>
      </trkpt>
      <trkpt lat="45.9691" lon="4.50952">
        <ele>311.6</ele>
        <time>2014-03-09T13:47:47Z</time>
      </trkpt>
      <trkpt lat="45.96963" lon="4.50947">
        <ele>312.09</ele>
        <time>2014-03-09T13:47:59Z</time>
      </trkpt>
      <trkpt lat="45.97005" lon="4.50933">
        <ele>313.53</ele>
        <time>2014-03-09T13:48:10Z</time>
      </trkpt>
      <trkpt lat="45.9706" lon="4.5091">
        <ele>313.53</ele>
        <time>2014-03-09T13:48:24Z</time>
      </trkpt>
      <trkpt lat="45.97103" lon="4.50893">
        <ele>314.49</ele>
        <time>2014-03-09T13:48:35Z</time>
      </trkpt>
      <trkpt lat="45.97135" lon="4.50882">
        <ele>315.45</ele>
        <time>2014-03-09T13:48:43Z</time>
      </trkpt>
      <trkpt lat="45.97139" lon="4.50881">
        <ele>315.45</ele>
        <time>2014-03-09T13:48:44Z</time>
      </trkpt>
      <trkpt lat="45.97143" lon="4.5088">
        <ele>315.93</ele>
        <time>2014-03-09T13:48:45Z</time>
      </trkpt>
      <trkpt lat="45.97197" lon="4.50891">
        <ele>315.93</ele>
        <time>2014-03-09T13:48:56Z</time>
      </trkpt>
      <trkpt lat="45.97244" lon="4.50924">
        <ele>316.89</ele>
        <time>2014-03-09T13:49:07Z</time>
      </trkpt>
      <trkpt lat="45.97257" lon="4.50933">
        <ele>316.89</ele>
        <time>2014-03-09T13:49:10Z</time>
      </trkpt>
      <trkpt lat="45.9731" lon="4.50945">
        <ele>316.89</ele>
        <time>2014-03-09T13:49:21Z</time>
      </trkpt>
      <trkpt lat="45.97367" lon="4.50928">
        <ele>317.37</ele>
        <time>2014-03-09T13:49:32Z</time>
      </trkpt>
      <trkpt lat="45.97422" lon="4.509">
        <ele>318.33</ele>
        <time>2014-03-09T13:49:42Z</time>
      </trkpt>
      <trkpt lat="45.97483" lon="4.50873">
        <ele>317.85</ele>
        <time>2014-03-09T13:49:53Z</time>
      </trkpt>
      <trkpt lat="45.97547" lon="4.50845">
        <ele>317.85</ele>
        <time>2014-03-09T13:50:04Z</time>
      </trkpt>
      <trkpt lat="45.97626" lon="4.50802">
        <ele>317.37</ele>
        <time>2014-03-09T13:50:17Z</time>
      </trkpt>
      <trkpt lat="45.97654" lon="4.50799">
        <ele>316.41</ele>
        <time>2014-03-09T13:50:21Z</time>
      </trkpt>
      <trkpt lat="45.97737" lon="4.50815">
        <ele>315.93</ele>
        <time>2014-03-09T13:50:32Z</time>
      </trkpt>
      <trkpt lat="45.97758" lon="4.50813">
        <ele>315.93</ele>
        <time>2014-03-09T13:50:35Z</time>
      </trkpt>
      <trkpt lat="45.97816" lon="4.50782">
        <ele>315.93</ele>
        <time>2014-03-09T13:50:44Z</time>
      </trkpt>
      <trkpt lat="45.97844" lon="4.50759">
        <ele>316.89</ele>
        <time>2014-03-09T13:50:49Z</time>
      </trkpt>
      <trkpt lat="45.97848" lon="4.50753">
        <ele>316.89</ele>
        <time>2014-03-09T13:50:50Z</time>
      </trkpt>
      <trkpt lat="45.97865" lon="4.50727">
        <ele>316.89</ele>
        <time>2014-03-09T13:50:54Z</time>
      </trkpt>
      <trkpt lat="45.97886" lon="4.50694">
        <ele>317.37</ele>
        <time>2014-03-09T13:50:59Z</time>
      </trkpt>
      <trkpt lat="45.9789" lon="4.50689">
        <ele>317.85</ele>
        <time>2014-03-09T13:51:00Z</time>
      </trkpt>
      <trkpt lat="45.97895" lon="4.50683">
        <ele>316.89</ele>
        <time>2014-03-09T13:51:01Z</time>
      </trkpt>
      <trkpt lat="45.97901" lon="4.50679">
        <ele>317.37</ele>
        <time>2014-03-09T13:51:02Z</time>
      </trkpt>
      <trkpt lat="45.97907" lon="4.50675">
        <ele>317.85</ele>
        <time>2014-03-09T13:51:03Z</time>
      </trkpt>
      <trkpt lat="45.97912" lon="4.50671">
        <ele>317.37</ele>
        <time>2014-03-09T13:51:04Z</time>
      </trkpt>
      <trkpt lat="45.97918" lon="4.50669">
        <ele>317.85</ele>
        <time>2014-03-09T13:51:05Z</time>
      </trkpt>
      <trkpt lat="45.9793" lon="4.50665">
        <ele>317.37</ele>
        <time>2014-03-09T13:51:07Z</time>
      </trkpt>
      <trkpt lat="45.97937" lon="4.50664">
        <ele>317.37</ele>
        <time>2014-03-09T13:51:08Z</time>
      </trkpt>
      <trkpt lat="45.97943" lon="4.50664">
        <ele>316.89</ele>
        <time>2014-03-09T13:51:09Z</time>
      </trkpt>
      <trkpt lat="45.97949" lon="4.50665">
        <ele>317.37</ele>
        <time>2014-03-09T13:51:10Z</time>
      </trkpt>
      <trkpt lat="45.97956" lon="4.50666">
        <ele>316.89</ele>
        <time>2014-03-09T13:51:11Z</time>
      </trkpt>
      <trkpt lat="45.9798" lon="4.50675">
        <ele>317.37</ele>
        <time>2014-03-09T13:51:15Z</time>
      </trkpt>
      <trkpt lat="45.97986" lon="4.50679">
        <ele>316.89</ele>
        <time>2014-03-09T13:51:16Z</time>
      </trkpt>
      <trkpt lat="45.97997" lon="4.50689">
        <ele>317.37</ele>
        <time>2014-03-09T13:51:18Z</time>
      </trkpt>
      <trkpt lat="45.98002" lon="4.50695">
        <ele>317.37</ele>
        <time>2014-03-09T13:51:19Z</time>
      </trkpt>
      <trkpt lat="45.98012" lon="4.50709">
        <ele>317.37</ele>
        <time>2014-03-09T13:51:21Z</time>
      </trkpt>
      <trkpt lat="45.9802" lon="4.50724">
        <ele>317.37</ele>
        <time>2014-03-09T13:51:23Z</time>
      </trkpt>
      <trkpt lat="45.98049" lon="4.50777">
        <ele>316.89</ele>
        <time>2014-03-09T13:51:30Z</time>
      </trkpt>
      <trkpt lat="45.98055" lon="4.50783">
        <ele>316.89</ele>
        <time>2014-03-09T13:51:31Z</time>
      </trkpt>
      <trkpt lat="45.98061" lon="4.50787">
        <ele>315.93</ele>
        <time>2014-03-09T13:51:32Z</time>
      </trkpt>
      <trkpt lat="45.98136" lon="4.50847">
        <ele>315.45</ele>
        <time>2014-03-09T13:51:45Z</time>
      </trkpt>
      <trkpt lat="45.98198" lon="4.50875">
        <ele>315.45</ele>
        <time>2014-03-09T13:51:55Z</time>
      </trkpt>
      <trkpt lat="45.98226" lon="4.50876">
        <ele>315.45</ele>
        <time>2014-03-09T13:52:00Z</time>
      </trkpt>
      <trkpt lat="45.98231" lon="4.50876">
        <ele>315.45</ele>
        <time>2014-03-09T13:52:01Z</time>
      </trkpt>
      <trkpt lat="45.98237" lon="4.50876">
        <ele>315.93</ele>
        <time>2014-03-09T13:52:02Z</time>
      </trkpt>
      <trkpt lat="45.98267" lon="4.50878">
        <ele>315.45</ele>
        <time>2014-03-09T13:52:08Z</time>
      </trkpt>
      <trkpt lat="45.98271" lon="4.50877">
        <ele>315.93</ele>
        <time>2014-03-09T13:52:09Z</time>
      </trkpt>
      <trkpt lat="45.98275" lon="4.50877">
        <ele>315.45</ele>
        <time>2014-03-09T13:52:10Z</time>
      </trkpt>
      <trkpt lat="45.98279" lon="4.50877">
        <ele>314.97</ele>
        <time>2014-03-09T13:52:11Z</time>
      </trkpt>
      <trkpt lat="45.98285" lon="4.50878">
        <ele>314.49</ele>
        <time>2014-03-09T13:52:12Z</time>
      </trkpt>
      <trkpt lat="45.9829" lon="4.50879">
        <ele>313.53</ele>
        <time>2014-03-09T13:52:13Z</time>
      </trkpt>
      <trkpt lat="45.98295" lon="4.5088">
        <ele>313.05</ele>
        <time>2014-03-09T13:52:14Z</time>
      </trkpt>
      <trkpt lat="45.98302" lon="4.50878">
        <ele>312.57</ele>
        <time>2014-03-09T13:52:16Z</time>
      </trkpt>
      <trkpt lat="45.98303" lon="4.50875">
        <ele>312.09</ele>
        <time>2014-03-09T13:52:17Z</time>
      </trkpt>
      <trkpt lat="45.98302" lon="4.50872">
        <ele>312.09</ele>
        <time>2014-03-09T13:52:18Z</time>
      </trkpt>
      <trkpt lat="45.98301" lon="4.5087">
        <ele>312.09</ele>
        <time>2014-03-09T13:52:19Z</time>
      </trkpt>
      <trkpt lat="45.98299" lon="4.50868">
        <ele>311.6</ele>
        <time>2014-03-09T13:52:20Z</time>
      </trkpt>
      <trkpt lat="45.98297" lon="4.50867">
        <ele>311.6</ele>
        <time>2014-03-09T13:52:21Z</time>
      </trkpt>
      <trkpt lat="45.98295" lon="4.50866">
        <ele>311.6</ele>
        <time>2014-03-09T13:52:22Z</time>
      </trkpt>
      <trkpt lat="45.98293" lon="4.50867">
        <ele>311.6</ele>
        <time>2014-03-09T13:52:23Z</time>
      </trkpt>
      <trkpt lat="45.9829" lon="4.50867">
        <ele>311.6</ele>
        <time>2014-03-09T13:52:24Z</time>
      </trkpt>
    </trkseg>
  </trk>
</gpx>